<?xml version="1.0" encoding="UTF-8" standalone="no" ?>
<gpx xmlns="http://www.topografix.com/GPX/1/1" xmlns:xsi="http://www.w3.org/2001/XMLSchema-instance" xsi:schemaLocation="http://www.topografix.com/GPX/1/1 http://www.topografix.com/GPX/1/1/gpx.xsd" version="1.1" creator="VisuGPX - https://www.visugpx.com">
  <metadata>
    <name>2009 LAGAHL</name>
    <desc><![CDATA[Lozère-Aveyron-Gard-Ardèche-Haute Loire]]></desc>
  </metadata>
  <trk>
    <name><![CDATA[F01]]></name>
    <trkseg>
      <trkpt lat="44.49878" lon="3.93054">
        <ele>861</ele>
        <time>2009-07-11T06:46:03Z</time>
      </trkpt>
      <trkpt lat="44.49882" lon="3.93052">
        <ele>863</ele>
        <time>2009-07-11T06:46:10Z</time>
      </trkpt>
      <trkpt lat="44.49882" lon="3.93052">
        <ele>865</ele>
        <time>2009-07-11T06:46:14Z</time>
      </trkpt>
      <trkpt lat="44.49882" lon="3.93052">
        <ele>868</ele>
        <time>2009-07-11T06:46:19Z</time>
      </trkpt>
      <trkpt lat="44.49882" lon="3.93052">
        <ele>868</ele>
        <time>2009-07-11T06:46:20Z</time>
      </trkpt>
      <trkpt lat="44.49881" lon="3.93052">
        <ele>871</ele>
        <time>2009-07-11T06:46:33Z</time>
      </trkpt>
      <trkpt lat="44.49881" lon="3.93052">
        <ele>873</ele>
        <time>2009-07-11T06:46:40Z</time>
      </trkpt>
      <trkpt lat="44.49881" lon="3.93052">
        <ele>875</ele>
        <time>2009-07-11T06:46:57Z</time>
      </trkpt>
      <trkpt lat="44.4988" lon="3.93053">
        <ele>878</ele>
        <time>2009-07-11T06:47:22Z</time>
      </trkpt>
      <trkpt lat="44.4988" lon="3.93054">
        <ele>881</ele>
        <time>2009-07-11T06:47:43Z</time>
      </trkpt>
      <trkpt lat="44.49879" lon="3.93054">
        <ele>883</ele>
        <time>2009-07-11T06:52:30Z</time>
      </trkpt>
      <trkpt lat="44.49881" lon="3.93053">
        <ele>883</ele>
        <time>2009-07-11T06:54:08Z</time>
      </trkpt>
      <trkpt lat="44.49881" lon="3.93053">
        <ele>883</ele>
        <time>2009-07-11T06:54:09Z</time>
      </trkpt>
      <trkpt lat="44.49879" lon="3.93063">
        <ele>881</ele>
        <time>2009-07-11T06:54:14Z</time>
      </trkpt>
      <trkpt lat="44.49869" lon="3.93066">
        <ele>880</ele>
        <time>2009-07-11T06:54:19Z</time>
      </trkpt>
      <trkpt lat="44.49863" lon="3.93068">
        <ele>878</ele>
        <time>2009-07-11T06:54:30Z</time>
      </trkpt>
      <trkpt lat="44.49863" lon="3.93068">
        <ele>878</ele>
        <time>2009-07-11T06:55:09Z</time>
      </trkpt>
      <trkpt lat="44.49864" lon="3.93071">
        <ele>879</ele>
        <time>2009-07-11T06:56:20Z</time>
      </trkpt>
      <trkpt lat="44.49866" lon="3.93072">
        <ele>878</ele>
        <time>2009-07-11T06:56:50Z</time>
      </trkpt>
      <trkpt lat="44.49869" lon="3.93078">
        <ele>878</ele>
        <time>2009-07-11T06:56:54Z</time>
      </trkpt>
      <trkpt lat="44.49872" lon="3.93086">
        <ele>876</ele>
        <time>2009-07-11T06:56:57Z</time>
      </trkpt>
      <trkpt lat="44.49876" lon="3.93104">
        <ele>875</ele>
        <time>2009-07-11T06:57:02Z</time>
      </trkpt>
      <trkpt lat="44.49879" lon="3.93113">
        <ele>871</ele>
        <time>2009-07-11T06:57:05Z</time>
      </trkpt>
      <trkpt lat="44.49879" lon="3.93119">
        <ele>870</ele>
        <time>2009-07-11T06:57:14Z</time>
      </trkpt>
      <trkpt lat="44.4988" lon="3.93123">
        <ele>866</ele>
        <time>2009-07-11T06:57:25Z</time>
      </trkpt>
      <trkpt lat="44.4988" lon="3.93123">
        <ele>866</ele>
        <time>2009-07-11T06:57:26Z</time>
      </trkpt>
      <trkpt lat="44.49882" lon="3.93123">
        <ele>866</ele>
        <time>2009-07-11T06:57:31Z</time>
      </trkpt>
      <trkpt lat="44.49887" lon="3.93135">
        <ele>861</ele>
        <time>2009-07-11T06:57:36Z</time>
      </trkpt>
      <trkpt lat="44.49886" lon="3.93152">
        <ele>861</ele>
        <time>2009-07-11T06:57:40Z</time>
      </trkpt>
      <trkpt lat="44.49887" lon="3.93156">
        <ele>863</ele>
        <time>2009-07-11T06:57:52Z</time>
      </trkpt>
      <trkpt lat="44.49887" lon="3.93154">
        <ele>862</ele>
        <time>2009-07-11T06:58:12Z</time>
      </trkpt>
      <trkpt lat="44.49882" lon="3.9315">
        <ele>861</ele>
        <time>2009-07-11T06:58:16Z</time>
      </trkpt>
      <trkpt lat="44.49849" lon="3.93116">
        <ele>862</ele>
        <time>2009-07-11T06:58:32Z</time>
      </trkpt>
      <trkpt lat="44.49806" lon="3.93093">
        <ele>862</ele>
        <time>2009-07-11T06:58:49Z</time>
      </trkpt>
      <trkpt lat="44.49771" lon="3.93122">
        <ele>860</ele>
        <time>2009-07-11T06:59:03Z</time>
      </trkpt>
      <trkpt lat="44.49778" lon="3.93174">
        <ele>862</ele>
        <time>2009-07-11T06:59:14Z</time>
      </trkpt>
      <trkpt lat="44.49764" lon="3.93214">
        <ele>862</ele>
        <time>2009-07-11T06:59:24Z</time>
      </trkpt>
      <trkpt lat="44.49763" lon="3.93218">
        <ele>862</ele>
        <time>2009-07-11T06:59:27Z</time>
      </trkpt>
      <trkpt lat="44.49766" lon="3.93222">
        <ele>861</ele>
        <time>2009-07-11T06:59:31Z</time>
      </trkpt>
      <trkpt lat="44.49776" lon="3.93234">
        <ele>859</ele>
        <time>2009-07-11T06:59:37Z</time>
      </trkpt>
      <trkpt lat="44.49787" lon="3.93243">
        <ele>858</ele>
        <time>2009-07-11T06:59:40Z</time>
      </trkpt>
      <trkpt lat="44.49795" lon="3.9325">
        <ele>856</ele>
        <time>2009-07-11T06:59:42Z</time>
      </trkpt>
      <trkpt lat="44.49803" lon="3.93269">
        <ele>854</ele>
        <time>2009-07-11T06:59:46Z</time>
      </trkpt>
      <trkpt lat="44.49805" lon="3.93284">
        <ele>854</ele>
        <time>2009-07-11T06:59:49Z</time>
      </trkpt>
      <trkpt lat="44.49826" lon="3.93276">
        <ele>850</ele>
        <time>2009-07-11T06:59:56Z</time>
      </trkpt>
      <trkpt lat="44.49833" lon="3.93234">
        <ele>847</ele>
        <time>2009-07-11T07:00:01Z</time>
      </trkpt>
      <trkpt lat="44.49842" lon="3.93227">
        <ele>845</ele>
        <time>2009-07-11T07:00:03Z</time>
      </trkpt>
      <trkpt lat="44.49861" lon="3.93237">
        <ele>846</ele>
        <time>2009-07-11T07:00:07Z</time>
      </trkpt>
      <trkpt lat="44.49891" lon="3.93274">
        <ele>846</ele>
        <time>2009-07-11T07:00:20Z</time>
      </trkpt>
      <trkpt lat="44.4991" lon="3.93276">
        <ele>842</ele>
        <time>2009-07-11T07:00:24Z</time>
      </trkpt>
      <trkpt lat="44.49935" lon="3.93271">
        <ele>838</ele>
        <time>2009-07-11T07:00:28Z</time>
      </trkpt>
      <trkpt lat="44.49973" lon="3.93261">
        <ele>834</ele>
        <time>2009-07-11T07:00:34Z</time>
      </trkpt>
      <trkpt lat="44.50003" lon="3.93264">
        <ele>830</ele>
        <time>2009-07-11T07:00:39Z</time>
      </trkpt>
      <trkpt lat="44.50027" lon="3.93257">
        <ele>825</ele>
        <time>2009-07-11T07:00:43Z</time>
      </trkpt>
      <trkpt lat="44.50044" lon="3.93246">
        <ele>822</ele>
        <time>2009-07-11T07:00:46Z</time>
      </trkpt>
      <trkpt lat="44.50054" lon="3.93223">
        <ele>819</ele>
        <time>2009-07-11T07:00:50Z</time>
      </trkpt>
      <trkpt lat="44.50055" lon="3.93208">
        <ele>818</ele>
        <time>2009-07-11T07:00:52Z</time>
      </trkpt>
      <trkpt lat="44.50067" lon="3.93202">
        <ele>816</ele>
        <time>2009-07-11T07:00:58Z</time>
      </trkpt>
      <trkpt lat="44.5007" lon="3.93202">
        <ele>816</ele>
        <time>2009-07-11T07:01:03Z</time>
      </trkpt>
      <trkpt lat="44.50088" lon="3.93185">
        <ele>814</ele>
        <time>2009-07-11T07:01:10Z</time>
      </trkpt>
      <trkpt lat="44.50111" lon="3.9317">
        <ele>811</ele>
        <time>2009-07-11T07:01:16Z</time>
      </trkpt>
      <trkpt lat="44.50121" lon="3.93161">
        <ele>810</ele>
        <time>2009-07-11T07:01:19Z</time>
      </trkpt>
      <trkpt lat="44.50115" lon="3.93182">
        <ele>807</ele>
        <time>2009-07-11T07:01:26Z</time>
      </trkpt>
      <trkpt lat="44.50115" lon="3.93193">
        <ele>805</ele>
        <time>2009-07-11T07:01:29Z</time>
      </trkpt>
      <trkpt lat="44.50121" lon="3.932">
        <ele>804</ele>
        <time>2009-07-11T07:01:31Z</time>
      </trkpt>
      <trkpt lat="44.50133" lon="3.93193">
        <ele>804</ele>
        <time>2009-07-11T07:01:35Z</time>
      </trkpt>
      <trkpt lat="44.50144" lon="3.93174">
        <ele>805</ele>
        <time>2009-07-11T07:01:46Z</time>
      </trkpt>
      <trkpt lat="44.50155" lon="3.93156">
        <ele>805</ele>
        <time>2009-07-11T07:01:57Z</time>
      </trkpt>
      <trkpt lat="44.50157" lon="3.93156">
        <ele>805</ele>
        <time>2009-07-11T07:01:58Z</time>
      </trkpt>
      <trkpt lat="44.50166" lon="3.93162">
        <ele>806</ele>
        <time>2009-07-11T07:02:02Z</time>
      </trkpt>
      <trkpt lat="44.50187" lon="3.93188">
        <ele>807</ele>
        <time>2009-07-11T07:02:16Z</time>
      </trkpt>
      <trkpt lat="44.50187" lon="3.93209">
        <ele>809</ele>
        <time>2009-07-11T07:02:28Z</time>
      </trkpt>
      <trkpt lat="44.50188" lon="3.93215">
        <ele>810</ele>
        <time>2009-07-11T07:02:40Z</time>
      </trkpt>
      <trkpt lat="44.50194" lon="3.9321">
        <ele>812</ele>
        <time>2009-07-11T07:03:01Z</time>
      </trkpt>
      <trkpt lat="44.502" lon="3.93217">
        <ele>814</ele>
        <time>2009-07-11T07:03:16Z</time>
      </trkpt>
      <trkpt lat="44.5021" lon="3.93228">
        <ele>818</ele>
        <time>2009-07-11T07:03:36Z</time>
      </trkpt>
      <trkpt lat="44.5021" lon="3.93228">
        <ele>818</ele>
        <time>2009-07-11T07:03:37Z</time>
      </trkpt>
      <trkpt lat="44.50218" lon="3.93228">
        <ele>820</ele>
        <time>2009-07-11T07:03:49Z</time>
      </trkpt>
      <trkpt lat="44.50224" lon="3.93233">
        <ele>822</ele>
        <time>2009-07-11T07:04:02Z</time>
      </trkpt>
      <trkpt lat="44.50227" lon="3.93241">
        <ele>824</ele>
        <time>2009-07-11T07:04:16Z</time>
      </trkpt>
      <trkpt lat="44.50233" lon="3.9324">
        <ele>827</ele>
        <time>2009-07-11T07:04:30Z</time>
      </trkpt>
      <trkpt lat="44.50233" lon="3.93239">
        <ele>827</ele>
        <time>2009-07-11T07:04:31Z</time>
      </trkpt>
      <trkpt lat="44.50246" lon="3.93242">
        <ele>827</ele>
        <time>2009-07-11T07:04:47Z</time>
      </trkpt>
      <trkpt lat="44.50273" lon="3.93235">
        <ele>827</ele>
        <time>2009-07-11T07:04:58Z</time>
      </trkpt>
      <trkpt lat="44.503" lon="3.93234">
        <ele>828</ele>
        <time>2009-07-11T07:05:08Z</time>
      </trkpt>
      <trkpt lat="44.50324" lon="3.93229">
        <ele>829</ele>
        <time>2009-07-11T07:05:17Z</time>
      </trkpt>
      <trkpt lat="44.50354" lon="3.93229">
        <ele>830</ele>
        <time>2009-07-11T07:05:29Z</time>
      </trkpt>
      <trkpt lat="44.50379" lon="3.93232">
        <ele>832</ele>
        <time>2009-07-11T07:05:40Z</time>
      </trkpt>
      <trkpt lat="44.50405" lon="3.93243">
        <ele>832</ele>
        <time>2009-07-11T07:05:52Z</time>
      </trkpt>
      <trkpt lat="44.50408" lon="3.93244">
        <ele>832</ele>
        <time>2009-07-11T07:06:04Z</time>
      </trkpt>
      <trkpt lat="44.50416" lon="3.93249">
        <ele>833</ele>
        <time>2009-07-11T07:06:10Z</time>
      </trkpt>
      <trkpt lat="44.50436" lon="3.93258">
        <ele>835</ele>
        <time>2009-07-11T07:06:21Z</time>
      </trkpt>
      <trkpt lat="44.50464" lon="3.93262">
        <ele>834</ele>
        <time>2009-07-11T07:06:33Z</time>
      </trkpt>
      <trkpt lat="44.50466" lon="3.93264">
        <ele>834</ele>
        <time>2009-07-11T07:06:34Z</time>
      </trkpt>
      <trkpt lat="44.50478" lon="3.93263">
        <ele>834</ele>
        <time>2009-07-11T07:06:45Z</time>
      </trkpt>
      <trkpt lat="44.50482" lon="3.93259">
        <ele>833</ele>
        <time>2009-07-11T07:06:54Z</time>
      </trkpt>
      <trkpt lat="44.50488" lon="3.9325">
        <ele>835</ele>
        <time>2009-07-11T07:07:05Z</time>
      </trkpt>
      <trkpt lat="44.50491" lon="3.93244">
        <ele>835</ele>
        <time>2009-07-11T07:07:19Z</time>
      </trkpt>
      <trkpt lat="44.50493" lon="3.93242">
        <ele>835</ele>
        <time>2009-07-11T07:07:21Z</time>
      </trkpt>
      <trkpt lat="44.50495" lon="3.93201">
        <ele>838</ele>
        <time>2009-07-11T07:07:37Z</time>
      </trkpt>
      <trkpt lat="44.50509" lon="3.93177">
        <ele>839</ele>
        <time>2009-07-11T07:07:49Z</time>
      </trkpt>
      <trkpt lat="44.50512" lon="3.93175">
        <ele>840</ele>
        <time>2009-07-11T07:07:51Z</time>
      </trkpt>
      <trkpt lat="44.50523" lon="3.93165">
        <ele>843</ele>
        <time>2009-07-11T07:07:59Z</time>
      </trkpt>
      <trkpt lat="44.50539" lon="3.93149">
        <ele>846</ele>
        <time>2009-07-11T07:08:12Z</time>
      </trkpt>
      <trkpt lat="44.50547" lon="3.93141">
        <ele>847</ele>
        <time>2009-07-11T07:08:18Z</time>
      </trkpt>
      <trkpt lat="44.50559" lon="3.9313">
        <ele>849</ele>
        <time>2009-07-11T07:08:27Z</time>
      </trkpt>
      <trkpt lat="44.50575" lon="3.93119">
        <ele>851</ele>
        <time>2009-07-11T07:08:40Z</time>
      </trkpt>
      <trkpt lat="44.50593" lon="3.93107">
        <ele>855</ele>
        <time>2009-07-11T07:08:51Z</time>
      </trkpt>
      <trkpt lat="44.50601" lon="3.93102">
        <ele>855</ele>
        <time>2009-07-11T07:08:56Z</time>
      </trkpt>
      <trkpt lat="44.50609" lon="3.931">
        <ele>855</ele>
        <time>2009-07-11T07:09:01Z</time>
      </trkpt>
      <trkpt lat="44.50624" lon="3.93097">
        <ele>858</ele>
        <time>2009-07-11T07:09:11Z</time>
      </trkpt>
      <trkpt lat="44.50646" lon="3.93081">
        <ele>861</ele>
        <time>2009-07-11T07:09:26Z</time>
      </trkpt>
      <trkpt lat="44.50664" lon="3.93067">
        <ele>863</ele>
        <time>2009-07-11T07:09:37Z</time>
      </trkpt>
      <trkpt lat="44.50687" lon="3.93052">
        <ele>864</ele>
        <time>2009-07-11T07:09:48Z</time>
      </trkpt>
      <trkpt lat="44.50704" lon="3.93046">
        <ele>864</ele>
        <time>2009-07-11T07:09:55Z</time>
      </trkpt>
      <trkpt lat="44.50713" lon="3.93043">
        <ele>864</ele>
        <time>2009-07-11T07:09:59Z</time>
      </trkpt>
      <trkpt lat="44.50723" lon="3.93042">
        <ele>864</ele>
        <time>2009-07-11T07:10:03Z</time>
      </trkpt>
      <trkpt lat="44.5075" lon="3.93043">
        <ele>865</ele>
        <time>2009-07-11T07:10:14Z</time>
      </trkpt>
      <trkpt lat="44.5078" lon="3.93031">
        <ele>864</ele>
        <time>2009-07-11T07:10:24Z</time>
      </trkpt>
      <trkpt lat="44.50821" lon="3.93009">
        <ele>863</ele>
        <time>2009-07-11T07:10:38Z</time>
      </trkpt>
      <trkpt lat="44.50857" lon="3.92993">
        <ele>861</ele>
        <time>2009-07-11T07:10:48Z</time>
      </trkpt>
      <trkpt lat="44.50894" lon="3.9298">
        <ele>861</ele>
        <time>2009-07-11T07:10:59Z</time>
      </trkpt>
      <trkpt lat="44.50916" lon="3.92974">
        <ele>861</ele>
        <time>2009-07-11T07:11:09Z</time>
      </trkpt>
      <trkpt lat="44.50919" lon="3.92974">
        <ele>861</ele>
        <time>2009-07-11T07:11:56Z</time>
      </trkpt>
      <trkpt lat="44.50923" lon="3.92967">
        <ele>859</ele>
        <time>2009-07-11T07:14:00Z</time>
      </trkpt>
      <trkpt lat="44.50926" lon="3.9296">
        <ele>858</ele>
        <time>2009-07-11T07:14:03Z</time>
      </trkpt>
      <trkpt lat="44.50938" lon="3.9292">
        <ele>856</ele>
        <time>2009-07-11T07:14:12Z</time>
      </trkpt>
      <trkpt lat="44.50932" lon="3.92913">
        <ele>855</ele>
        <time>2009-07-11T07:14:22Z</time>
      </trkpt>
      <trkpt lat="44.50929" lon="3.92912">
        <ele>855</ele>
        <time>2009-07-11T07:14:43Z</time>
      </trkpt>
      <trkpt lat="44.50934" lon="3.92916">
        <ele>856</ele>
        <time>2009-07-11T07:15:19Z</time>
      </trkpt>
      <trkpt lat="44.5094" lon="3.92911">
        <ele>857</ele>
        <time>2009-07-11T07:15:32Z</time>
      </trkpt>
      <trkpt lat="44.50938" lon="3.92901">
        <ele>858</ele>
        <time>2009-07-11T07:15:43Z</time>
      </trkpt>
      <trkpt lat="44.5094" lon="3.92885">
        <ele>858</ele>
        <time>2009-07-11T07:15:54Z</time>
      </trkpt>
      <trkpt lat="44.50949" lon="3.92852">
        <ele>855</ele>
        <time>2009-07-11T07:16:05Z</time>
      </trkpt>
      <trkpt lat="44.50958" lon="3.92833">
        <ele>856</ele>
        <time>2009-07-11T07:16:15Z</time>
      </trkpt>
      <trkpt lat="44.50966" lon="3.92823">
        <ele>857</ele>
        <time>2009-07-11T07:16:29Z</time>
      </trkpt>
      <trkpt lat="44.50969" lon="3.92817">
        <ele>857</ele>
        <time>2009-07-11T07:16:37Z</time>
      </trkpt>
      <trkpt lat="44.50965" lon="3.92803">
        <ele>857</ele>
        <time>2009-07-11T07:16:49Z</time>
      </trkpt>
      <trkpt lat="44.50968" lon="3.92797">
        <ele>857</ele>
        <time>2009-07-11T07:16:53Z</time>
      </trkpt>
      <trkpt lat="44.50975" lon="3.92787">
        <ele>858</ele>
        <time>2009-07-11T07:17:05Z</time>
      </trkpt>
      <trkpt lat="44.50987" lon="3.92771">
        <ele>860</ele>
        <time>2009-07-11T07:17:22Z</time>
      </trkpt>
      <trkpt lat="44.5099" lon="3.92762">
        <ele>861</ele>
        <time>2009-07-11T07:17:37Z</time>
      </trkpt>
      <trkpt lat="44.50991" lon="3.92758">
        <ele>861</ele>
        <time>2009-07-11T07:17:49Z</time>
      </trkpt>
      <trkpt lat="44.50995" lon="3.9275">
        <ele>862</ele>
        <time>2009-07-11T07:18:02Z</time>
      </trkpt>
      <trkpt lat="44.51001" lon="3.92736">
        <ele>865</ele>
        <time>2009-07-11T07:18:18Z</time>
      </trkpt>
      <trkpt lat="44.51008" lon="3.92719">
        <ele>867</ele>
        <time>2009-07-11T07:18:34Z</time>
      </trkpt>
      <trkpt lat="44.51017" lon="3.92703">
        <ele>871</ele>
        <time>2009-07-11T07:18:52Z</time>
      </trkpt>
      <trkpt lat="44.51027" lon="3.92689">
        <ele>873</ele>
        <time>2009-07-11T07:19:09Z</time>
      </trkpt>
      <trkpt lat="44.51035" lon="3.92675">
        <ele>875</ele>
        <time>2009-07-11T07:19:25Z</time>
      </trkpt>
      <trkpt lat="44.51042" lon="3.9266">
        <ele>878</ele>
        <time>2009-07-11T07:19:41Z</time>
      </trkpt>
      <trkpt lat="44.51045" lon="3.92649">
        <ele>881</ele>
        <time>2009-07-11T07:19:52Z</time>
      </trkpt>
      <trkpt lat="44.5105" lon="3.92631">
        <ele>882</ele>
        <time>2009-07-11T07:20:09Z</time>
      </trkpt>
      <trkpt lat="44.5105" lon="3.92628">
        <ele>883</ele>
        <time>2009-07-11T07:20:27Z</time>
      </trkpt>
      <trkpt lat="44.51056" lon="3.92605">
        <ele>885</ele>
        <time>2009-07-11T07:20:40Z</time>
      </trkpt>
      <trkpt lat="44.51059" lon="3.92594">
        <ele>886</ele>
        <time>2009-07-11T07:20:45Z</time>
      </trkpt>
      <trkpt lat="44.51064" lon="3.92571">
        <ele>889</ele>
        <time>2009-07-11T07:20:57Z</time>
      </trkpt>
      <trkpt lat="44.51066" lon="3.92562">
        <ele>890</ele>
        <time>2009-07-11T07:21:11Z</time>
      </trkpt>
      <trkpt lat="44.51071" lon="3.92543">
        <ele>892</ele>
        <time>2009-07-11T07:21:28Z</time>
      </trkpt>
      <trkpt lat="44.5108" lon="3.92512">
        <ele>893</ele>
        <time>2009-07-11T07:21:43Z</time>
      </trkpt>
      <trkpt lat="44.51086" lon="3.92495">
        <ele>896</ele>
        <time>2009-07-11T07:21:52Z</time>
      </trkpt>
      <trkpt lat="44.51093" lon="3.92461">
        <ele>898</ele>
        <time>2009-07-11T07:22:08Z</time>
      </trkpt>
      <trkpt lat="44.51097" lon="3.92415">
        <ele>900</ele>
        <time>2009-07-11T07:22:26Z</time>
      </trkpt>
      <trkpt lat="44.51097" lon="3.92369">
        <ele>903</ele>
        <time>2009-07-11T07:22:45Z</time>
      </trkpt>
      <trkpt lat="44.51102" lon="3.92319">
        <ele>906</ele>
        <time>2009-07-11T07:23:05Z</time>
      </trkpt>
      <trkpt lat="44.51106" lon="3.92289">
        <ele>907</ele>
        <time>2009-07-11T07:23:19Z</time>
      </trkpt>
      <trkpt lat="44.51106" lon="3.92289">
        <ele>907</ele>
        <time>2009-07-11T07:23:57Z</time>
      </trkpt>
      <trkpt lat="44.51106" lon="3.9229">
        <ele>907</ele>
        <time>2009-07-11T07:25:43Z</time>
      </trkpt>
      <trkpt lat="44.51116" lon="3.92267">
        <ele>906</ele>
        <time>2009-07-11T07:25:55Z</time>
      </trkpt>
      <trkpt lat="44.51133" lon="3.92246">
        <ele>903</ele>
        <time>2009-07-11T07:26:05Z</time>
      </trkpt>
      <trkpt lat="44.51147" lon="3.92239">
        <ele>902</ele>
        <time>2009-07-11T07:26:09Z</time>
      </trkpt>
      <trkpt lat="44.51181" lon="3.92214">
        <ele>899</ele>
        <time>2009-07-11T07:26:20Z</time>
      </trkpt>
      <trkpt lat="44.51192" lon="3.92201">
        <ele>897</ele>
        <time>2009-07-11T07:26:25Z</time>
      </trkpt>
      <trkpt lat="44.51204" lon="3.9219">
        <ele>894</ele>
        <time>2009-07-11T07:26:30Z</time>
      </trkpt>
      <trkpt lat="44.51209" lon="3.92187">
        <ele>894</ele>
        <time>2009-07-11T07:26:32Z</time>
      </trkpt>
      <trkpt lat="44.51228" lon="3.92182">
        <ele>889</ele>
        <time>2009-07-11T07:26:39Z</time>
      </trkpt>
      <trkpt lat="44.51251" lon="3.92173">
        <ele>887</ele>
        <time>2009-07-11T07:26:48Z</time>
      </trkpt>
      <trkpt lat="44.5126" lon="3.92169">
        <ele>885</ele>
        <time>2009-07-11T07:26:52Z</time>
      </trkpt>
      <trkpt lat="44.51267" lon="3.92168">
        <ele>884</ele>
        <time>2009-07-11T07:26:55Z</time>
      </trkpt>
      <trkpt lat="44.51275" lon="3.92165">
        <ele>881</ele>
        <time>2009-07-11T07:26:59Z</time>
      </trkpt>
      <trkpt lat="44.51282" lon="3.92161">
        <ele>880</ele>
        <time>2009-07-11T07:27:02Z</time>
      </trkpt>
      <trkpt lat="44.51296" lon="3.92155">
        <ele>877</ele>
        <time>2009-07-11T07:27:08Z</time>
      </trkpt>
      <trkpt lat="44.51309" lon="3.92144">
        <ele>873</ele>
        <time>2009-07-11T07:27:14Z</time>
      </trkpt>
      <trkpt lat="44.51311" lon="3.92142">
        <ele>873</ele>
        <time>2009-07-11T07:27:15Z</time>
      </trkpt>
      <trkpt lat="44.51315" lon="3.92137">
        <ele>870</ele>
        <time>2009-07-11T07:27:18Z</time>
      </trkpt>
      <trkpt lat="44.51327" lon="3.92127">
        <ele>869</ele>
        <time>2009-07-11T07:27:29Z</time>
      </trkpt>
      <trkpt lat="44.51331" lon="3.92122">
        <ele>868</ele>
        <time>2009-07-11T07:27:53Z</time>
      </trkpt>
      <trkpt lat="44.51339" lon="3.92117">
        <ele>865</ele>
        <time>2009-07-11T07:28:10Z</time>
      </trkpt>
      <trkpt lat="44.5134" lon="3.92116">
        <ele>864</ele>
        <time>2009-07-11T07:28:11Z</time>
      </trkpt>
      <trkpt lat="44.51359" lon="3.92102">
        <ele>861</ele>
        <time>2009-07-11T07:28:21Z</time>
      </trkpt>
      <trkpt lat="44.51369" lon="3.92094">
        <ele>859</ele>
        <time>2009-07-11T07:28:26Z</time>
      </trkpt>
      <trkpt lat="44.51385" lon="3.92073">
        <ele>856</ele>
        <time>2009-07-11T07:28:36Z</time>
      </trkpt>
      <trkpt lat="44.51397" lon="3.92055">
        <ele>854</ele>
        <time>2009-07-11T07:28:44Z</time>
      </trkpt>
      <trkpt lat="44.51411" lon="3.92038">
        <ele>853</ele>
        <time>2009-07-11T07:28:54Z</time>
      </trkpt>
      <trkpt lat="44.51422" lon="3.92023">
        <ele>851</ele>
        <time>2009-07-11T07:29:05Z</time>
      </trkpt>
      <trkpt lat="44.51438" lon="3.91998">
        <ele>849</ele>
        <time>2009-07-11T07:29:16Z</time>
      </trkpt>
      <trkpt lat="44.51444" lon="3.91992">
        <ele>849</ele>
        <time>2009-07-11T07:29:24Z</time>
      </trkpt>
      <trkpt lat="44.51445" lon="3.91988">
        <ele>849</ele>
        <time>2009-07-11T07:29:58Z</time>
      </trkpt>
      <trkpt lat="44.51445" lon="3.91987">
        <ele>848</ele>
        <time>2009-07-11T07:29:59Z</time>
      </trkpt>
      <trkpt lat="44.51446" lon="3.9198">
        <ele>848</ele>
        <time>2009-07-11T07:30:20Z</time>
      </trkpt>
      <trkpt lat="44.51445" lon="3.9198">
        <ele>849</ele>
        <time>2009-07-11T07:34:26Z</time>
      </trkpt>
      <trkpt lat="44.51456" lon="3.91975">
        <ele>849</ele>
        <time>2009-07-11T07:34:38Z</time>
      </trkpt>
      <trkpt lat="44.51475" lon="3.91954">
        <ele>852</ele>
        <time>2009-07-11T07:34:50Z</time>
      </trkpt>
      <trkpt lat="44.51478" lon="3.91949">
        <ele>848</ele>
        <time>2009-07-11T07:34:53Z</time>
      </trkpt>
      <trkpt lat="44.51478" lon="3.91948">
        <ele>835</ele>
        <time>2009-07-11T07:34:54Z</time>
      </trkpt>
      <trkpt lat="44.51478" lon="3.91948">
        <ele>867</ele>
        <time>2009-07-11T07:34:55Z</time>
      </trkpt>
      <trkpt lat="44.51479" lon="3.91947">
        <ele>855</ele>
        <time>2009-07-11T07:34:56Z</time>
      </trkpt>
      <trkpt lat="44.51479" lon="3.91948">
        <ele>852</ele>
        <time>2009-07-11T07:34:58Z</time>
      </trkpt>
      <trkpt lat="44.51484" lon="3.9194">
        <ele>852</ele>
        <time>2009-07-11T07:35:12Z</time>
      </trkpt>
      <trkpt lat="44.51484" lon="3.9194">
        <ele>851</ele>
        <time>2009-07-11T07:35:15Z</time>
      </trkpt>
      <trkpt lat="44.51485" lon="3.91937">
        <ele>851</ele>
        <time>2009-07-11T07:35:17Z</time>
      </trkpt>
      <trkpt lat="44.5149" lon="3.91929">
        <ele>853</ele>
        <time>2009-07-11T07:35:26Z</time>
      </trkpt>
      <trkpt lat="44.51492" lon="3.91928">
        <ele>854</ele>
        <time>2009-07-11T07:35:28Z</time>
      </trkpt>
      <trkpt lat="44.51497" lon="3.91925">
        <ele>854</ele>
        <time>2009-07-11T07:35:32Z</time>
      </trkpt>
      <trkpt lat="44.51501" lon="3.91912">
        <ele>856</ele>
        <time>2009-07-11T07:35:44Z</time>
      </trkpt>
      <trkpt lat="44.51502" lon="3.91902">
        <ele>856</ele>
        <time>2009-07-11T07:35:56Z</time>
      </trkpt>
      <trkpt lat="44.51503" lon="3.91898">
        <ele>856</ele>
        <time>2009-07-11T07:35:59Z</time>
      </trkpt>
      <trkpt lat="44.51504" lon="3.91887">
        <ele>859</ele>
        <time>2009-07-11T07:36:07Z</time>
      </trkpt>
      <trkpt lat="44.51503" lon="3.9187">
        <ele>859</ele>
        <time>2009-07-11T07:36:19Z</time>
      </trkpt>
      <trkpt lat="44.51505" lon="3.91865">
        <ele>859</ele>
        <time>2009-07-11T07:36:26Z</time>
      </trkpt>
      <trkpt lat="44.5152" lon="3.91853">
        <ele>862</ele>
        <time>2009-07-11T07:36:38Z</time>
      </trkpt>
      <trkpt lat="44.51521" lon="3.91852">
        <ele>862</ele>
        <time>2009-07-11T07:36:39Z</time>
      </trkpt>
      <trkpt lat="44.51532" lon="3.91832">
        <ele>865</ele>
        <time>2009-07-11T07:36:52Z</time>
      </trkpt>
      <trkpt lat="44.51534" lon="3.9182">
        <ele>866</ele>
        <time>2009-07-11T07:37:07Z</time>
      </trkpt>
      <trkpt lat="44.51541" lon="3.91803">
        <ele>868</ele>
        <time>2009-07-11T07:37:25Z</time>
      </trkpt>
      <trkpt lat="44.51543" lon="3.91793">
        <ele>871</ele>
        <time>2009-07-11T07:37:37Z</time>
      </trkpt>
      <trkpt lat="44.51547" lon="3.91785">
        <ele>871</ele>
        <time>2009-07-11T07:37:47Z</time>
      </trkpt>
      <trkpt lat="44.51555" lon="3.91764">
        <ele>873</ele>
        <time>2009-07-11T07:38:04Z</time>
      </trkpt>
      <trkpt lat="44.51556" lon="3.91757">
        <ele>874</ele>
        <time>2009-07-11T07:38:21Z</time>
      </trkpt>
      <trkpt lat="44.51558" lon="3.91746">
        <ele>876</ele>
        <time>2009-07-11T07:38:33Z</time>
      </trkpt>
      <trkpt lat="44.51559" lon="3.91742">
        <ele>877</ele>
        <time>2009-07-11T07:38:35Z</time>
      </trkpt>
      <trkpt lat="44.51561" lon="3.91726">
        <ele>879</ele>
        <time>2009-07-11T07:38:46Z</time>
      </trkpt>
      <trkpt lat="44.51557" lon="3.91711">
        <ele>881</ele>
        <time>2009-07-11T07:39:01Z</time>
      </trkpt>
      <trkpt lat="44.51557" lon="3.91711">
        <ele>878</ele>
        <time>2009-07-11T07:39:02Z</time>
      </trkpt>
      <trkpt lat="44.51557" lon="3.91711">
        <ele>884</ele>
        <time>2009-07-11T07:39:03Z</time>
      </trkpt>
      <trkpt lat="44.51557" lon="3.91711">
        <ele>881</ele>
        <time>2009-07-11T07:39:04Z</time>
      </trkpt>
      <trkpt lat="44.51557" lon="3.9171">
        <ele>882</ele>
        <time>2009-07-11T07:39:08Z</time>
      </trkpt>
      <trkpt lat="44.51548" lon="3.91693">
        <ele>884</ele>
        <time>2009-07-11T07:39:24Z</time>
      </trkpt>
      <trkpt lat="44.51543" lon="3.91681">
        <ele>885</ele>
        <time>2009-07-11T07:39:36Z</time>
      </trkpt>
      <trkpt lat="44.51542" lon="3.91677">
        <ele>886</ele>
        <time>2009-07-11T07:39:40Z</time>
      </trkpt>
      <trkpt lat="44.51546" lon="3.91667">
        <ele>889</ele>
        <time>2009-07-11T07:39:50Z</time>
      </trkpt>
      <trkpt lat="44.51547" lon="3.91659">
        <ele>890</ele>
        <time>2009-07-11T07:40:04Z</time>
      </trkpt>
      <trkpt lat="44.51543" lon="3.9165">
        <ele>892</ele>
        <time>2009-07-11T07:40:18Z</time>
      </trkpt>
      <trkpt lat="44.5155" lon="3.91649">
        <ele>894</ele>
        <time>2009-07-11T07:40:33Z</time>
      </trkpt>
      <trkpt lat="44.51554" lon="3.91651">
        <ele>895</ele>
        <time>2009-07-11T07:40:39Z</time>
      </trkpt>
      <trkpt lat="44.5156" lon="3.91657">
        <ele>896</ele>
        <time>2009-07-11T07:40:46Z</time>
      </trkpt>
      <trkpt lat="44.51565" lon="3.91661">
        <ele>896</ele>
        <time>2009-07-11T07:40:53Z</time>
      </trkpt>
      <trkpt lat="44.51573" lon="3.9165">
        <ele>899</ele>
        <time>2009-07-11T07:41:08Z</time>
      </trkpt>
      <trkpt lat="44.51577" lon="3.91642">
        <ele>900</ele>
        <time>2009-07-11T07:41:16Z</time>
      </trkpt>
      <trkpt lat="44.51581" lon="3.91628">
        <ele>901</ele>
        <time>2009-07-11T07:41:32Z</time>
      </trkpt>
      <trkpt lat="44.51587" lon="3.91618">
        <ele>901</ele>
        <time>2009-07-11T07:41:47Z</time>
      </trkpt>
      <trkpt lat="44.51597" lon="3.91601">
        <ele>903</ele>
        <time>2009-07-11T07:41:55Z</time>
      </trkpt>
      <trkpt lat="44.51599" lon="3.91597">
        <ele>904</ele>
        <time>2009-07-11T07:42:03Z</time>
      </trkpt>
      <trkpt lat="44.51606" lon="3.91591">
        <ele>905</ele>
        <time>2009-07-11T07:42:20Z</time>
      </trkpt>
      <trkpt lat="44.51614" lon="3.91582">
        <ele>908</ele>
        <time>2009-07-11T07:42:35Z</time>
      </trkpt>
      <trkpt lat="44.51616" lon="3.91578">
        <ele>907</ele>
        <time>2009-07-11T07:42:49Z</time>
      </trkpt>
      <trkpt lat="44.51635" lon="3.91569">
        <ele>911</ele>
        <time>2009-07-11T07:43:00Z</time>
      </trkpt>
      <trkpt lat="44.51639" lon="3.91566">
        <ele>913</ele>
        <time>2009-07-11T07:43:09Z</time>
      </trkpt>
      <trkpt lat="44.51648" lon="3.91557">
        <ele>914</ele>
        <time>2009-07-11T07:43:25Z</time>
      </trkpt>
      <trkpt lat="44.51654" lon="3.91554">
        <ele>915</ele>
        <time>2009-07-11T07:43:31Z</time>
      </trkpt>
      <trkpt lat="44.5166" lon="3.91549">
        <ele>917</ele>
        <time>2009-07-11T07:43:38Z</time>
      </trkpt>
      <trkpt lat="44.51673" lon="3.91529">
        <ele>917</ele>
        <time>2009-07-11T07:43:56Z</time>
      </trkpt>
      <trkpt lat="44.5168" lon="3.9152">
        <ele>918</ele>
        <time>2009-07-11T07:44:11Z</time>
      </trkpt>
      <trkpt lat="44.51685" lon="3.91521">
        <ele>919</ele>
        <time>2009-07-11T07:44:25Z</time>
      </trkpt>
      <trkpt lat="44.51685" lon="3.91521">
        <ele>915</ele>
        <time>2009-07-11T07:44:27Z</time>
      </trkpt>
      <trkpt lat="44.51685" lon="3.91521">
        <ele>921</ele>
        <time>2009-07-11T07:44:28Z</time>
      </trkpt>
      <trkpt lat="44.51685" lon="3.91521">
        <ele>916</ele>
        <time>2009-07-11T07:44:29Z</time>
      </trkpt>
      <trkpt lat="44.51685" lon="3.91521">
        <ele>920</ele>
        <time>2009-07-11T07:44:31Z</time>
      </trkpt>
      <trkpt lat="44.51685" lon="3.91521">
        <ele>916</ele>
        <time>2009-07-11T07:44:32Z</time>
      </trkpt>
      <trkpt lat="44.51685" lon="3.91521">
        <ele>919</ele>
        <time>2009-07-11T07:44:33Z</time>
      </trkpt>
      <trkpt lat="44.51685" lon="3.91522">
        <ele>915</ele>
        <time>2009-07-11T07:44:43Z</time>
      </trkpt>
      <trkpt lat="44.51685" lon="3.91522">
        <ele>919</ele>
        <time>2009-07-11T07:44:44Z</time>
      </trkpt>
      <trkpt lat="44.51685" lon="3.91522">
        <ele>916</ele>
        <time>2009-07-11T07:44:45Z</time>
      </trkpt>
      <trkpt lat="44.51685" lon="3.91522">
        <ele>919</ele>
        <time>2009-07-11T07:44:47Z</time>
      </trkpt>
      <trkpt lat="44.51685" lon="3.91522">
        <ele>915</ele>
        <time>2009-07-11T07:44:51Z</time>
      </trkpt>
      <trkpt lat="44.51685" lon="3.91522">
        <ele>920</ele>
        <time>2009-07-11T07:44:52Z</time>
      </trkpt>
      <trkpt lat="44.51685" lon="3.91522">
        <ele>915</ele>
        <time>2009-07-11T07:44:53Z</time>
      </trkpt>
      <trkpt lat="44.51685" lon="3.91522">
        <ele>919</ele>
        <time>2009-07-11T07:44:54Z</time>
      </trkpt>
      <trkpt lat="44.51685" lon="3.91522">
        <ele>916</ele>
        <time>2009-07-11T07:45:01Z</time>
      </trkpt>
      <trkpt lat="44.51685" lon="3.91522">
        <ele>920</ele>
        <time>2009-07-11T07:45:04Z</time>
      </trkpt>
      <trkpt lat="44.51685" lon="3.91522">
        <ele>915</ele>
        <time>2009-07-11T07:45:05Z</time>
      </trkpt>
      <trkpt lat="44.51685" lon="3.91522">
        <ele>919</ele>
        <time>2009-07-11T07:45:06Z</time>
      </trkpt>
      <trkpt lat="44.51687" lon="3.91526">
        <ele>918</ele>
        <time>2009-07-11T07:45:25Z</time>
      </trkpt>
      <trkpt lat="44.51686" lon="3.91527">
        <ele>918</ele>
        <time>2009-07-11T07:46:13Z</time>
      </trkpt>
      <trkpt lat="44.5169" lon="3.91527">
        <ele>919</ele>
        <time>2009-07-11T07:46:42Z</time>
      </trkpt>
      <trkpt lat="44.51691" lon="3.91527">
        <ele>918</ele>
        <time>2009-07-11T07:47:10Z</time>
      </trkpt>
      <trkpt lat="44.51715" lon="3.9154">
        <ele>920</ele>
        <time>2009-07-11T07:47:26Z</time>
      </trkpt>
      <trkpt lat="44.51746" lon="3.91558">
        <ele>921</ele>
        <time>2009-07-11T07:47:41Z</time>
      </trkpt>
      <trkpt lat="44.51766" lon="3.91566">
        <ele>923</ele>
        <time>2009-07-11T07:47:54Z</time>
      </trkpt>
      <trkpt lat="44.51786" lon="3.91579">
        <ele>914</ele>
        <time>2009-07-11T07:48:03Z</time>
      </trkpt>
      <trkpt lat="44.5179" lon="3.9158">
        <ele>924</ele>
        <time>2009-07-11T07:48:04Z</time>
      </trkpt>
      <trkpt lat="44.51793" lon="3.91581">
        <ele>921</ele>
        <time>2009-07-11T07:48:05Z</time>
      </trkpt>
      <trkpt lat="44.51845" lon="3.91596">
        <ele>921</ele>
        <time>2009-07-11T07:48:19Z</time>
      </trkpt>
      <trkpt lat="44.51888" lon="3.91617">
        <ele>920</ele>
        <time>2009-07-11T07:48:33Z</time>
      </trkpt>
      <trkpt lat="44.51894" lon="3.91643">
        <ele>920</ele>
        <time>2009-07-11T07:48:40Z</time>
      </trkpt>
      <trkpt lat="44.51877" lon="3.91667">
        <ele>923</ele>
        <time>2009-07-11T07:48:49Z</time>
      </trkpt>
      <trkpt lat="44.51854" lon="3.91684">
        <ele>926</ele>
        <time>2009-07-11T07:49:02Z</time>
      </trkpt>
      <trkpt lat="44.51834" lon="3.91719">
        <ele>928</ele>
        <time>2009-07-11T07:49:19Z</time>
      </trkpt>
      <trkpt lat="44.51835" lon="3.91761">
        <ele>932</ele>
        <time>2009-07-11T07:49:35Z</time>
      </trkpt>
      <trkpt lat="44.51836" lon="3.91763">
        <ele>932</ele>
        <time>2009-07-11T07:49:36Z</time>
      </trkpt>
      <trkpt lat="44.51839" lon="3.91767">
        <ele>930</ele>
        <time>2009-07-11T07:49:38Z</time>
      </trkpt>
      <trkpt lat="44.51847" lon="3.9177">
        <ele>932</ele>
        <time>2009-07-11T07:49:42Z</time>
      </trkpt>
      <trkpt lat="44.51869" lon="3.91788">
        <ele>934</ele>
        <time>2009-07-11T07:49:54Z</time>
      </trkpt>
      <trkpt lat="44.51894" lon="3.91809">
        <ele>937</ele>
        <time>2009-07-11T07:50:08Z</time>
      </trkpt>
      <trkpt lat="44.51896" lon="3.9181">
        <ele>937</ele>
        <time>2009-07-11T07:50:09Z</time>
      </trkpt>
      <trkpt lat="44.51921" lon="3.91831">
        <ele>938</ele>
        <time>2009-07-11T07:50:22Z</time>
      </trkpt>
      <trkpt lat="44.51923" lon="3.91832">
        <ele>938</ele>
        <time>2009-07-11T07:50:23Z</time>
      </trkpt>
      <trkpt lat="44.51965" lon="3.91862">
        <ele>937</ele>
        <time>2009-07-11T07:50:43Z</time>
      </trkpt>
      <trkpt lat="44.51976" lon="3.91868">
        <ele>936</ele>
        <time>2009-07-11T07:50:48Z</time>
      </trkpt>
      <trkpt lat="44.51986" lon="3.91872">
        <ele>938</ele>
        <time>2009-07-11T07:50:52Z</time>
      </trkpt>
      <trkpt lat="44.52042" lon="3.91895">
        <ele>938</ele>
        <time>2009-07-11T07:51:12Z</time>
      </trkpt>
      <trkpt lat="44.5205" lon="3.91894">
        <ele>938</ele>
        <time>2009-07-11T07:51:15Z</time>
      </trkpt>
      <trkpt lat="44.52059" lon="3.91881">
        <ele>942</ele>
        <time>2009-07-11T07:51:20Z</time>
      </trkpt>
      <trkpt lat="44.52069" lon="3.91865">
        <ele>939</ele>
        <time>2009-07-11T07:51:25Z</time>
      </trkpt>
      <trkpt lat="44.52071" lon="3.91862">
        <ele>939</ele>
        <time>2009-07-11T07:51:26Z</time>
      </trkpt>
      <trkpt lat="44.52089" lon="3.91846">
        <ele>942</ele>
        <time>2009-07-11T07:51:34Z</time>
      </trkpt>
      <trkpt lat="44.52105" lon="3.91838">
        <ele>945</ele>
        <time>2009-07-11T07:51:40Z</time>
      </trkpt>
      <trkpt lat="44.52107" lon="3.91839">
        <ele>945</ele>
        <time>2009-07-11T07:51:41Z</time>
      </trkpt>
      <trkpt lat="44.52137" lon="3.91862">
        <ele>947</ele>
        <time>2009-07-11T07:51:55Z</time>
      </trkpt>
      <trkpt lat="44.5214" lon="3.91867">
        <ele>948</ele>
        <time>2009-07-11T07:51:57Z</time>
      </trkpt>
      <trkpt lat="44.52171" lon="3.91895">
        <ele>949</ele>
        <time>2009-07-11T07:52:13Z</time>
      </trkpt>
      <trkpt lat="44.52208" lon="3.9191">
        <ele>952</ele>
        <time>2009-07-11T07:52:29Z</time>
      </trkpt>
      <trkpt lat="44.52237" lon="3.9193">
        <ele>952</ele>
        <time>2009-07-11T07:52:42Z</time>
      </trkpt>
      <trkpt lat="44.52251" lon="3.91943">
        <ele>952</ele>
        <time>2009-07-11T07:52:49Z</time>
      </trkpt>
      <trkpt lat="44.52283" lon="3.91965">
        <ele>954</ele>
        <time>2009-07-11T07:53:02Z</time>
      </trkpt>
      <trkpt lat="44.52319" lon="3.9199">
        <ele>955</ele>
        <time>2009-07-11T07:53:16Z</time>
      </trkpt>
      <trkpt lat="44.52346" lon="3.92051">
        <ele>956</ele>
        <time>2009-07-11T07:53:33Z</time>
      </trkpt>
      <trkpt lat="44.5238" lon="3.92092">
        <ele>955</ele>
        <time>2009-07-11T07:53:48Z</time>
      </trkpt>
      <trkpt lat="44.52418" lon="3.92102">
        <ele>953</ele>
        <time>2009-07-11T07:54:01Z</time>
      </trkpt>
      <trkpt lat="44.52434" lon="3.92112">
        <ele>957</ele>
        <time>2009-07-11T07:54:07Z</time>
      </trkpt>
      <trkpt lat="44.52437" lon="3.92113">
        <ele>957</ele>
        <time>2009-07-11T07:54:08Z</time>
      </trkpt>
      <trkpt lat="44.52454" lon="3.92124">
        <ele>957</ele>
        <time>2009-07-11T07:54:15Z</time>
      </trkpt>
      <trkpt lat="44.5247" lon="3.92131">
        <ele>959</ele>
        <time>2009-07-11T07:54:21Z</time>
      </trkpt>
      <trkpt lat="44.52518" lon="3.92153">
        <ele>961</ele>
        <time>2009-07-11T07:54:39Z</time>
      </trkpt>
      <trkpt lat="44.52571" lon="3.92168">
        <ele>961</ele>
        <time>2009-07-11T07:54:59Z</time>
      </trkpt>
      <trkpt lat="44.52611" lon="3.92172">
        <ele>964</ele>
        <time>2009-07-11T07:55:15Z</time>
      </trkpt>
      <trkpt lat="44.52628" lon="3.92174">
        <ele>966</ele>
        <time>2009-07-11T07:55:22Z</time>
      </trkpt>
      <trkpt lat="44.52645" lon="3.9217">
        <ele>967</ele>
        <time>2009-07-11T07:55:30Z</time>
      </trkpt>
      <trkpt lat="44.52675" lon="3.9218">
        <ele>968</ele>
        <time>2009-07-11T07:55:44Z</time>
      </trkpt>
      <trkpt lat="44.52704" lon="3.92194">
        <ele>971</ele>
        <time>2009-07-11T07:55:57Z</time>
      </trkpt>
      <trkpt lat="44.52708" lon="3.92197">
        <ele>972</ele>
        <time>2009-07-11T07:55:59Z</time>
      </trkpt>
      <trkpt lat="44.52735" lon="3.92217">
        <ele>972</ele>
        <time>2009-07-11T07:56:14Z</time>
      </trkpt>
      <trkpt lat="44.52741" lon="3.92222">
        <ele>974</ele>
        <time>2009-07-11T07:56:27Z</time>
      </trkpt>
      <trkpt lat="44.52741" lon="3.92222">
        <ele>973</ele>
        <time>2009-07-11T07:56:57Z</time>
      </trkpt>
      <trkpt lat="44.52742" lon="3.92222">
        <ele>973</ele>
        <time>2009-07-11T07:57:24Z</time>
      </trkpt>
      <trkpt lat="44.52751" lon="3.92227">
        <ele>973</ele>
        <time>2009-07-11T07:57:42Z</time>
      </trkpt>
      <trkpt lat="44.5278" lon="3.92244">
        <ele>973</ele>
        <time>2009-07-11T07:57:54Z</time>
      </trkpt>
      <trkpt lat="44.52824" lon="3.92264">
        <ele>971</ele>
        <time>2009-07-11T07:58:09Z</time>
      </trkpt>
      <trkpt lat="44.52843" lon="3.92271">
        <ele>971</ele>
        <time>2009-07-11T07:58:15Z</time>
      </trkpt>
      <trkpt lat="44.52882" lon="3.92294">
        <ele>971</ele>
        <time>2009-07-11T07:58:28Z</time>
      </trkpt>
      <trkpt lat="44.52909" lon="3.92315">
        <ele>974</ele>
        <time>2009-07-11T07:58:38Z</time>
      </trkpt>
      <trkpt lat="44.52947" lon="3.92344">
        <ele>976</ele>
        <time>2009-07-11T07:58:53Z</time>
      </trkpt>
      <trkpt lat="44.52975" lon="3.92341">
        <ele>976</ele>
        <time>2009-07-11T07:59:05Z</time>
      </trkpt>
      <trkpt lat="44.52989" lon="3.9234">
        <ele>976</ele>
        <time>2009-07-11T07:59:17Z</time>
      </trkpt>
      <trkpt lat="44.53035" lon="3.92348">
        <ele>979</ele>
        <time>2009-07-11T07:59:34Z</time>
      </trkpt>
      <trkpt lat="44.53082" lon="3.92349">
        <ele>979</ele>
        <time>2009-07-11T07:59:49Z</time>
      </trkpt>
      <trkpt lat="44.53132" lon="3.92362">
        <ele>980</ele>
        <time>2009-07-11T08:00:05Z</time>
      </trkpt>
      <trkpt lat="44.53167" lon="3.92369">
        <ele>982</ele>
        <time>2009-07-11T08:00:17Z</time>
      </trkpt>
      <trkpt lat="44.5322" lon="3.92346">
        <ele>983</ele>
        <time>2009-07-11T08:00:34Z</time>
      </trkpt>
      <trkpt lat="44.53244" lon="3.92334">
        <ele>982</ele>
        <time>2009-07-11T08:00:41Z</time>
      </trkpt>
      <trkpt lat="44.53256" lon="3.92326">
        <ele>981</ele>
        <time>2009-07-11T08:00:44Z</time>
      </trkpt>
      <trkpt lat="44.53265" lon="3.92321">
        <ele>981</ele>
        <time>2009-07-11T08:00:46Z</time>
      </trkpt>
      <trkpt lat="44.53297" lon="3.92304">
        <ele>979</ele>
        <time>2009-07-11T08:00:53Z</time>
      </trkpt>
      <trkpt lat="44.53312" lon="3.92298">
        <ele>981</ele>
        <time>2009-07-11T08:00:57Z</time>
      </trkpt>
      <trkpt lat="44.53315" lon="3.9226">
        <ele>980</ele>
        <time>2009-07-11T08:01:07Z</time>
      </trkpt>
      <trkpt lat="44.53316" lon="3.92253">
        <ele>980</ele>
        <time>2009-07-11T08:01:09Z</time>
      </trkpt>
      <trkpt lat="44.53303" lon="3.92193">
        <ele>982</ele>
        <time>2009-07-11T08:01:26Z</time>
      </trkpt>
      <trkpt lat="44.53266" lon="3.92159">
        <ele>984</ele>
        <time>2009-07-11T08:01:42Z</time>
      </trkpt>
      <trkpt lat="44.5326" lon="3.92147">
        <ele>984</ele>
        <time>2009-07-11T08:01:53Z</time>
      </trkpt>
      <trkpt lat="44.53255" lon="3.92119">
        <ele>985</ele>
        <time>2009-07-11T08:02:03Z</time>
      </trkpt>
      <trkpt lat="44.53255" lon="3.9204">
        <ele>987</ele>
        <time>2009-07-11T08:02:20Z</time>
      </trkpt>
      <trkpt lat="44.53256" lon="3.92036">
        <ele>987</ele>
        <time>2009-07-11T08:02:21Z</time>
      </trkpt>
      <trkpt lat="44.53254" lon="3.92005">
        <ele>987</ele>
        <time>2009-07-11T08:02:28Z</time>
      </trkpt>
      <trkpt lat="44.53255" lon="3.91996">
        <ele>987</ele>
        <time>2009-07-11T08:02:30Z</time>
      </trkpt>
      <trkpt lat="44.53267" lon="3.91993">
        <ele>988</ele>
        <time>2009-07-11T08:02:36Z</time>
      </trkpt>
      <trkpt lat="44.53301" lon="3.92011">
        <ele>990</ele>
        <time>2009-07-11T08:02:51Z</time>
      </trkpt>
      <trkpt lat="44.53319" lon="3.92015">
        <ele>992</ele>
        <time>2009-07-11T08:02:59Z</time>
      </trkpt>
      <trkpt lat="44.53333" lon="3.92016">
        <ele>993</ele>
        <time>2009-07-11T08:03:11Z</time>
      </trkpt>
      <trkpt lat="44.53334" lon="3.92017">
        <ele>992</ele>
        <time>2009-07-11T08:03:45Z</time>
      </trkpt>
      <trkpt lat="44.5336" lon="3.92012">
        <ele>993</ele>
        <time>2009-07-11T08:03:59Z</time>
      </trkpt>
      <trkpt lat="44.53387" lon="3.91996">
        <ele>995</ele>
        <time>2009-07-11T08:04:12Z</time>
      </trkpt>
      <trkpt lat="44.53419" lon="3.91979">
        <ele>996</ele>
        <time>2009-07-11T08:04:26Z</time>
      </trkpt>
      <trkpt lat="44.53449" lon="3.91957">
        <ele>997</ele>
        <time>2009-07-11T08:04:40Z</time>
      </trkpt>
      <trkpt lat="44.53485" lon="3.91939">
        <ele>998</ele>
        <time>2009-07-11T08:04:56Z</time>
      </trkpt>
      <trkpt lat="44.53525" lon="3.9193">
        <ele>1000</ele>
        <time>2009-07-11T08:05:13Z</time>
      </trkpt>
      <trkpt lat="44.53562" lon="3.91925">
        <ele>1001</ele>
        <time>2009-07-11T08:05:28Z</time>
      </trkpt>
      <trkpt lat="44.53605" lon="3.9192">
        <ele>1001</ele>
        <time>2009-07-11T08:05:43Z</time>
      </trkpt>
      <trkpt lat="44.53639" lon="3.91922">
        <ele>1003</ele>
        <time>2009-07-11T08:05:55Z</time>
      </trkpt>
      <trkpt lat="44.53683" lon="3.91936">
        <ele>1001</ele>
        <time>2009-07-11T08:06:10Z</time>
      </trkpt>
      <trkpt lat="44.53715" lon="3.91945">
        <ele>1003</ele>
        <time>2009-07-11T08:06:21Z</time>
      </trkpt>
      <trkpt lat="44.53747" lon="3.91948">
        <ele>1004</ele>
        <time>2009-07-11T08:06:32Z</time>
      </trkpt>
      <trkpt lat="44.53781" lon="3.91952">
        <ele>1006</ele>
        <time>2009-07-11T08:06:46Z</time>
      </trkpt>
      <trkpt lat="44.53817" lon="3.91946">
        <ele>1007</ele>
        <time>2009-07-11T08:06:59Z</time>
      </trkpt>
      <trkpt lat="44.53843" lon="3.91928">
        <ele>1009</ele>
        <time>2009-07-11T08:07:11Z</time>
      </trkpt>
      <trkpt lat="44.53873" lon="3.91901">
        <ele>1010</ele>
        <time>2009-07-11T08:07:25Z</time>
      </trkpt>
      <trkpt lat="44.53919" lon="3.91853">
        <ele>1011</ele>
        <time>2009-07-11T08:07:46Z</time>
      </trkpt>
      <trkpt lat="44.53953" lon="3.91832">
        <ele>1011</ele>
        <time>2009-07-11T08:07:59Z</time>
      </trkpt>
      <trkpt lat="44.53987" lon="3.91815">
        <ele>1012</ele>
        <time>2009-07-11T08:08:11Z</time>
      </trkpt>
      <trkpt lat="44.54028" lon="3.91795">
        <ele>1011</ele>
        <time>2009-07-11T08:08:25Z</time>
      </trkpt>
      <trkpt lat="44.54039" lon="3.91792">
        <ele>1011</ele>
        <time>2009-07-11T08:08:36Z</time>
      </trkpt>
      <trkpt lat="44.54039" lon="3.9179">
        <ele>1010</ele>
        <time>2009-07-11T08:09:07Z</time>
      </trkpt>
      <trkpt lat="44.54055" lon="3.91781">
        <ele>1009</ele>
        <time>2009-07-11T08:09:49Z</time>
      </trkpt>
      <trkpt lat="44.54087" lon="3.91771">
        <ele>1007</ele>
        <time>2009-07-11T08:10:00Z</time>
      </trkpt>
      <trkpt lat="44.54095" lon="3.91768">
        <ele>1006</ele>
        <time>2009-07-11T08:10:02Z</time>
      </trkpt>
      <trkpt lat="44.5414" lon="3.9176">
        <ele>1005</ele>
        <time>2009-07-11T08:10:13Z</time>
      </trkpt>
      <trkpt lat="44.54153" lon="3.91756">
        <ele>1003</ele>
        <time>2009-07-11T08:10:16Z</time>
      </trkpt>
      <trkpt lat="44.54175" lon="3.91745">
        <ele>1003</ele>
        <time>2009-07-11T08:10:22Z</time>
      </trkpt>
      <trkpt lat="44.542" lon="3.91739">
        <ele>1004</ele>
        <time>2009-07-11T08:10:32Z</time>
      </trkpt>
      <trkpt lat="44.54203" lon="3.91736">
        <ele>1004</ele>
        <time>2009-07-11T08:10:51Z</time>
      </trkpt>
      <trkpt lat="44.54205" lon="3.91731">
        <ele>1004</ele>
        <time>2009-07-11T08:11:16Z</time>
      </trkpt>
      <trkpt lat="44.54227" lon="3.91724">
        <ele>1005</ele>
        <time>2009-07-11T08:11:27Z</time>
      </trkpt>
      <trkpt lat="44.54261" lon="3.91716">
        <ele>1007</ele>
        <time>2009-07-11T08:11:40Z</time>
      </trkpt>
      <trkpt lat="44.54284" lon="3.91707">
        <ele>1008</ele>
        <time>2009-07-11T08:11:51Z</time>
      </trkpt>
      <trkpt lat="44.54315" lon="3.91682">
        <ele>1008</ele>
        <time>2009-07-11T08:12:04Z</time>
      </trkpt>
      <trkpt lat="44.54353" lon="3.91647">
        <ele>1009</ele>
        <time>2009-07-11T08:12:21Z</time>
      </trkpt>
      <trkpt lat="44.54384" lon="3.91605">
        <ele>1007</ele>
        <time>2009-07-11T08:12:34Z</time>
      </trkpt>
      <trkpt lat="44.54399" lon="3.91586">
        <ele>1006</ele>
        <time>2009-07-11T08:12:39Z</time>
      </trkpt>
      <trkpt lat="44.54409" lon="3.91566">
        <ele>1005</ele>
        <time>2009-07-11T08:12:43Z</time>
      </trkpt>
      <trkpt lat="44.54445" lon="3.91489">
        <ele>1002</ele>
        <time>2009-07-11T08:12:56Z</time>
      </trkpt>
      <trkpt lat="44.54463" lon="3.91455">
        <ele>1001</ele>
        <time>2009-07-11T08:13:07Z</time>
      </trkpt>
      <trkpt lat="44.545" lon="3.91419">
        <ele>1001</ele>
        <time>2009-07-11T08:13:21Z</time>
      </trkpt>
      <trkpt lat="44.5455" lon="3.91382">
        <ele>1003</ele>
        <time>2009-07-11T08:13:38Z</time>
      </trkpt>
      <trkpt lat="44.54556" lon="3.91378">
        <ele>1004</ele>
        <time>2009-07-11T08:13:40Z</time>
      </trkpt>
      <trkpt lat="44.54598" lon="3.91355">
        <ele>1004</ele>
        <time>2009-07-11T08:13:54Z</time>
      </trkpt>
      <trkpt lat="44.54643" lon="3.91331">
        <ele>1006</ele>
        <time>2009-07-11T08:14:11Z</time>
      </trkpt>
      <trkpt lat="44.5469" lon="3.91304">
        <ele>1008</ele>
        <time>2009-07-11T08:14:30Z</time>
      </trkpt>
      <trkpt lat="44.54734" lon="3.9127">
        <ele>1008</ele>
        <time>2009-07-11T08:14:49Z</time>
      </trkpt>
      <trkpt lat="44.54738" lon="3.91266">
        <ele>1011</ele>
        <time>2009-07-11T08:14:51Z</time>
      </trkpt>
      <trkpt lat="44.54802" lon="3.91213">
        <ele>1013</ele>
        <time>2009-07-11T08:15:16Z</time>
      </trkpt>
      <trkpt lat="44.54856" lon="3.91171">
        <ele>1014</ele>
        <time>2009-07-11T08:15:34Z</time>
      </trkpt>
      <trkpt lat="44.54892" lon="3.91144">
        <ele>1017</ele>
        <time>2009-07-11T08:15:46Z</time>
      </trkpt>
      <trkpt lat="44.54916" lon="3.91129">
        <ele>1018</ele>
        <time>2009-07-11T08:15:54Z</time>
      </trkpt>
      <trkpt lat="44.54984" lon="3.91102">
        <ele>1020</ele>
        <time>2009-07-11T08:16:16Z</time>
      </trkpt>
      <trkpt lat="44.54992" lon="3.91099">
        <ele>1021</ele>
        <time>2009-07-11T08:16:30Z</time>
      </trkpt>
      <trkpt lat="44.54991" lon="3.91096">
        <ele>1021</ele>
        <time>2009-07-11T08:16:39Z</time>
      </trkpt>
      <trkpt lat="44.54992" lon="3.91092">
        <ele>1023</ele>
        <time>2009-07-11T08:16:42Z</time>
      </trkpt>
      <trkpt lat="44.54987" lon="3.91091">
        <ele>1022</ele>
        <time>2009-07-11T08:16:44Z</time>
      </trkpt>
      <trkpt lat="44.54981" lon="3.91093">
        <ele>1021</ele>
        <time>2009-07-11T08:16:46Z</time>
      </trkpt>
      <trkpt lat="44.54943" lon="3.91108">
        <ele>1019</ele>
        <time>2009-07-11T08:16:59Z</time>
      </trkpt>
      <trkpt lat="44.54942" lon="3.91109">
        <ele>1019</ele>
        <time>2009-07-11T08:17:00Z</time>
      </trkpt>
      <trkpt lat="44.54945" lon="3.91098">
        <ele>1019</ele>
        <time>2009-07-11T08:17:08Z</time>
      </trkpt>
      <trkpt lat="44.54951" lon="3.91097">
        <ele>1020</ele>
        <time>2009-07-11T08:17:11Z</time>
      </trkpt>
      <trkpt lat="44.54974" lon="3.91082">
        <ele>1023</ele>
        <time>2009-07-11T08:17:24Z</time>
      </trkpt>
      <trkpt lat="44.54999" lon="3.91067">
        <ele>1025</ele>
        <time>2009-07-11T08:17:40Z</time>
      </trkpt>
      <trkpt lat="44.55005" lon="3.91063">
        <ele>1027</ele>
        <time>2009-07-11T08:17:44Z</time>
      </trkpt>
      <trkpt lat="44.55031" lon="3.91051">
        <ele>1030</ele>
        <time>2009-07-11T08:18:00Z</time>
      </trkpt>
      <trkpt lat="44.55047" lon="3.91041">
        <ele>1033</ele>
        <time>2009-07-11T08:18:10Z</time>
      </trkpt>
      <trkpt lat="44.55075" lon="3.91022">
        <ele>1035</ele>
        <time>2009-07-11T08:18:29Z</time>
      </trkpt>
      <trkpt lat="44.55079" lon="3.91019">
        <ele>1038</ele>
        <time>2009-07-11T08:18:32Z</time>
      </trkpt>
      <trkpt lat="44.55082" lon="3.91017">
        <ele>1039</ele>
        <time>2009-07-11T08:18:34Z</time>
      </trkpt>
      <trkpt lat="44.55107" lon="3.91001">
        <ele>1042</ele>
        <time>2009-07-11T08:18:51Z</time>
      </trkpt>
      <trkpt lat="44.55129" lon="3.90987">
        <ele>1046</ele>
        <time>2009-07-11T08:19:06Z</time>
      </trkpt>
      <trkpt lat="44.55144" lon="3.90975">
        <ele>1049</ele>
        <time>2009-07-11T08:19:17Z</time>
      </trkpt>
      <trkpt lat="44.55163" lon="3.90962">
        <ele>1052</ele>
        <time>2009-07-11T08:19:30Z</time>
      </trkpt>
      <trkpt lat="44.55188" lon="3.90945">
        <ele>1054</ele>
        <time>2009-07-11T08:19:47Z</time>
      </trkpt>
      <trkpt lat="44.55212" lon="3.90926">
        <ele>1056</ele>
        <time>2009-07-11T08:20:04Z</time>
      </trkpt>
      <trkpt lat="44.55227" lon="3.90915">
        <ele>1059</ele>
        <time>2009-07-11T08:20:14Z</time>
      </trkpt>
      <trkpt lat="44.55245" lon="3.90903">
        <ele>1063</ele>
        <time>2009-07-11T08:20:27Z</time>
      </trkpt>
      <trkpt lat="44.55263" lon="3.90888">
        <ele>1066</ele>
        <time>2009-07-11T08:20:40Z</time>
      </trkpt>
      <trkpt lat="44.55264" lon="3.90887">
        <ele>1067</ele>
        <time>2009-07-11T08:20:41Z</time>
      </trkpt>
      <trkpt lat="44.55286" lon="3.90874">
        <ele>1070</ele>
        <time>2009-07-11T08:20:55Z</time>
      </trkpt>
      <trkpt lat="44.55287" lon="3.90874">
        <ele>1070</ele>
        <time>2009-07-11T08:20:56Z</time>
      </trkpt>
      <trkpt lat="44.55318" lon="3.90855">
        <ele>1073</ele>
        <time>2009-07-11T08:21:16Z</time>
      </trkpt>
      <trkpt lat="44.5534" lon="3.9085">
        <ele>1074</ele>
        <time>2009-07-11T08:21:31Z</time>
      </trkpt>
      <trkpt lat="44.5537" lon="3.9087">
        <ele>1076</ele>
        <time>2009-07-11T08:21:47Z</time>
      </trkpt>
      <trkpt lat="44.5539" lon="3.90894">
        <ele>1079</ele>
        <time>2009-07-11T08:22:00Z</time>
      </trkpt>
      <trkpt lat="44.55411" lon="3.90922">
        <ele>1082</ele>
        <time>2009-07-11T08:22:14Z</time>
      </trkpt>
      <trkpt lat="44.55413" lon="3.90927">
        <ele>1083</ele>
        <time>2009-07-11T08:22:16Z</time>
      </trkpt>
      <trkpt lat="44.55432" lon="3.90953">
        <ele>1083</ele>
        <time>2009-07-11T08:22:30Z</time>
      </trkpt>
      <trkpt lat="44.55447" lon="3.9098">
        <ele>1084</ele>
        <time>2009-07-11T08:22:43Z</time>
      </trkpt>
      <trkpt lat="44.55448" lon="3.90989">
        <ele>1085</ele>
        <time>2009-07-11T08:22:47Z</time>
      </trkpt>
      <trkpt lat="44.55442" lon="3.91017">
        <ele>1088</ele>
        <time>2009-07-11T08:22:58Z</time>
      </trkpt>
      <trkpt lat="44.55445" lon="3.91028">
        <ele>1088</ele>
        <time>2009-07-11T08:23:02Z</time>
      </trkpt>
      <trkpt lat="44.55445" lon="3.91033">
        <ele>1088</ele>
        <time>2009-07-11T08:23:04Z</time>
      </trkpt>
      <trkpt lat="44.55444" lon="3.91055">
        <ele>1090</ele>
        <time>2009-07-11T08:23:13Z</time>
      </trkpt>
      <trkpt lat="44.5544" lon="3.91064">
        <ele>1090</ele>
        <time>2009-07-11T08:23:23Z</time>
      </trkpt>
      <trkpt lat="44.55439" lon="3.91085">
        <ele>1094</ele>
        <time>2009-07-11T08:23:34Z</time>
      </trkpt>
      <trkpt lat="44.55439" lon="3.91087">
        <ele>1093</ele>
        <time>2009-07-11T08:23:35Z</time>
      </trkpt>
      <trkpt lat="44.55441" lon="3.91123">
        <ele>1095</ele>
        <time>2009-07-11T08:23:50Z</time>
      </trkpt>
      <trkpt lat="44.55448" lon="3.91143">
        <ele>1097</ele>
        <time>2009-07-11T08:24:00Z</time>
      </trkpt>
      <trkpt lat="44.55452" lon="3.91146">
        <ele>1098</ele>
        <time>2009-07-11T08:24:03Z</time>
      </trkpt>
      <trkpt lat="44.55475" lon="3.91149">
        <ele>1099</ele>
        <time>2009-07-11T08:24:16Z</time>
      </trkpt>
      <trkpt lat="44.55502" lon="3.9113">
        <ele>1102</ele>
        <time>2009-07-11T08:24:32Z</time>
      </trkpt>
      <trkpt lat="44.55528" lon="3.91105">
        <ele>1105</ele>
        <time>2009-07-11T08:24:49Z</time>
      </trkpt>
      <trkpt lat="44.55547" lon="3.91088">
        <ele>1106</ele>
        <time>2009-07-11T08:25:03Z</time>
      </trkpt>
      <trkpt lat="44.55546" lon="3.91088">
        <ele>1104</ele>
        <time>2009-07-11T08:25:27Z</time>
      </trkpt>
      <trkpt lat="44.55551" lon="3.91088">
        <ele>1104</ele>
        <time>2009-07-11T08:25:46Z</time>
      </trkpt>
      <trkpt lat="44.55554" lon="3.91084">
        <ele>1105</ele>
        <time>2009-07-11T08:26:22Z</time>
      </trkpt>
      <trkpt lat="44.55553" lon="3.91085">
        <ele>1106</ele>
        <time>2009-07-11T08:27:17Z</time>
      </trkpt>
      <trkpt lat="44.55552" lon="3.91083">
        <ele>1106</ele>
        <time>2009-07-11T08:30:01Z</time>
      </trkpt>
      <trkpt lat="44.55553" lon="3.91081">
        <ele>1105</ele>
        <time>2009-07-11T08:31:19Z</time>
      </trkpt>
      <trkpt lat="44.55554" lon="3.9108">
        <ele>1105</ele>
        <time>2009-07-11T08:31:45Z</time>
      </trkpt>
      <trkpt lat="44.5557" lon="3.91068">
        <ele>1106</ele>
        <time>2009-07-11T08:31:58Z</time>
      </trkpt>
      <trkpt lat="44.55595" lon="3.9105">
        <ele>1108</ele>
        <time>2009-07-11T08:32:11Z</time>
      </trkpt>
      <trkpt lat="44.55618" lon="3.91024">
        <ele>1109</ele>
        <time>2009-07-11T08:32:24Z</time>
      </trkpt>
      <trkpt lat="44.55635" lon="3.90991">
        <ele>1110</ele>
        <time>2009-07-11T08:32:38Z</time>
      </trkpt>
      <trkpt lat="44.55659" lon="3.90982">
        <ele>1112</ele>
        <time>2009-07-11T08:32:54Z</time>
      </trkpt>
      <trkpt lat="44.55663" lon="3.90979">
        <ele>1114</ele>
        <time>2009-07-11T08:32:57Z</time>
      </trkpt>
      <trkpt lat="44.55681" lon="3.9096">
        <ele>1116</ele>
        <time>2009-07-11T08:33:12Z</time>
      </trkpt>
      <trkpt lat="44.55685" lon="3.90956">
        <ele>1118</ele>
        <time>2009-07-11T08:33:15Z</time>
      </trkpt>
      <trkpt lat="44.557" lon="3.90941">
        <ele>1119</ele>
        <time>2009-07-11T08:33:28Z</time>
      </trkpt>
      <trkpt lat="44.55712" lon="3.9093">
        <ele>1121</ele>
        <time>2009-07-11T08:33:39Z</time>
      </trkpt>
      <trkpt lat="44.55728" lon="3.90908">
        <ele>1123</ele>
        <time>2009-07-11T08:33:55Z</time>
      </trkpt>
      <trkpt lat="44.55751" lon="3.90883">
        <ele>1125</ele>
        <time>2009-07-11T08:34:16Z</time>
      </trkpt>
      <trkpt lat="44.55754" lon="3.90879">
        <ele>1127</ele>
        <time>2009-07-11T08:34:19Z</time>
      </trkpt>
      <trkpt lat="44.5577" lon="3.90849">
        <ele>1129</ele>
        <time>2009-07-11T08:34:37Z</time>
      </trkpt>
      <trkpt lat="44.55783" lon="3.90832">
        <ele>1131</ele>
        <time>2009-07-11T08:34:49Z</time>
      </trkpt>
      <trkpt lat="44.55802" lon="3.908">
        <ele>1133</ele>
        <time>2009-07-11T08:35:05Z</time>
      </trkpt>
      <trkpt lat="44.55817" lon="3.90776">
        <ele>1136</ele>
        <time>2009-07-11T08:35:17Z</time>
      </trkpt>
      <trkpt lat="44.55839" lon="3.90746">
        <ele>1138</ele>
        <time>2009-07-11T08:35:34Z</time>
      </trkpt>
      <trkpt lat="44.55856" lon="3.90727">
        <ele>1139</ele>
        <time>2009-07-11T08:35:49Z</time>
      </trkpt>
      <trkpt lat="44.55858" lon="3.90725">
        <ele>1139</ele>
        <time>2009-07-11T08:35:51Z</time>
      </trkpt>
      <trkpt lat="44.55889" lon="3.90716">
        <ele>1140</ele>
        <time>2009-07-11T08:36:06Z</time>
      </trkpt>
      <trkpt lat="44.55931" lon="3.90721">
        <ele>1138</ele>
        <time>2009-07-11T08:36:19Z</time>
      </trkpt>
      <trkpt lat="44.5598" lon="3.90723">
        <ele>1134</ele>
        <time>2009-07-11T08:36:29Z</time>
      </trkpt>
      <trkpt lat="44.56015" lon="3.9072">
        <ele>1133</ele>
        <time>2009-07-11T08:36:37Z</time>
      </trkpt>
      <trkpt lat="44.56041" lon="3.90724">
        <ele>1131</ele>
        <time>2009-07-11T08:36:43Z</time>
      </trkpt>
      <trkpt lat="44.56065" lon="3.90727">
        <ele>1132</ele>
        <time>2009-07-11T08:36:50Z</time>
      </trkpt>
      <trkpt lat="44.56081" lon="3.90724">
        <ele>1133</ele>
        <time>2009-07-11T08:37:01Z</time>
      </trkpt>
      <trkpt lat="44.56087" lon="3.90725">
        <ele>1132</ele>
        <time>2009-07-11T08:37:13Z</time>
      </trkpt>
      <trkpt lat="44.56086" lon="3.90725">
        <ele>1132</ele>
        <time>2009-07-11T08:37:56Z</time>
      </trkpt>
      <trkpt lat="44.56087" lon="3.90724">
        <ele>1132</ele>
        <time>2009-07-11T08:41:08Z</time>
      </trkpt>
      <trkpt lat="44.56086" lon="3.90726">
        <ele>1133</ele>
        <time>2009-07-11T08:41:44Z</time>
      </trkpt>
      <trkpt lat="44.5609" lon="3.90729">
        <ele>1133</ele>
        <time>2009-07-11T08:41:47Z</time>
      </trkpt>
      <trkpt lat="44.56137" lon="3.9073">
        <ele>1132</ele>
        <time>2009-07-11T08:42:03Z</time>
      </trkpt>
      <trkpt lat="44.5621" lon="3.90739">
        <ele>1130</ele>
        <time>2009-07-11T08:42:22Z</time>
      </trkpt>
      <trkpt lat="44.56227" lon="3.90743">
        <ele>1130</ele>
        <time>2009-07-11T08:42:26Z</time>
      </trkpt>
      <trkpt lat="44.56321" lon="3.90746">
        <ele>1128</ele>
        <time>2009-07-11T08:42:44Z</time>
      </trkpt>
      <trkpt lat="44.56356" lon="3.90747">
        <ele>1126</ele>
        <time>2009-07-11T08:42:50Z</time>
      </trkpt>
      <trkpt lat="44.56373" lon="3.9075">
        <ele>1125</ele>
        <time>2009-07-11T08:42:53Z</time>
      </trkpt>
      <trkpt lat="44.56384" lon="3.90754">
        <ele>1124</ele>
        <time>2009-07-11T08:42:55Z</time>
      </trkpt>
      <trkpt lat="44.56457" lon="3.90777">
        <ele>1121</ele>
        <time>2009-07-11T08:43:07Z</time>
      </trkpt>
      <trkpt lat="44.56479" lon="3.90782">
        <ele>1116</ele>
        <time>2009-07-11T08:43:10Z</time>
      </trkpt>
      <trkpt lat="44.56486" lon="3.90782">
        <ele>1117</ele>
        <time>2009-07-11T08:43:11Z</time>
      </trkpt>
      <trkpt lat="44.56508" lon="3.90782">
        <ele>1119</ele>
        <time>2009-07-11T08:43:14Z</time>
      </trkpt>
      <trkpt lat="44.56528" lon="3.90782">
        <ele>1117</ele>
        <time>2009-07-11T08:43:17Z</time>
      </trkpt>
      <trkpt lat="44.5654" lon="3.90782">
        <ele>1119</ele>
        <time>2009-07-11T08:43:19Z</time>
      </trkpt>
      <trkpt lat="44.56554" lon="3.90782">
        <ele>1120</ele>
        <time>2009-07-11T08:43:22Z</time>
      </trkpt>
      <trkpt lat="44.56599" lon="3.90778">
        <ele>1123</ele>
        <time>2009-07-11T08:43:35Z</time>
      </trkpt>
      <trkpt lat="44.56643" lon="3.90754">
        <ele>1124</ele>
        <time>2009-07-11T08:43:50Z</time>
      </trkpt>
      <trkpt lat="44.5668" lon="3.90708">
        <ele>1124</ele>
        <time>2009-07-11T08:44:05Z</time>
      </trkpt>
      <trkpt lat="44.56721" lon="3.90683">
        <ele>1122</ele>
        <time>2009-07-11T08:44:16Z</time>
      </trkpt>
      <trkpt lat="44.56781" lon="3.90662">
        <ele>1122</ele>
        <time>2009-07-11T08:44:31Z</time>
      </trkpt>
      <trkpt lat="44.56799" lon="3.90656">
        <ele>1122</ele>
        <time>2009-07-11T08:44:37Z</time>
      </trkpt>
      <trkpt lat="44.56806" lon="3.9066">
        <ele>1124</ele>
        <time>2009-07-11T08:44:41Z</time>
      </trkpt>
      <trkpt lat="44.56818" lon="3.90665">
        <ele>1122</ele>
        <time>2009-07-11T08:44:47Z</time>
      </trkpt>
      <trkpt lat="44.56839" lon="3.9066">
        <ele>1123</ele>
        <time>2009-07-11T08:44:58Z</time>
      </trkpt>
      <trkpt lat="44.56853" lon="3.90654">
        <ele>1122</ele>
        <time>2009-07-11T08:45:06Z</time>
      </trkpt>
      <trkpt lat="44.56889" lon="3.90634">
        <ele>1122</ele>
        <time>2009-07-11T08:45:19Z</time>
      </trkpt>
      <trkpt lat="44.5692" lon="3.90595">
        <ele>1121</ele>
        <time>2009-07-11T08:45:32Z</time>
      </trkpt>
      <trkpt lat="44.5692" lon="3.90593">
        <ele>1122</ele>
        <time>2009-07-11T08:45:43Z</time>
      </trkpt>
      <trkpt lat="44.56919" lon="3.90592">
        <ele>1121</ele>
        <time>2009-07-11T08:45:45Z</time>
      </trkpt>
      <trkpt lat="44.56919" lon="3.90589">
        <ele>1122</ele>
        <time>2009-07-11T08:45:49Z</time>
      </trkpt>
      <trkpt lat="44.5693" lon="3.90576">
        <ele>1120</ele>
        <time>2009-07-11T08:45:56Z</time>
      </trkpt>
      <trkpt lat="44.56933" lon="3.90574">
        <ele>1120</ele>
        <time>2009-07-11T08:45:57Z</time>
      </trkpt>
      <trkpt lat="44.5695" lon="3.9056">
        <ele>1121</ele>
        <time>2009-07-11T08:46:02Z</time>
      </trkpt>
      <trkpt lat="44.56981" lon="3.90536">
        <ele>1116</ele>
        <time>2009-07-11T08:46:10Z</time>
      </trkpt>
      <trkpt lat="44.56985" lon="3.90533">
        <ele>1116</ele>
        <time>2009-07-11T08:46:11Z</time>
      </trkpt>
      <trkpt lat="44.57073" lon="3.90484">
        <ele>1112</ele>
        <time>2009-07-11T08:46:27Z</time>
      </trkpt>
      <trkpt lat="44.57087" lon="3.90479">
        <ele>1110</ele>
        <time>2009-07-11T08:46:29Z</time>
      </trkpt>
      <trkpt lat="44.57116" lon="3.9047">
        <ele>1107</ele>
        <time>2009-07-11T08:46:33Z</time>
      </trkpt>
      <trkpt lat="44.57164" lon="3.90457">
        <ele>1105</ele>
        <time>2009-07-11T08:46:39Z</time>
      </trkpt>
      <trkpt lat="44.5718" lon="3.90453">
        <ele>1102</ele>
        <time>2009-07-11T08:46:41Z</time>
      </trkpt>
      <trkpt lat="44.57197" lon="3.90449">
        <ele>1101</ele>
        <time>2009-07-11T08:46:43Z</time>
      </trkpt>
      <trkpt lat="44.57254" lon="3.90435">
        <ele>1098</ele>
        <time>2009-07-11T08:46:50Z</time>
      </trkpt>
      <trkpt lat="44.57262" lon="3.90433">
        <ele>1098</ele>
        <time>2009-07-11T08:46:51Z</time>
      </trkpt>
      <trkpt lat="44.57388" lon="3.90401">
        <ele>1099</ele>
        <time>2009-07-11T08:47:08Z</time>
      </trkpt>
      <trkpt lat="44.57402" lon="3.90398">
        <ele>1096</ele>
        <time>2009-07-11T08:47:10Z</time>
      </trkpt>
      <trkpt lat="44.57408" lon="3.90396">
        <ele>1096</ele>
        <time>2009-07-11T08:47:11Z</time>
      </trkpt>
      <trkpt lat="44.57512" lon="3.9037">
        <ele>1097</ele>
        <time>2009-07-11T08:47:29Z</time>
      </trkpt>
      <trkpt lat="44.57513" lon="3.90369">
        <ele>1097</ele>
        <time>2009-07-11T08:47:38Z</time>
      </trkpt>
      <trkpt lat="44.57513" lon="3.90369">
        <ele>1098</ele>
        <time>2009-07-11T08:48:14Z</time>
      </trkpt>
      <trkpt lat="44.57522" lon="3.90365">
        <ele>1096</ele>
        <time>2009-07-11T08:48:22Z</time>
      </trkpt>
      <trkpt lat="44.57527" lon="3.90364">
        <ele>1100</ele>
        <time>2009-07-11T08:48:24Z</time>
      </trkpt>
      <trkpt lat="44.57539" lon="3.90361">
        <ele>1097</ele>
        <time>2009-07-11T08:48:27Z</time>
      </trkpt>
      <trkpt lat="44.57592" lon="3.90348">
        <ele>1099</ele>
        <time>2009-07-11T08:48:38Z</time>
      </trkpt>
      <trkpt lat="44.57616" lon="3.90342">
        <ele>1096</ele>
        <time>2009-07-11T08:48:43Z</time>
      </trkpt>
      <trkpt lat="44.57635" lon="3.90337">
        <ele>1097</ele>
        <time>2009-07-11T08:48:47Z</time>
      </trkpt>
      <trkpt lat="44.57732" lon="3.90313">
        <ele>1100</ele>
        <time>2009-07-11T08:49:10Z</time>
      </trkpt>
      <trkpt lat="44.57795" lon="3.90303">
        <ele>1103</ele>
        <time>2009-07-11T08:49:25Z</time>
      </trkpt>
      <trkpt lat="44.57862" lon="3.90301">
        <ele>1107</ele>
        <time>2009-07-11T08:49:41Z</time>
      </trkpt>
      <trkpt lat="44.57867" lon="3.90301">
        <ele>1106</ele>
        <time>2009-07-11T08:49:42Z</time>
      </trkpt>
      <trkpt lat="44.57916" lon="3.90304">
        <ele>1104</ele>
        <time>2009-07-11T08:49:53Z</time>
      </trkpt>
      <trkpt lat="44.57933" lon="3.90306">
        <ele>1107</ele>
        <time>2009-07-11T08:49:57Z</time>
      </trkpt>
      <trkpt lat="44.58012" lon="3.90324">
        <ele>1107</ele>
        <time>2009-07-11T08:50:14Z</time>
      </trkpt>
      <trkpt lat="44.58118" lon="3.90361">
        <ele>1106</ele>
        <time>2009-07-11T08:50:35Z</time>
      </trkpt>
      <trkpt lat="44.5817" lon="3.90386">
        <ele>1101</ele>
        <time>2009-07-11T08:50:44Z</time>
      </trkpt>
      <trkpt lat="44.58176" lon="3.90389">
        <ele>1102</ele>
        <time>2009-07-11T08:50:45Z</time>
      </trkpt>
      <trkpt lat="44.58255" lon="3.9044">
        <ele>1099</ele>
        <time>2009-07-11T08:50:58Z</time>
      </trkpt>
      <trkpt lat="44.58282" lon="3.90465">
        <ele>1099</ele>
        <time>2009-07-11T08:51:04Z</time>
      </trkpt>
      <trkpt lat="44.58284" lon="3.90467">
        <ele>1099</ele>
        <time>2009-07-11T08:51:13Z</time>
      </trkpt>
      <trkpt lat="44.58283" lon="3.90461">
        <ele>1098</ele>
        <time>2009-07-11T08:51:51Z</time>
      </trkpt>
      <trkpt lat="44.58297" lon="3.90454">
        <ele>1098</ele>
        <time>2009-07-11T08:51:58Z</time>
      </trkpt>
      <trkpt lat="44.58314" lon="3.90466">
        <ele>1098</ele>
        <time>2009-07-11T08:52:07Z</time>
      </trkpt>
      <trkpt lat="44.58319" lon="3.90472">
        <ele>1097</ele>
        <time>2009-07-11T08:52:25Z</time>
      </trkpt>
      <trkpt lat="44.58356" lon="3.9051">
        <ele>1095</ele>
        <time>2009-07-11T08:52:38Z</time>
      </trkpt>
      <trkpt lat="44.58364" lon="3.90518">
        <ele>1095</ele>
        <time>2009-07-11T08:52:40Z</time>
      </trkpt>
      <trkpt lat="44.58427" lon="3.90589">
        <ele>1092</ele>
        <time>2009-07-11T08:52:54Z</time>
      </trkpt>
      <trkpt lat="44.58449" lon="3.90616">
        <ele>1088</ele>
        <time>2009-07-11T08:52:58Z</time>
      </trkpt>
      <trkpt lat="44.58468" lon="3.90638">
        <ele>1086</ele>
        <time>2009-07-11T08:53:01Z</time>
      </trkpt>
      <trkpt lat="44.58482" lon="3.9065">
        <ele>1085</ele>
        <time>2009-07-11T08:53:03Z</time>
      </trkpt>
      <trkpt lat="44.58514" lon="3.90668">
        <ele>1082</ele>
        <time>2009-07-11T08:53:07Z</time>
      </trkpt>
      <trkpt lat="44.58557" lon="3.90692">
        <ele>1078</ele>
        <time>2009-07-11T08:53:12Z</time>
      </trkpt>
      <trkpt lat="44.58593" lon="3.90711">
        <ele>1075</ele>
        <time>2009-07-11T08:53:16Z</time>
      </trkpt>
      <trkpt lat="44.58619" lon="3.90724">
        <ele>1072</ele>
        <time>2009-07-11T08:53:19Z</time>
      </trkpt>
      <trkpt lat="44.58626" lon="3.90727">
        <ele>1072</ele>
        <time>2009-07-11T08:53:20Z</time>
      </trkpt>
      <trkpt lat="44.5864" lon="3.90731">
        <ele>1071</ele>
        <time>2009-07-11T08:53:22Z</time>
      </trkpt>
      <trkpt lat="44.58667" lon="3.90743">
        <ele>1066</ele>
        <time>2009-07-11T08:53:26Z</time>
      </trkpt>
      <trkpt lat="44.5872" lon="3.90722">
        <ele>1065</ele>
        <time>2009-07-11T08:53:33Z</time>
      </trkpt>
      <trkpt lat="44.58744" lon="3.907">
        <ele>1065</ele>
        <time>2009-07-11T08:53:39Z</time>
      </trkpt>
      <trkpt lat="44.58772" lon="3.90678">
        <ele>1059</ele>
        <time>2009-07-11T08:53:44Z</time>
      </trkpt>
      <trkpt lat="44.58784" lon="3.90668">
        <ele>1058</ele>
        <time>2009-07-11T08:53:46Z</time>
      </trkpt>
      <trkpt lat="44.58815" lon="3.90654">
        <ele>1054</ele>
        <time>2009-07-11T08:53:50Z</time>
      </trkpt>
      <trkpt lat="44.58854" lon="3.90646">
        <ele>1051</ele>
        <time>2009-07-11T08:53:54Z</time>
      </trkpt>
      <trkpt lat="44.58887" lon="3.90639">
        <ele>1045</ele>
        <time>2009-07-11T08:53:57Z</time>
      </trkpt>
      <trkpt lat="44.5891" lon="3.90631">
        <ele>1044</ele>
        <time>2009-07-11T08:53:59Z</time>
      </trkpt>
      <trkpt lat="44.58954" lon="3.90612">
        <ele>1041</ele>
        <time>2009-07-11T08:54:03Z</time>
      </trkpt>
      <trkpt lat="44.58992" lon="3.90595">
        <ele>1035</ele>
        <time>2009-07-11T08:54:07Z</time>
      </trkpt>
      <trkpt lat="44.59002" lon="3.90591">
        <ele>1037</ele>
        <time>2009-07-11T08:54:08Z</time>
      </trkpt>
      <trkpt lat="44.59022" lon="3.90582">
        <ele>1033</ele>
        <time>2009-07-11T08:54:10Z</time>
      </trkpt>
      <trkpt lat="44.59051" lon="3.90565">
        <ele>1030</ele>
        <time>2009-07-11T08:54:13Z</time>
      </trkpt>
      <trkpt lat="44.59084" lon="3.9055">
        <ele>1028</ele>
        <time>2009-07-11T08:54:17Z</time>
      </trkpt>
      <trkpt lat="44.59109" lon="3.90546">
        <ele>1023</ele>
        <time>2009-07-11T08:54:20Z</time>
      </trkpt>
      <trkpt lat="44.59117" lon="3.90546">
        <ele>1023</ele>
        <time>2009-07-11T08:54:21Z</time>
      </trkpt>
      <trkpt lat="44.59136" lon="3.90547">
        <ele>1027</ele>
        <time>2009-07-11T08:54:24Z</time>
      </trkpt>
      <trkpt lat="44.59144" lon="3.90549">
        <ele>1027</ele>
        <time>2009-07-11T08:54:26Z</time>
      </trkpt>
      <trkpt lat="44.59165" lon="3.90552">
        <ele>1025</ele>
        <time>2009-07-11T08:54:32Z</time>
      </trkpt>
      <trkpt lat="44.59181" lon="3.90557">
        <ele>1024</ele>
        <time>2009-07-11T08:54:36Z</time>
      </trkpt>
      <trkpt lat="44.5919" lon="3.90532">
        <ele>1024</ele>
        <time>2009-07-11T08:54:44Z</time>
      </trkpt>
      <trkpt lat="44.592" lon="3.90475">
        <ele>1025</ele>
        <time>2009-07-11T08:54:58Z</time>
      </trkpt>
      <trkpt lat="44.59225" lon="3.90443">
        <ele>1027</ele>
        <time>2009-07-11T08:55:10Z</time>
      </trkpt>
      <trkpt lat="44.5927" lon="3.90453">
        <ele>1029</ele>
        <time>2009-07-11T08:55:24Z</time>
      </trkpt>
      <trkpt lat="44.59289" lon="3.90461">
        <ele>1029</ele>
        <time>2009-07-11T08:55:36Z</time>
      </trkpt>
      <trkpt lat="44.5929" lon="3.90461">
        <ele>1030</ele>
        <time>2009-07-11T08:56:03Z</time>
      </trkpt>
      <trkpt lat="44.59289" lon="3.90459">
        <ele>1028</ele>
        <time>2009-07-11T08:57:03Z</time>
      </trkpt>
      <trkpt lat="44.59305" lon="3.90461">
        <ele>1029</ele>
        <time>2009-07-11T08:57:12Z</time>
      </trkpt>
      <trkpt lat="44.59325" lon="3.90465">
        <ele>1029</ele>
        <time>2009-07-11T08:57:26Z</time>
      </trkpt>
      <trkpt lat="44.59338" lon="3.90464">
        <ele>1029</ele>
        <time>2009-07-11T08:57:51Z</time>
      </trkpt>
      <trkpt lat="44.59362" lon="3.90446">
        <ele>1028</ele>
        <time>2009-07-11T08:58:02Z</time>
      </trkpt>
      <trkpt lat="44.59408" lon="3.9043">
        <ele>1029</ele>
        <time>2009-07-11T08:58:15Z</time>
      </trkpt>
      <trkpt lat="44.59424" lon="3.90428">
        <ele>1029</ele>
        <time>2009-07-11T08:58:21Z</time>
      </trkpt>
      <trkpt lat="44.59431" lon="3.9043">
        <ele>1029</ele>
        <time>2009-07-11T08:58:27Z</time>
      </trkpt>
      <trkpt lat="44.59442" lon="3.9042">
        <ele>1029</ele>
        <time>2009-07-11T08:58:42Z</time>
      </trkpt>
      <trkpt lat="44.59442" lon="3.90418">
        <ele>1029</ele>
        <time>2009-07-11T08:59:03Z</time>
      </trkpt>
      <trkpt lat="44.5943" lon="3.90388">
        <ele>1030</ele>
        <time>2009-07-11T08:59:14Z</time>
      </trkpt>
      <trkpt lat="44.594" lon="3.90375">
        <ele>1032</ele>
        <time>2009-07-11T08:59:29Z</time>
      </trkpt>
      <trkpt lat="44.59397" lon="3.90361">
        <ele>1034</ele>
        <time>2009-07-11T08:59:35Z</time>
      </trkpt>
      <trkpt lat="44.59397" lon="3.90329">
        <ele>1038</ele>
        <time>2009-07-11T08:59:51Z</time>
      </trkpt>
      <trkpt lat="44.59398" lon="3.90328">
        <ele>1038</ele>
        <time>2009-07-11T08:59:52Z</time>
      </trkpt>
      <trkpt lat="44.59426" lon="3.90313">
        <ele>1040</ele>
        <time>2009-07-11T09:00:09Z</time>
      </trkpt>
      <trkpt lat="44.59447" lon="3.90308">
        <ele>1043</ele>
        <time>2009-07-11T09:00:20Z</time>
      </trkpt>
      <trkpt lat="44.5948" lon="3.90299">
        <ele>1045</ele>
        <time>2009-07-11T09:00:39Z</time>
      </trkpt>
      <trkpt lat="44.59508" lon="3.90297">
        <ele>1047</ele>
        <time>2009-07-11T09:00:54Z</time>
      </trkpt>
      <trkpt lat="44.5952" lon="3.90297">
        <ele>1049</ele>
        <time>2009-07-11T09:01:00Z</time>
      </trkpt>
      <trkpt lat="44.59549" lon="3.90301">
        <ele>1049</ele>
        <time>2009-07-11T09:01:14Z</time>
      </trkpt>
      <trkpt lat="44.59576" lon="3.90302">
        <ele>1050</ele>
        <time>2009-07-11T09:01:29Z</time>
      </trkpt>
      <trkpt lat="44.59576" lon="3.90303">
        <ele>1049</ele>
        <time>2009-07-11T09:01:46Z</time>
      </trkpt>
      <trkpt lat="44.59575" lon="3.90303">
        <ele>1049</ele>
        <time>2009-07-11T09:01:49Z</time>
      </trkpt>
      <trkpt lat="44.5957" lon="3.90303">
        <ele>1049</ele>
        <time>2009-07-11T09:02:03Z</time>
      </trkpt>
      <trkpt lat="44.59571" lon="3.90305">
        <ele>1049</ele>
        <time>2009-07-11T09:02:19Z</time>
      </trkpt>
      <trkpt lat="44.59572" lon="3.90304">
        <ele>1045</ele>
        <time>2009-07-11T09:02:27Z</time>
      </trkpt>
      <trkpt lat="44.59572" lon="3.90303">
        <ele>1049</ele>
        <time>2009-07-11T09:02:28Z</time>
      </trkpt>
      <trkpt lat="44.59572" lon="3.90305">
        <ele>1052</ele>
        <time>2009-07-11T09:02:30Z</time>
      </trkpt>
      <trkpt lat="44.59571" lon="3.90307">
        <ele>1049</ele>
        <time>2009-07-11T09:02:35Z</time>
      </trkpt>
      <trkpt lat="44.59568" lon="3.90308">
        <ele>1048</ele>
        <time>2009-07-11T09:02:51Z</time>
      </trkpt>
      <trkpt lat="44.59569" lon="3.90306">
        <ele>1046</ele>
        <time>2009-07-11T09:03:44Z</time>
      </trkpt>
      <trkpt lat="44.59569" lon="3.90306">
        <ele>1051</ele>
        <time>2009-07-11T09:03:46Z</time>
      </trkpt>
      <trkpt lat="44.59569" lon="3.90306">
        <ele>1048</ele>
        <time>2009-07-11T09:03:47Z</time>
      </trkpt>
      <trkpt lat="44.59568" lon="3.90306">
        <ele>1051</ele>
        <time>2009-07-11T09:03:50Z</time>
      </trkpt>
      <trkpt lat="44.59568" lon="3.90306">
        <ele>1047</ele>
        <time>2009-07-11T09:03:53Z</time>
      </trkpt>
      <trkpt lat="44.59568" lon="3.90306">
        <ele>1050</ele>
        <time>2009-07-11T09:03:54Z</time>
      </trkpt>
      <trkpt lat="44.59568" lon="3.90306">
        <ele>1047</ele>
        <time>2009-07-11T09:03:55Z</time>
      </trkpt>
      <trkpt lat="44.59568" lon="3.90306">
        <ele>1050</ele>
        <time>2009-07-11T09:03:56Z</time>
      </trkpt>
      <trkpt lat="44.59568" lon="3.90306">
        <ele>1053</ele>
        <time>2009-07-11T09:04:05Z</time>
      </trkpt>
      <trkpt lat="44.59568" lon="3.90306">
        <ele>1049</ele>
        <time>2009-07-11T09:04:06Z</time>
      </trkpt>
      <trkpt lat="44.59567" lon="3.90306">
        <ele>1052</ele>
        <time>2009-07-11T09:04:21Z</time>
      </trkpt>
      <trkpt lat="44.59567" lon="3.90306">
        <ele>1049</ele>
        <time>2009-07-11T09:04:22Z</time>
      </trkpt>
      <trkpt lat="44.59567" lon="3.90304">
        <ele>1046</ele>
        <time>2009-07-11T09:04:44Z</time>
      </trkpt>
      <trkpt lat="44.59567" lon="3.90304">
        <ele>1050</ele>
        <time>2009-07-11T09:04:46Z</time>
      </trkpt>
      <trkpt lat="44.59568" lon="3.90306">
        <ele>1048</ele>
        <time>2009-07-11T09:05:34Z</time>
      </trkpt>
      <trkpt lat="44.59568" lon="3.90308">
        <ele>1049</ele>
        <time>2009-07-11T09:05:50Z</time>
      </trkpt>
      <trkpt lat="44.5957" lon="3.90309">
        <ele>1049</ele>
        <time>2009-07-11T09:06:15Z</time>
      </trkpt>
      <trkpt lat="44.59594" lon="3.90313">
        <ele>1049</ele>
        <time>2009-07-11T09:06:29Z</time>
      </trkpt>
      <trkpt lat="44.59636" lon="3.90311">
        <ele>1047</ele>
        <time>2009-07-11T09:06:44Z</time>
      </trkpt>
      <trkpt lat="44.59688" lon="3.90302">
        <ele>1046</ele>
        <time>2009-07-11T09:06:59Z</time>
      </trkpt>
      <trkpt lat="44.59719" lon="3.90296">
        <ele>1047</ele>
        <time>2009-07-11T09:07:07Z</time>
      </trkpt>
      <trkpt lat="44.59735" lon="3.90292">
        <ele>1048</ele>
        <time>2009-07-11T09:07:11Z</time>
      </trkpt>
      <trkpt lat="44.59801" lon="3.90293">
        <ele>1047</ele>
        <time>2009-07-11T09:07:28Z</time>
      </trkpt>
      <trkpt lat="44.59821" lon="3.90254">
        <ele>1047</ele>
        <time>2009-07-11T09:07:37Z</time>
      </trkpt>
      <trkpt lat="44.59838" lon="3.90218">
        <ele>1046</ele>
        <time>2009-07-11T09:07:45Z</time>
      </trkpt>
      <trkpt lat="44.59849" lon="3.90227">
        <ele>1046</ele>
        <time>2009-07-11T09:07:50Z</time>
      </trkpt>
      <trkpt lat="44.59852" lon="3.90254">
        <ele>1045</ele>
        <time>2009-07-11T09:07:55Z</time>
      </trkpt>
      <trkpt lat="44.59865" lon="3.90312">
        <ele>1045</ele>
        <time>2009-07-11T09:08:08Z</time>
      </trkpt>
      <trkpt lat="44.59863" lon="3.90313">
        <ele>1044</ele>
        <time>2009-07-11T09:08:29Z</time>
      </trkpt>
      <trkpt lat="44.5988" lon="3.90334">
        <ele>1044</ele>
        <time>2009-07-11T09:09:09Z</time>
      </trkpt>
      <trkpt lat="44.59892" lon="3.9034">
        <ele>1045</ele>
        <time>2009-07-11T09:09:12Z</time>
      </trkpt>
      <trkpt lat="44.59946" lon="3.90364">
        <ele>1045</ele>
        <time>2009-07-11T09:09:28Z</time>
      </trkpt>
      <trkpt lat="44.5995" lon="3.90367">
        <ele>1044</ele>
        <time>2009-07-11T09:10:12Z</time>
      </trkpt>
      <trkpt lat="44.59969" lon="3.90391">
        <ele>1041</ele>
        <time>2009-07-11T09:10:23Z</time>
      </trkpt>
      <trkpt lat="44.60003" lon="3.90421">
        <ele>1040</ele>
        <time>2009-07-11T09:10:32Z</time>
      </trkpt>
      <trkpt lat="44.60023" lon="3.9043">
        <ele>1039</ele>
        <time>2009-07-11T09:10:36Z</time>
      </trkpt>
      <trkpt lat="44.60065" lon="3.90454">
        <ele>1036</ele>
        <time>2009-07-11T09:10:44Z</time>
      </trkpt>
      <trkpt lat="44.6007" lon="3.90456">
        <ele>1036</ele>
        <time>2009-07-11T09:10:45Z</time>
      </trkpt>
      <trkpt lat="44.60089" lon="3.90459">
        <ele>1034</ele>
        <time>2009-07-11T09:10:48Z</time>
      </trkpt>
      <trkpt lat="44.60111" lon="3.9045">
        <ele>1035</ele>
        <time>2009-07-11T09:10:52Z</time>
      </trkpt>
      <trkpt lat="44.6012" lon="3.90441">
        <ele>1035</ele>
        <time>2009-07-11T09:10:54Z</time>
      </trkpt>
      <trkpt lat="44.60138" lon="3.90442">
        <ele>1034</ele>
        <time>2009-07-11T09:10:58Z</time>
      </trkpt>
      <trkpt lat="44.60175" lon="3.9046">
        <ele>1035</ele>
        <time>2009-07-11T09:11:07Z</time>
      </trkpt>
      <trkpt lat="44.60217" lon="3.90453">
        <ele>1033</ele>
        <time>2009-07-11T09:11:16Z</time>
      </trkpt>
      <trkpt lat="44.6025" lon="3.90451">
        <ele>1033</ele>
        <time>2009-07-11T09:11:23Z</time>
      </trkpt>
      <trkpt lat="44.60266" lon="3.90453">
        <ele>1032</ele>
        <time>2009-07-11T09:11:26Z</time>
      </trkpt>
      <trkpt lat="44.60283" lon="3.90451">
        <ele>1033</ele>
        <time>2009-07-11T09:11:29Z</time>
      </trkpt>
      <trkpt lat="44.60342" lon="3.90457">
        <ele>1031</ele>
        <time>2009-07-11T09:11:42Z</time>
      </trkpt>
      <trkpt lat="44.60347" lon="3.90458">
        <ele>1030</ele>
        <time>2009-07-11T09:11:43Z</time>
      </trkpt>
      <trkpt lat="44.60417" lon="3.90486">
        <ele>1028</ele>
        <time>2009-07-11T09:11:57Z</time>
      </trkpt>
      <trkpt lat="44.60442" lon="3.90495">
        <ele>1027</ele>
        <time>2009-07-11T09:12:02Z</time>
      </trkpt>
      <trkpt lat="44.60451" lon="3.90498">
        <ele>1028</ele>
        <time>2009-07-11T09:12:04Z</time>
      </trkpt>
      <trkpt lat="44.60472" lon="3.90505">
        <ele>1028</ele>
        <time>2009-07-11T09:12:08Z</time>
      </trkpt>
      <trkpt lat="44.6053" lon="3.90518">
        <ele>1025</ele>
        <time>2009-07-11T09:12:19Z</time>
      </trkpt>
      <trkpt lat="44.60562" lon="3.90522">
        <ele>1024</ele>
        <time>2009-07-11T09:12:25Z</time>
      </trkpt>
      <trkpt lat="44.60603" lon="3.90517">
        <ele>1023</ele>
        <time>2009-07-11T09:12:33Z</time>
      </trkpt>
      <trkpt lat="44.60622" lon="3.9051">
        <ele>1023</ele>
        <time>2009-07-11T09:12:37Z</time>
      </trkpt>
      <trkpt lat="44.60634" lon="3.90495">
        <ele>1023</ele>
        <time>2009-07-11T09:12:44Z</time>
      </trkpt>
      <trkpt lat="44.60634" lon="3.90494">
        <ele>1028</ele>
        <time>2009-07-11T09:12:57Z</time>
      </trkpt>
      <trkpt lat="44.60634" lon="3.90494">
        <ele>1025</ele>
        <time>2009-07-11T09:12:58Z</time>
      </trkpt>
      <trkpt lat="44.60637" lon="3.9049">
        <ele>1025</ele>
        <time>2009-07-11T09:13:15Z</time>
      </trkpt>
      <trkpt lat="44.60655" lon="3.90501">
        <ele>1022</ele>
        <time>2009-07-11T09:13:22Z</time>
      </trkpt>
      <trkpt lat="44.60665" lon="3.90513">
        <ele>1018</ele>
        <time>2009-07-11T09:13:27Z</time>
      </trkpt>
      <trkpt lat="44.60672" lon="3.90521">
        <ele>1017</ele>
        <time>2009-07-11T09:13:29Z</time>
      </trkpt>
      <trkpt lat="44.60684" lon="3.90536">
        <ele>1013</ele>
        <time>2009-07-11T09:13:32Z</time>
      </trkpt>
      <trkpt lat="44.60693" lon="3.90544">
        <ele>1013</ele>
        <time>2009-07-11T09:13:34Z</time>
      </trkpt>
      <trkpt lat="44.60696" lon="3.90547">
        <ele>1012</ele>
        <time>2009-07-11T09:13:35Z</time>
      </trkpt>
      <trkpt lat="44.60699" lon="3.90575">
        <ele>1014</ele>
        <time>2009-07-11T09:13:42Z</time>
      </trkpt>
      <trkpt lat="44.60707" lon="3.90584">
        <ele>1014</ele>
        <time>2009-07-11T09:13:47Z</time>
      </trkpt>
      <trkpt lat="44.6072" lon="3.90588">
        <ele>1012</ele>
        <time>2009-07-11T09:13:53Z</time>
      </trkpt>
      <trkpt lat="44.60738" lon="3.90616">
        <ele>1008</ele>
        <time>2009-07-11T09:13:59Z</time>
      </trkpt>
      <trkpt lat="44.60746" lon="3.90635">
        <ele>1007</ele>
        <time>2009-07-11T09:14:09Z</time>
      </trkpt>
      <trkpt lat="44.60746" lon="3.90635">
        <ele>1007</ele>
        <time>2009-07-11T09:14:16Z</time>
      </trkpt>
      <trkpt lat="44.60749" lon="3.90666">
        <ele>1007</ele>
        <time>2009-07-11T09:14:28Z</time>
      </trkpt>
      <trkpt lat="44.60749" lon="3.90667">
        <ele>1006</ele>
        <time>2009-07-11T09:14:38Z</time>
      </trkpt>
      <trkpt lat="44.60753" lon="3.90666">
        <ele>1005</ele>
        <time>2009-07-11T09:14:47Z</time>
      </trkpt>
      <trkpt lat="44.60756" lon="3.9066">
        <ele>1005</ele>
        <time>2009-07-11T09:14:50Z</time>
      </trkpt>
      <trkpt lat="44.60788" lon="3.90641">
        <ele>1005</ele>
        <time>2009-07-11T09:15:05Z</time>
      </trkpt>
      <trkpt lat="44.60798" lon="3.90641">
        <ele>1004</ele>
        <time>2009-07-11T09:15:09Z</time>
      </trkpt>
      <trkpt lat="44.60807" lon="3.90647">
        <ele>1007</ele>
        <time>2009-07-11T09:15:13Z</time>
      </trkpt>
      <trkpt lat="44.60834" lon="3.90674">
        <ele>1009</ele>
        <time>2009-07-11T09:15:31Z</time>
      </trkpt>
      <trkpt lat="44.60839" lon="3.90675">
        <ele>1011</ele>
        <time>2009-07-11T09:15:34Z</time>
      </trkpt>
      <trkpt lat="44.60845" lon="3.90674">
        <ele>1010</ele>
        <time>2009-07-11T09:15:46Z</time>
      </trkpt>
      <trkpt lat="44.60845" lon="3.90672">
        <ele>1010</ele>
        <time>2009-07-11T09:16:09Z</time>
      </trkpt>
      <trkpt lat="44.60844" lon="3.90673">
        <ele>1011</ele>
        <time>2009-07-11T09:16:36Z</time>
      </trkpt>
      <trkpt lat="44.60842" lon="3.90675">
        <ele>1012</ele>
        <time>2009-07-11T09:16:42Z</time>
      </trkpt>
      <trkpt lat="44.60838" lon="3.90676">
        <ele>1010</ele>
        <time>2009-07-11T09:16:45Z</time>
      </trkpt>
      <trkpt lat="44.60833" lon="3.90675">
        <ele>1010</ele>
        <time>2009-07-11T09:16:47Z</time>
      </trkpt>
      <trkpt lat="44.60825" lon="3.90665">
        <ele>1009</ele>
        <time>2009-07-11T09:16:52Z</time>
      </trkpt>
      <trkpt lat="44.60815" lon="3.90655">
        <ele>1007</ele>
        <time>2009-07-11T09:16:56Z</time>
      </trkpt>
      <trkpt lat="44.60806" lon="3.90642">
        <ele>1005</ele>
        <time>2009-07-11T09:16:59Z</time>
      </trkpt>
      <trkpt lat="44.60802" lon="3.90617">
        <ele>1007</ele>
        <time>2009-07-11T09:17:06Z</time>
      </trkpt>
      <trkpt lat="44.608" lon="3.90586">
        <ele>1010</ele>
        <time>2009-07-11T09:17:21Z</time>
      </trkpt>
      <trkpt lat="44.60801" lon="3.90587">
        <ele>1010</ele>
        <time>2009-07-11T09:17:32Z</time>
      </trkpt>
      <trkpt lat="44.60801" lon="3.90587">
        <ele>1010</ele>
        <time>2009-07-11T09:17:34Z</time>
      </trkpt>
      <trkpt lat="44.60802" lon="3.90606">
        <ele>1007</ele>
        <time>2009-07-11T09:17:39Z</time>
      </trkpt>
      <trkpt lat="44.60803" lon="3.90611">
        <ele>1008</ele>
        <time>2009-07-11T09:17:40Z</time>
      </trkpt>
      <trkpt lat="44.60804" lon="3.9063">
        <ele>1007</ele>
        <time>2009-07-11T09:17:43Z</time>
      </trkpt>
      <trkpt lat="44.60811" lon="3.90648">
        <ele>1004</ele>
        <time>2009-07-11T09:17:47Z</time>
      </trkpt>
      <trkpt lat="44.60829" lon="3.90668">
        <ele>1009</ele>
        <time>2009-07-11T09:17:57Z</time>
      </trkpt>
      <trkpt lat="44.60838" lon="3.90675">
        <ele>1010</ele>
        <time>2009-07-11T09:18:03Z</time>
      </trkpt>
      <trkpt lat="44.60847" lon="3.90672">
        <ele>1010</ele>
        <time>2009-07-11T09:18:16Z</time>
      </trkpt>
      <trkpt lat="44.60848" lon="3.90672">
        <ele>1005</ele>
        <time>2009-07-11T09:18:20Z</time>
      </trkpt>
      <trkpt lat="44.60848" lon="3.90672">
        <ele>1010</ele>
        <time>2009-07-11T09:18:21Z</time>
      </trkpt>
      <trkpt lat="44.60848" lon="3.90672">
        <ele>1005</ele>
        <time>2009-07-11T09:18:26Z</time>
      </trkpt>
      <trkpt lat="44.60848" lon="3.90672">
        <ele>1010</ele>
        <time>2009-07-11T09:18:27Z</time>
      </trkpt>
      <trkpt lat="44.60863" lon="3.9067">
        <ele>1009</ele>
        <time>2009-07-11T09:19:13Z</time>
      </trkpt>
      <trkpt lat="44.60913" lon="3.90648">
        <ele>1008</ele>
        <time>2009-07-11T09:19:29Z</time>
      </trkpt>
      <trkpt lat="44.60964" lon="3.90618">
        <ele>1008</ele>
        <time>2009-07-11T09:19:45Z</time>
      </trkpt>
      <trkpt lat="44.6102" lon="3.90567">
        <ele>1008</ele>
        <time>2009-07-11T09:20:04Z</time>
      </trkpt>
      <trkpt lat="44.61072" lon="3.90513">
        <ele>1008</ele>
        <time>2009-07-11T09:20:21Z</time>
      </trkpt>
      <trkpt lat="44.61078" lon="3.90508">
        <ele>1007</ele>
        <time>2009-07-11T09:20:23Z</time>
      </trkpt>
      <trkpt lat="44.61132" lon="3.90454">
        <ele>1008</ele>
        <time>2009-07-11T09:20:40Z</time>
      </trkpt>
      <trkpt lat="44.61143" lon="3.90445">
        <ele>1007</ele>
        <time>2009-07-11T09:20:43Z</time>
      </trkpt>
      <trkpt lat="44.61171" lon="3.90414">
        <ele>1010</ele>
        <time>2009-07-11T09:20:52Z</time>
      </trkpt>
      <trkpt lat="44.61176" lon="3.90406">
        <ele>1011</ele>
        <time>2009-07-11T09:20:54Z</time>
      </trkpt>
      <trkpt lat="44.61181" lon="3.90398">
        <ele>1008</ele>
        <time>2009-07-11T09:20:56Z</time>
      </trkpt>
      <trkpt lat="44.61183" lon="3.90394">
        <ele>1007</ele>
        <time>2009-07-11T09:20:57Z</time>
      </trkpt>
      <trkpt lat="44.61195" lon="3.90369">
        <ele>1007</ele>
        <time>2009-07-11T09:21:02Z</time>
      </trkpt>
      <trkpt lat="44.61206" lon="3.90353">
        <ele>1005</ele>
        <time>2009-07-11T09:21:05Z</time>
      </trkpt>
      <trkpt lat="44.61214" lon="3.90343">
        <ele>1005</ele>
        <time>2009-07-11T09:21:07Z</time>
      </trkpt>
      <trkpt lat="44.61221" lon="3.90331">
        <ele>1003</ele>
        <time>2009-07-11T09:21:09Z</time>
      </trkpt>
      <trkpt lat="44.61224" lon="3.90315">
        <ele>1004</ele>
        <time>2009-07-11T09:21:11Z</time>
      </trkpt>
      <trkpt lat="44.6122" lon="3.90276">
        <ele>1006</ele>
        <time>2009-07-11T09:21:20Z</time>
      </trkpt>
      <trkpt lat="44.61219" lon="3.90276">
        <ele>1007</ele>
        <time>2009-07-11T09:21:29Z</time>
      </trkpt>
      <trkpt lat="44.61219" lon="3.90277">
        <ele>1002</ele>
        <time>2009-07-11T09:21:52Z</time>
      </trkpt>
      <trkpt lat="44.61219" lon="3.90277">
        <ele>1005</ele>
        <time>2009-07-11T09:21:53Z</time>
      </trkpt>
      <trkpt lat="44.61218" lon="3.90277">
        <ele>1002</ele>
        <time>2009-07-11T09:22:07Z</time>
      </trkpt>
      <trkpt lat="44.61218" lon="3.90277">
        <ele>1006</ele>
        <time>2009-07-11T09:22:08Z</time>
      </trkpt>
      <trkpt lat="44.61217" lon="3.90276">
        <ele>1003</ele>
        <time>2009-07-11T09:22:23Z</time>
      </trkpt>
      <trkpt lat="44.61216" lon="3.90273">
        <ele>1005</ele>
        <time>2009-07-11T09:22:38Z</time>
      </trkpt>
      <trkpt lat="44.61217" lon="3.90274">
        <ele>1006</ele>
        <time>2009-07-11T09:23:09Z</time>
      </trkpt>
      <trkpt lat="44.61218" lon="3.90273">
        <ele>1006</ele>
        <time>2009-07-11T09:23:16Z</time>
      </trkpt>
      <trkpt lat="44.61227" lon="3.90267">
        <ele>1003</ele>
        <time>2009-07-11T09:23:20Z</time>
      </trkpt>
      <trkpt lat="44.61236" lon="3.90265">
        <ele>1002</ele>
        <time>2009-07-11T09:23:22Z</time>
      </trkpt>
      <trkpt lat="44.61247" lon="3.90259">
        <ele>1001</ele>
        <time>2009-07-11T09:23:24Z</time>
      </trkpt>
      <trkpt lat="44.61278" lon="3.90238">
        <ele>996</ele>
        <time>2009-07-11T09:23:29Z</time>
      </trkpt>
      <trkpt lat="44.61285" lon="3.90233">
        <ele>996</ele>
        <time>2009-07-11T09:23:30Z</time>
      </trkpt>
      <trkpt lat="44.61311" lon="3.90227">
        <ele>1000</ele>
        <time>2009-07-11T09:23:34Z</time>
      </trkpt>
      <trkpt lat="44.61317" lon="3.90226">
        <ele>1000</ele>
        <time>2009-07-11T09:23:35Z</time>
      </trkpt>
      <trkpt lat="44.61331" lon="3.90226">
        <ele>1001</ele>
        <time>2009-07-11T09:23:38Z</time>
      </trkpt>
      <trkpt lat="44.61343" lon="3.90219">
        <ele>1001</ele>
        <time>2009-07-11T09:23:42Z</time>
      </trkpt>
      <trkpt lat="44.61348" lon="3.902">
        <ele>1001</ele>
        <time>2009-07-11T09:23:47Z</time>
      </trkpt>
      <trkpt lat="44.61348" lon="3.90197">
        <ele>998</ele>
        <time>2009-07-11T09:24:06Z</time>
      </trkpt>
      <trkpt lat="44.61348" lon="3.90197">
        <ele>1005</ele>
        <time>2009-07-11T09:24:07Z</time>
      </trkpt>
      <trkpt lat="44.61348" lon="3.90197">
        <ele>1002</ele>
        <time>2009-07-11T09:24:08Z</time>
      </trkpt>
      <trkpt lat="44.6135" lon="3.90192">
        <ele>1002</ele>
        <time>2009-07-11T09:24:40Z</time>
      </trkpt>
      <trkpt lat="44.61352" lon="3.90189">
        <ele>1003</ele>
        <time>2009-07-11T09:24:46Z</time>
      </trkpt>
      <trkpt lat="44.61365" lon="3.9016">
        <ele>1003</ele>
        <time>2009-07-11T09:24:59Z</time>
      </trkpt>
      <trkpt lat="44.61376" lon="3.90121">
        <ele>1007</ele>
        <time>2009-07-11T09:25:11Z</time>
      </trkpt>
      <trkpt lat="44.6138" lon="3.90108">
        <ele>1008</ele>
        <time>2009-07-11T09:25:15Z</time>
      </trkpt>
      <trkpt lat="44.61396" lon="3.90077">
        <ele>1006</ele>
        <time>2009-07-11T09:25:27Z</time>
      </trkpt>
      <trkpt lat="44.61427" lon="3.901">
        <ele>1005</ele>
        <time>2009-07-11T09:25:37Z</time>
      </trkpt>
      <trkpt lat="44.61442" lon="3.90123">
        <ele>1005</ele>
        <time>2009-07-11T09:25:42Z</time>
      </trkpt>
      <trkpt lat="44.61463" lon="3.90183">
        <ele>1005</ele>
        <time>2009-07-11T09:25:55Z</time>
      </trkpt>
      <trkpt lat="44.61471" lon="3.90218">
        <ele>1006</ele>
        <time>2009-07-11T09:26:02Z</time>
      </trkpt>
      <trkpt lat="44.61476" lon="3.90234">
        <ele>1006</ele>
        <time>2009-07-11T09:26:05Z</time>
      </trkpt>
      <trkpt lat="44.61502" lon="3.90292">
        <ele>1008</ele>
        <time>2009-07-11T09:26:18Z</time>
      </trkpt>
      <trkpt lat="44.61506" lon="3.90299">
        <ele>1009</ele>
        <time>2009-07-11T09:26:20Z</time>
      </trkpt>
      <trkpt lat="44.6151" lon="3.90319">
        <ele>1010</ele>
        <time>2009-07-11T09:26:26Z</time>
      </trkpt>
      <trkpt lat="44.61543" lon="3.90358">
        <ele>1012</ele>
        <time>2009-07-11T09:26:40Z</time>
      </trkpt>
      <trkpt lat="44.61554" lon="3.90391">
        <ele>1013</ele>
        <time>2009-07-11T09:26:48Z</time>
      </trkpt>
      <trkpt lat="44.61559" lon="3.90384">
        <ele>1011</ele>
        <time>2009-07-11T09:26:54Z</time>
      </trkpt>
      <trkpt lat="44.61554" lon="3.9036">
        <ele>1007</ele>
        <time>2009-07-11T09:26:58Z</time>
      </trkpt>
      <trkpt lat="44.61542" lon="3.90322">
        <ele>1004</ele>
        <time>2009-07-11T09:27:03Z</time>
      </trkpt>
      <trkpt lat="44.61529" lon="3.90262">
        <ele>1001</ele>
        <time>2009-07-11T09:27:09Z</time>
      </trkpt>
      <trkpt lat="44.61513" lon="3.9022">
        <ele>1002</ele>
        <time>2009-07-11T09:27:16Z</time>
      </trkpt>
      <trkpt lat="44.6151" lon="3.90205">
        <ele>1006</ele>
        <time>2009-07-11T09:27:20Z</time>
      </trkpt>
      <trkpt lat="44.61511" lon="3.90203">
        <ele>1006</ele>
        <time>2009-07-11T09:27:21Z</time>
      </trkpt>
      <trkpt lat="44.61518" lon="3.90201">
        <ele>1006</ele>
        <time>2009-07-11T09:27:31Z</time>
      </trkpt>
      <trkpt lat="44.61524" lon="3.90192">
        <ele>1008</ele>
        <time>2009-07-11T09:27:43Z</time>
      </trkpt>
      <trkpt lat="44.61527" lon="3.90189">
        <ele>1009</ele>
        <time>2009-07-11T09:27:58Z</time>
      </trkpt>
      <trkpt lat="44.61532" lon="3.90182">
        <ele>1009</ele>
        <time>2009-07-11T09:28:13Z</time>
      </trkpt>
      <trkpt lat="44.61539" lon="3.90175">
        <ele>1010</ele>
        <time>2009-07-11T09:28:18Z</time>
      </trkpt>
      <trkpt lat="44.61551" lon="3.90165">
        <ele>1012</ele>
        <time>2009-07-11T09:28:30Z</time>
      </trkpt>
      <trkpt lat="44.61553" lon="3.90162">
        <ele>1011</ele>
        <time>2009-07-11T09:28:35Z</time>
      </trkpt>
      <trkpt lat="44.61562" lon="3.90154">
        <ele>1013</ele>
        <time>2009-07-11T09:28:49Z</time>
      </trkpt>
      <trkpt lat="44.61571" lon="3.90142">
        <ele>1015</ele>
        <time>2009-07-11T09:29:05Z</time>
      </trkpt>
      <trkpt lat="44.61573" lon="3.90139">
        <ele>1014</ele>
        <time>2009-07-11T09:29:09Z</time>
      </trkpt>
      <trkpt lat="44.61574" lon="3.90127">
        <ele>1015</ele>
        <time>2009-07-11T09:29:20Z</time>
      </trkpt>
      <trkpt lat="44.61574" lon="3.90114">
        <ele>1017</ele>
        <time>2009-07-11T09:29:33Z</time>
      </trkpt>
      <trkpt lat="44.61575" lon="3.90107">
        <ele>1018</ele>
        <time>2009-07-11T09:29:43Z</time>
      </trkpt>
      <trkpt lat="44.61576" lon="3.90099">
        <ele>1018</ele>
        <time>2009-07-11T09:29:53Z</time>
      </trkpt>
      <trkpt lat="44.61577" lon="3.90088">
        <ele>1019</ele>
        <time>2009-07-11T09:30:06Z</time>
      </trkpt>
      <trkpt lat="44.6158" lon="3.90072">
        <ele>1019</ele>
        <time>2009-07-11T09:30:14Z</time>
      </trkpt>
      <trkpt lat="44.61587" lon="3.90032">
        <ele>1022</ele>
        <time>2009-07-11T09:30:30Z</time>
      </trkpt>
      <trkpt lat="44.6159" lon="3.90016">
        <ele>1024</ele>
        <time>2009-07-11T09:30:43Z</time>
      </trkpt>
      <trkpt lat="44.61591" lon="3.90016">
        <ele>1026</ele>
        <time>2009-07-11T09:31:17Z</time>
      </trkpt>
      <trkpt lat="44.61591" lon="3.90016">
        <ele>1022</ele>
        <time>2009-07-11T09:31:20Z</time>
      </trkpt>
      <trkpt lat="44.61591" lon="3.90016">
        <ele>1025</ele>
        <time>2009-07-11T09:31:21Z</time>
      </trkpt>
      <trkpt lat="44.61591" lon="3.90016">
        <ele>1021</ele>
        <time>2009-07-11T09:31:34Z</time>
      </trkpt>
      <trkpt lat="44.61591" lon="3.90016">
        <ele>1025</ele>
        <time>2009-07-11T09:31:35Z</time>
      </trkpt>
      <trkpt lat="44.61591" lon="3.90016">
        <ele>1023</ele>
        <time>2009-07-11T09:31:40Z</time>
      </trkpt>
      <trkpt lat="44.61592" lon="3.90016">
        <ele>1026</ele>
        <time>2009-07-11T09:32:09Z</time>
      </trkpt>
      <trkpt lat="44.61592" lon="3.90016">
        <ele>1022</ele>
        <time>2009-07-11T09:32:10Z</time>
      </trkpt>
      <trkpt lat="44.61593" lon="3.90016">
        <ele>1022</ele>
        <time>2009-07-11T09:32:11Z</time>
      </trkpt>
      <trkpt lat="44.61593" lon="3.90016">
        <ele>1024</ele>
        <time>2009-07-11T09:32:13Z</time>
      </trkpt>
      <trkpt lat="44.61593" lon="3.90016">
        <ele>1027</ele>
        <time>2009-07-11T09:32:19Z</time>
      </trkpt>
      <trkpt lat="44.61593" lon="3.90016">
        <ele>1024</ele>
        <time>2009-07-11T09:32:20Z</time>
      </trkpt>
      <trkpt lat="44.61594" lon="3.90016">
        <ele>1024</ele>
        <time>2009-07-11T09:32:39Z</time>
      </trkpt>
      <trkpt lat="44.61592" lon="3.90016">
        <ele>1027</ele>
        <time>2009-07-11T09:33:20Z</time>
      </trkpt>
      <trkpt lat="44.61592" lon="3.90016">
        <ele>1024</ele>
        <time>2009-07-11T09:33:22Z</time>
      </trkpt>
      <trkpt lat="44.61593" lon="3.90016">
        <ele>1020</ele>
        <time>2009-07-11T09:33:42Z</time>
      </trkpt>
      <trkpt lat="44.61593" lon="3.90016">
        <ele>1024</ele>
        <time>2009-07-11T09:33:43Z</time>
      </trkpt>
      <trkpt lat="44.61594" lon="3.90016">
        <ele>1023</ele>
        <time>2009-07-11T09:33:50Z</time>
      </trkpt>
      <trkpt lat="44.61594" lon="3.90016">
        <ele>1024</ele>
        <time>2009-07-11T09:34:00Z</time>
      </trkpt>
      <trkpt lat="44.61594" lon="3.90016">
        <ele>1023</ele>
        <time>2009-07-11T09:34:04Z</time>
      </trkpt>
      <trkpt lat="44.61594" lon="3.90016">
        <ele>1026</ele>
        <time>2009-07-11T09:34:12Z</time>
      </trkpt>
      <trkpt lat="44.61594" lon="3.90016">
        <ele>1023</ele>
        <time>2009-07-11T09:34:15Z</time>
      </trkpt>
      <trkpt lat="44.61597" lon="3.89998">
        <ele>1025</ele>
        <time>2009-07-11T09:34:49Z</time>
      </trkpt>
      <trkpt lat="44.61617" lon="3.89952">
        <ele>1029</ele>
        <time>2009-07-11T09:35:06Z</time>
      </trkpt>
      <trkpt lat="44.61619" lon="3.89947">
        <ele>1030</ele>
        <time>2009-07-11T09:35:08Z</time>
      </trkpt>
      <trkpt lat="44.61641" lon="3.89904">
        <ele>1032</ele>
        <time>2009-07-11T09:35:24Z</time>
      </trkpt>
      <trkpt lat="44.61656" lon="3.89874">
        <ele>1035</ele>
        <time>2009-07-11T09:35:35Z</time>
      </trkpt>
      <trkpt lat="44.61691" lon="3.89833">
        <ele>1035</ele>
        <time>2009-07-11T09:35:50Z</time>
      </trkpt>
      <trkpt lat="44.61705" lon="3.89821">
        <ele>1032</ele>
        <time>2009-07-11T09:35:55Z</time>
      </trkpt>
      <trkpt lat="44.61711" lon="3.89814">
        <ele>1032</ele>
        <time>2009-07-11T09:35:57Z</time>
      </trkpt>
      <trkpt lat="44.61729" lon="3.89804">
        <ele>1030</ele>
        <time>2009-07-11T09:36:01Z</time>
      </trkpt>
      <trkpt lat="44.61758" lon="3.89788">
        <ele>1029</ele>
        <time>2009-07-11T09:36:06Z</time>
      </trkpt>
      <trkpt lat="44.61797" lon="3.89755">
        <ele>1027</ele>
        <time>2009-07-11T09:36:14Z</time>
      </trkpt>
      <trkpt lat="44.6183" lon="3.89716">
        <ele>1026</ele>
        <time>2009-07-11T09:36:22Z</time>
      </trkpt>
      <trkpt lat="44.61916" lon="3.89658">
        <ele>1024</ele>
        <time>2009-07-11T09:36:38Z</time>
      </trkpt>
      <trkpt lat="44.61942" lon="3.89648">
        <ele>1022</ele>
        <time>2009-07-11T09:36:42Z</time>
      </trkpt>
      <trkpt lat="44.62039" lon="3.89601">
        <ele>1020</ele>
        <time>2009-07-11T09:36:59Z</time>
      </trkpt>
      <trkpt lat="44.62075" lon="3.89587">
        <ele>1023</ele>
        <time>2009-07-11T09:37:06Z</time>
      </trkpt>
      <trkpt lat="44.62085" lon="3.89584">
        <ele>1019</ele>
        <time>2009-07-11T09:37:08Z</time>
      </trkpt>
      <trkpt lat="44.62128" lon="3.89574">
        <ele>1025</ele>
        <time>2009-07-11T09:37:17Z</time>
      </trkpt>
      <trkpt lat="44.62132" lon="3.89573">
        <ele>1019</ele>
        <time>2009-07-11T09:37:18Z</time>
      </trkpt>
      <trkpt lat="44.62176" lon="3.89572">
        <ele>1017</ele>
        <time>2009-07-11T09:37:28Z</time>
      </trkpt>
      <trkpt lat="44.62209" lon="3.89574">
        <ele>1014</ele>
        <time>2009-07-11T09:37:35Z</time>
      </trkpt>
      <trkpt lat="44.62218" lon="3.89576">
        <ele>1017</ele>
        <time>2009-07-11T09:37:37Z</time>
      </trkpt>
      <trkpt lat="44.62224" lon="3.89576">
        <ele>1013</ele>
        <time>2009-07-11T09:37:38Z</time>
      </trkpt>
      <trkpt lat="44.6224" lon="3.89578">
        <ele>1009</ele>
        <time>2009-07-11T09:37:41Z</time>
      </trkpt>
      <trkpt lat="44.62253" lon="3.8958">
        <ele>1008</ele>
        <time>2009-07-11T09:37:43Z</time>
      </trkpt>
      <trkpt lat="44.62267" lon="3.8958">
        <ele>1006</ele>
        <time>2009-07-11T09:37:45Z</time>
      </trkpt>
      <trkpt lat="44.62306" lon="3.89564">
        <ele>1003</ele>
        <time>2009-07-11T09:37:50Z</time>
      </trkpt>
      <trkpt lat="44.62328" lon="3.89547">
        <ele>998</ele>
        <time>2009-07-11T09:37:53Z</time>
      </trkpt>
      <trkpt lat="44.62353" lon="3.8954">
        <ele>996</ele>
        <time>2009-07-11T09:37:56Z</time>
      </trkpt>
      <trkpt lat="44.62371" lon="3.89543">
        <ele>994</ele>
        <time>2009-07-11T09:37:58Z</time>
      </trkpt>
      <trkpt lat="44.62408" lon="3.89559">
        <ele>993</ele>
        <time>2009-07-11T09:38:02Z</time>
      </trkpt>
      <trkpt lat="44.6248" lon="3.89572">
        <ele>986</ele>
        <time>2009-07-11T09:38:09Z</time>
      </trkpt>
      <trkpt lat="44.62502" lon="3.89567">
        <ele>986</ele>
        <time>2009-07-11T09:38:11Z</time>
      </trkpt>
      <trkpt lat="44.62512" lon="3.89563">
        <ele>982</ele>
        <time>2009-07-11T09:38:12Z</time>
      </trkpt>
      <trkpt lat="44.62617" lon="3.89509">
        <ele>982</ele>
        <time>2009-07-11T09:38:24Z</time>
      </trkpt>
      <trkpt lat="44.62656" lon="3.89489">
        <ele>984</ele>
        <time>2009-07-11T09:38:31Z</time>
      </trkpt>
      <trkpt lat="44.62725" lon="3.89455">
        <ele>982</ele>
        <time>2009-07-11T09:38:44Z</time>
      </trkpt>
      <trkpt lat="44.62748" lon="3.89449">
        <ele>982</ele>
        <time>2009-07-11T09:38:48Z</time>
      </trkpt>
      <trkpt lat="44.62773" lon="3.8945">
        <ele>980</ele>
        <time>2009-07-11T09:38:52Z</time>
      </trkpt>
      <trkpt lat="44.62875" lon="3.89468">
        <ele>982</ele>
        <time>2009-07-11T09:39:10Z</time>
      </trkpt>
      <trkpt lat="44.62949" lon="3.8948">
        <ele>982</ele>
        <time>2009-07-11T09:39:25Z</time>
      </trkpt>
      <trkpt lat="44.62991" lon="3.89487">
        <ele>980</ele>
        <time>2009-07-11T09:39:33Z</time>
      </trkpt>
      <trkpt lat="44.63018" lon="3.89491">
        <ele>979</ele>
        <time>2009-07-11T09:39:38Z</time>
      </trkpt>
      <trkpt lat="44.63082" lon="3.89493">
        <ele>979</ele>
        <time>2009-07-11T09:39:50Z</time>
      </trkpt>
      <trkpt lat="44.63181" lon="3.89482">
        <ele>980</ele>
        <time>2009-07-11T09:40:09Z</time>
      </trkpt>
      <trkpt lat="44.63272" lon="3.89452">
        <ele>977</ele>
        <time>2009-07-11T09:40:25Z</time>
      </trkpt>
      <trkpt lat="44.63351" lon="3.89448">
        <ele>977</ele>
        <time>2009-07-11T09:40:38Z</time>
      </trkpt>
      <trkpt lat="44.63388" lon="3.89459">
        <ele>978</ele>
        <time>2009-07-11T09:40:44Z</time>
      </trkpt>
      <trkpt lat="44.63399" lon="3.89464">
        <ele>977</ele>
        <time>2009-07-11T09:40:46Z</time>
      </trkpt>
      <trkpt lat="44.6344" lon="3.89482">
        <ele>979</ele>
        <time>2009-07-11T09:40:54Z</time>
      </trkpt>
      <trkpt lat="44.63476" lon="3.89494">
        <ele>981</ele>
        <time>2009-07-11T09:41:04Z</time>
      </trkpt>
      <trkpt lat="44.63479" lon="3.89481">
        <ele>982</ele>
        <time>2009-07-11T09:41:08Z</time>
      </trkpt>
      <trkpt lat="44.63481" lon="3.89473">
        <ele>982</ele>
        <time>2009-07-11T09:41:10Z</time>
      </trkpt>
      <trkpt lat="44.6348" lon="3.89455">
        <ele>981</ele>
        <time>2009-07-11T09:41:13Z</time>
      </trkpt>
      <trkpt lat="44.6349" lon="3.89422">
        <ele>981</ele>
        <time>2009-07-11T09:41:19Z</time>
      </trkpt>
      <trkpt lat="44.63516" lon="3.89417">
        <ele>982</ele>
        <time>2009-07-11T09:41:32Z</time>
      </trkpt>
      <trkpt lat="44.63532" lon="3.89413">
        <ele>983</ele>
        <time>2009-07-11T09:41:43Z</time>
      </trkpt>
      <trkpt lat="44.63514" lon="3.89418">
        <ele>983</ele>
        <time>2009-07-11T09:41:54Z</time>
      </trkpt>
      <trkpt lat="44.63508" lon="3.89417">
        <ele>983</ele>
        <time>2009-07-11T09:41:56Z</time>
      </trkpt>
      <trkpt lat="44.63505" lon="3.89421">
        <ele>982</ele>
        <time>2009-07-11T09:41:59Z</time>
      </trkpt>
      <trkpt lat="44.63517" lon="3.89423">
        <ele>980</ele>
        <time>2009-07-11T09:42:03Z</time>
      </trkpt>
      <trkpt lat="44.63528" lon="3.89423">
        <ele>980</ele>
        <time>2009-07-11T09:42:06Z</time>
      </trkpt>
      <trkpt lat="44.63537" lon="3.89434">
        <ele>979</ele>
        <time>2009-07-11T09:42:09Z</time>
      </trkpt>
      <trkpt lat="44.63542" lon="3.89446">
        <ele>977</ele>
        <time>2009-07-11T09:42:11Z</time>
      </trkpt>
      <trkpt lat="44.63553" lon="3.89477">
        <ele>976</ele>
        <time>2009-07-11T09:42:19Z</time>
      </trkpt>
      <trkpt lat="44.63634" lon="3.89472">
        <ele>976</ele>
        <time>2009-07-11T09:42:36Z</time>
      </trkpt>
      <trkpt lat="44.63646" lon="3.89471">
        <ele>976</ele>
        <time>2009-07-11T09:42:39Z</time>
      </trkpt>
      <trkpt lat="44.63702" lon="3.89469">
        <ele>976</ele>
        <time>2009-07-11T09:42:52Z</time>
      </trkpt>
      <trkpt lat="44.63722" lon="3.89463">
        <ele>977</ele>
        <time>2009-07-11T09:42:57Z</time>
      </trkpt>
      <trkpt lat="44.63742" lon="3.89467">
        <ele>976</ele>
        <time>2009-07-11T09:43:02Z</time>
      </trkpt>
      <trkpt lat="44.63826" lon="3.89459">
        <ele>974</ele>
        <time>2009-07-11T09:43:20Z</time>
      </trkpt>
      <trkpt lat="44.63864" lon="3.89451">
        <ele>975</ele>
        <time>2009-07-11T09:43:28Z</time>
      </trkpt>
      <trkpt lat="44.63885" lon="3.89445">
        <ele>974</ele>
        <time>2009-07-11T09:43:37Z</time>
      </trkpt>
      <trkpt lat="44.63885" lon="3.89446">
        <ele>974</ele>
        <time>2009-07-11T09:43:39Z</time>
      </trkpt>
      <trkpt lat="44.63892" lon="3.89447">
        <ele>974</ele>
        <time>2009-07-11T09:43:48Z</time>
      </trkpt>
      <trkpt lat="44.63898" lon="3.89444">
        <ele>974</ele>
        <time>2009-07-11T09:44:08Z</time>
      </trkpt>
      <trkpt lat="44.63901" lon="3.89444">
        <ele>974</ele>
        <time>2009-07-11T09:44:22Z</time>
      </trkpt>
      <trkpt lat="44.63902" lon="3.89446">
        <ele>974</ele>
        <time>2009-07-11T09:44:24Z</time>
      </trkpt>
      <trkpt lat="44.63909" lon="3.8946">
        <ele>974</ele>
        <time>2009-07-11T09:44:40Z</time>
      </trkpt>
      <trkpt lat="44.63907" lon="3.89462">
        <ele>973</ele>
        <time>2009-07-11T09:45:18Z</time>
      </trkpt>
      <trkpt lat="44.6391" lon="3.89464">
        <ele>974</ele>
        <time>2009-07-11T09:46:01Z</time>
      </trkpt>
      <trkpt lat="44.6391" lon="3.89464">
        <ele>974</ele>
        <time>2009-07-11T09:46:05Z</time>
      </trkpt>
      <trkpt lat="44.63938" lon="3.89471">
        <ele>974</ele>
        <time>2009-07-11T09:46:21Z</time>
      </trkpt>
      <trkpt lat="44.63985" lon="3.89446">
        <ele>973</ele>
        <time>2009-07-11T09:46:35Z</time>
      </trkpt>
      <trkpt lat="44.64047" lon="3.89419">
        <ele>973</ele>
        <time>2009-07-11T09:46:51Z</time>
      </trkpt>
      <trkpt lat="44.6406" lon="3.89418">
        <ele>974</ele>
        <time>2009-07-11T09:46:55Z</time>
      </trkpt>
      <trkpt lat="44.64101" lon="3.89434">
        <ele>973</ele>
        <time>2009-07-11T09:47:10Z</time>
      </trkpt>
      <trkpt lat="44.64112" lon="3.8944">
        <ele>973</ele>
        <time>2009-07-11T09:47:13Z</time>
      </trkpt>
      <trkpt lat="44.64128" lon="3.8945">
        <ele>973</ele>
        <time>2009-07-11T09:47:17Z</time>
      </trkpt>
      <trkpt lat="44.64166" lon="3.89468">
        <ele>971</ele>
        <time>2009-07-11T09:47:29Z</time>
      </trkpt>
      <trkpt lat="44.642" lon="3.89504">
        <ele>971</ele>
        <time>2009-07-11T09:47:45Z</time>
      </trkpt>
      <trkpt lat="44.64214" lon="3.89522">
        <ele>971</ele>
        <time>2009-07-11T09:47:57Z</time>
      </trkpt>
      <trkpt lat="44.64231" lon="3.89549">
        <ele>970</ele>
        <time>2009-07-11T09:48:12Z</time>
      </trkpt>
      <trkpt lat="44.6424" lon="3.89584">
        <ele>971</ele>
        <time>2009-07-11T09:48:25Z</time>
      </trkpt>
      <trkpt lat="44.64236" lon="3.8961">
        <ele>972</ele>
        <time>2009-07-11T09:48:38Z</time>
      </trkpt>
      <trkpt lat="44.64236" lon="3.89615">
        <ele>973</ele>
        <time>2009-07-11T09:48:40Z</time>
      </trkpt>
      <trkpt lat="44.64253" lon="3.89665">
        <ele>974</ele>
        <time>2009-07-11T09:48:55Z</time>
      </trkpt>
      <trkpt lat="44.64281" lon="3.89698">
        <ele>976</ele>
        <time>2009-07-11T09:49:09Z</time>
      </trkpt>
      <trkpt lat="44.64315" lon="3.89746">
        <ele>980</ele>
        <time>2009-07-11T09:49:27Z</time>
      </trkpt>
      <trkpt lat="44.6434" lon="3.89801">
        <ele>982</ele>
        <time>2009-07-11T09:49:43Z</time>
      </trkpt>
      <trkpt lat="44.64364" lon="3.89858">
        <ele>984</ele>
        <time>2009-07-11T09:50:00Z</time>
      </trkpt>
      <trkpt lat="44.64391" lon="3.89905">
        <ele>985</ele>
        <time>2009-07-11T09:50:15Z</time>
      </trkpt>
      <trkpt lat="44.64447" lon="3.89931">
        <ele>986</ele>
        <time>2009-07-11T09:50:35Z</time>
      </trkpt>
      <trkpt lat="44.64473" lon="3.89943">
        <ele>989</ele>
        <time>2009-07-11T09:50:44Z</time>
      </trkpt>
      <trkpt lat="44.64476" lon="3.89944">
        <ele>989</ele>
        <time>2009-07-11T09:50:45Z</time>
      </trkpt>
      <trkpt lat="44.64525" lon="3.89976">
        <ele>991</ele>
        <time>2009-07-11T09:51:04Z</time>
      </trkpt>
      <trkpt lat="44.64551" lon="3.89995">
        <ele>993</ele>
        <time>2009-07-11T09:51:20Z</time>
      </trkpt>
      <trkpt lat="44.64551" lon="3.89995">
        <ele>993</ele>
        <time>2009-07-11T09:52:02Z</time>
      </trkpt>
      <trkpt lat="44.64552" lon="3.89994">
        <ele>993</ele>
        <time>2009-07-11T09:52:46Z</time>
      </trkpt>
      <trkpt lat="44.64585" lon="3.90001">
        <ele>991</ele>
        <time>2009-07-11T09:53:00Z</time>
      </trkpt>
      <trkpt lat="44.64623" lon="3.89973">
        <ele>990</ele>
        <time>2009-07-11T09:53:12Z</time>
      </trkpt>
      <trkpt lat="44.64628" lon="3.8997">
        <ele>990</ele>
        <time>2009-07-11T09:53:13Z</time>
      </trkpt>
      <trkpt lat="44.64655" lon="3.89973">
        <ele>987</ele>
        <time>2009-07-11T09:53:18Z</time>
      </trkpt>
      <trkpt lat="44.64667" lon="3.89982">
        <ele>984</ele>
        <time>2009-07-11T09:53:20Z</time>
      </trkpt>
      <trkpt lat="44.64679" lon="3.89994">
        <ele>983</ele>
        <time>2009-07-11T09:53:22Z</time>
      </trkpt>
      <trkpt lat="44.64702" lon="3.90038">
        <ele>983</ele>
        <time>2009-07-11T09:53:31Z</time>
      </trkpt>
      <trkpt lat="44.64701" lon="3.90039">
        <ele>983</ele>
        <time>2009-07-11T09:53:43Z</time>
      </trkpt>
      <trkpt lat="44.64721" lon="3.90036">
        <ele>981</ele>
        <time>2009-07-11T09:53:49Z</time>
      </trkpt>
      <trkpt lat="44.6474" lon="3.90052">
        <ele>979</ele>
        <time>2009-07-11T09:53:53Z</time>
      </trkpt>
      <trkpt lat="44.64771" lon="3.90105">
        <ele>975</ele>
        <time>2009-07-11T09:54:00Z</time>
      </trkpt>
      <trkpt lat="44.64818" lon="3.90184">
        <ele>972</ele>
        <time>2009-07-11T09:54:10Z</time>
      </trkpt>
      <trkpt lat="44.6481" lon="3.90208">
        <ele>973</ele>
        <time>2009-07-11T09:54:14Z</time>
      </trkpt>
      <trkpt lat="44.64778" lon="3.90259">
        <ele>974</ele>
        <time>2009-07-11T09:54:26Z</time>
      </trkpt>
      <trkpt lat="44.64784" lon="3.90276">
        <ele>976</ele>
        <time>2009-07-11T09:54:30Z</time>
      </trkpt>
      <trkpt lat="44.64821" lon="3.90346">
        <ele>976</ele>
        <time>2009-07-11T09:54:48Z</time>
      </trkpt>
      <trkpt lat="44.64828" lon="3.90355">
        <ele>979</ele>
        <time>2009-07-11T09:54:52Z</time>
      </trkpt>
      <trkpt lat="44.64849" lon="3.90379">
        <ele>979</ele>
        <time>2009-07-11T09:55:02Z</time>
      </trkpt>
      <trkpt lat="44.64892" lon="3.90368">
        <ele>982</ele>
        <time>2009-07-11T09:55:16Z</time>
      </trkpt>
      <trkpt lat="44.64928" lon="3.90319">
        <ele>982</ele>
        <time>2009-07-11T09:55:32Z</time>
      </trkpt>
      <trkpt lat="44.64943" lon="3.90322">
        <ele>984</ele>
        <time>2009-07-11T09:55:40Z</time>
      </trkpt>
      <trkpt lat="44.64945" lon="3.90326">
        <ele>985</ele>
        <time>2009-07-11T09:55:42Z</time>
      </trkpt>
      <trkpt lat="44.64953" lon="3.90346">
        <ele>986</ele>
        <time>2009-07-11T09:55:54Z</time>
      </trkpt>
      <trkpt lat="44.64965" lon="3.90382">
        <ele>986</ele>
        <time>2009-07-11T09:56:09Z</time>
      </trkpt>
      <trkpt lat="44.64986" lon="3.90421">
        <ele>988</ele>
        <time>2009-07-11T09:56:25Z</time>
      </trkpt>
      <trkpt lat="44.65012" lon="3.90446">
        <ele>991</ele>
        <time>2009-07-11T09:56:41Z</time>
      </trkpt>
      <trkpt lat="44.65032" lon="3.90456">
        <ele>994</ele>
        <time>2009-07-11T09:56:55Z</time>
      </trkpt>
      <trkpt lat="44.65036" lon="3.90459">
        <ele>996</ele>
        <time>2009-07-11T09:56:58Z</time>
      </trkpt>
      <trkpt lat="44.65049" lon="3.90461">
        <ele>999</ele>
        <time>2009-07-11T09:57:07Z</time>
      </trkpt>
      <trkpt lat="44.65077" lon="3.90452">
        <ele>1001</ele>
        <time>2009-07-11T09:57:25Z</time>
      </trkpt>
      <trkpt lat="44.65083" lon="3.9045">
        <ele>1001</ele>
        <time>2009-07-11T09:57:29Z</time>
      </trkpt>
      <trkpt lat="44.65082" lon="3.90442">
        <ele>1001</ele>
        <time>2009-07-11T09:57:41Z</time>
      </trkpt>
      <trkpt lat="44.65074" lon="3.90437">
        <ele>1003</ele>
        <time>2009-07-11T09:57:47Z</time>
      </trkpt>
      <trkpt lat="44.65064" lon="3.90414">
        <ele>1005</ele>
        <time>2009-07-11T09:58:01Z</time>
      </trkpt>
      <trkpt lat="44.65064" lon="3.90414">
        <ele>1004</ele>
        <time>2009-07-11T09:58:08Z</time>
      </trkpt>
      <trkpt lat="44.65079" lon="3.90437">
        <ele>1003</ele>
        <time>2009-07-11T09:58:20Z</time>
      </trkpt>
      <trkpt lat="44.65086" lon="3.90446">
        <ele>1001</ele>
        <time>2009-07-11T09:58:23Z</time>
      </trkpt>
      <trkpt lat="44.65098" lon="3.90472">
        <ele>1002</ele>
        <time>2009-07-11T09:58:35Z</time>
      </trkpt>
      <trkpt lat="44.65098" lon="3.90475">
        <ele>1002</ele>
        <time>2009-07-11T09:58:47Z</time>
      </trkpt>
      <trkpt lat="44.65086" lon="3.90449">
        <ele>1001</ele>
        <time>2009-07-11T09:59:02Z</time>
      </trkpt>
      <trkpt lat="44.65072" lon="3.90433">
        <ele>1005</ele>
        <time>2009-07-11T09:59:11Z</time>
      </trkpt>
      <trkpt lat="44.65062" lon="3.90403">
        <ele>1006</ele>
        <time>2009-07-11T09:59:26Z</time>
      </trkpt>
      <trkpt lat="44.65064" lon="3.904">
        <ele>1006</ele>
        <time>2009-07-11T10:00:10Z</time>
      </trkpt>
      <trkpt lat="44.65064" lon="3.904">
        <ele>1006</ele>
        <time>2009-07-11T10:00:32Z</time>
      </trkpt>
      <trkpt lat="44.65065" lon="3.90406">
        <ele>1007</ele>
        <time>2009-07-11T10:00:49Z</time>
      </trkpt>
      <trkpt lat="44.65073" lon="3.90431">
        <ele>1006</ele>
        <time>2009-07-11T10:01:00Z</time>
      </trkpt>
      <trkpt lat="44.65079" lon="3.90441">
        <ele>1004</ele>
        <time>2009-07-11T10:01:03Z</time>
      </trkpt>
      <trkpt lat="44.65066" lon="3.90458">
        <ele>1000</ele>
        <time>2009-07-11T10:01:09Z</time>
      </trkpt>
      <trkpt lat="44.65039" lon="3.90458">
        <ele>996</ele>
        <time>2009-07-11T10:01:15Z</time>
      </trkpt>
      <trkpt lat="44.65034" lon="3.90456">
        <ele>995</ele>
        <time>2009-07-11T10:01:16Z</time>
      </trkpt>
      <trkpt lat="44.65017" lon="3.90446">
        <ele>991</ele>
        <time>2009-07-11T10:01:19Z</time>
      </trkpt>
      <trkpt lat="44.64998" lon="3.90431">
        <ele>990</ele>
        <time>2009-07-11T10:01:22Z</time>
      </trkpt>
      <trkpt lat="44.64979" lon="3.90402">
        <ele>986</ele>
        <time>2009-07-11T10:01:26Z</time>
      </trkpt>
      <trkpt lat="44.64958" lon="3.90367">
        <ele>987</ele>
        <time>2009-07-11T10:01:34Z</time>
      </trkpt>
      <trkpt lat="44.64949" lon="3.90343">
        <ele>987</ele>
        <time>2009-07-11T10:01:43Z</time>
      </trkpt>
      <trkpt lat="44.64955" lon="3.90343">
        <ele>987</ele>
        <time>2009-07-11T10:01:48Z</time>
      </trkpt>
      <trkpt lat="44.6497" lon="3.90358">
        <ele>991</ele>
        <time>2009-07-11T10:02:00Z</time>
      </trkpt>
      <trkpt lat="44.64973" lon="3.90359">
        <ele>992</ele>
        <time>2009-07-11T10:02:02Z</time>
      </trkpt>
      <trkpt lat="44.64988" lon="3.90345">
        <ele>996</ele>
        <time>2009-07-11T10:02:15Z</time>
      </trkpt>
      <trkpt lat="44.65005" lon="3.90327">
        <ele>999</ele>
        <time>2009-07-11T10:02:30Z</time>
      </trkpt>
      <trkpt lat="44.65022" lon="3.90312">
        <ele>1002</ele>
        <time>2009-07-11T10:02:45Z</time>
      </trkpt>
      <trkpt lat="44.65029" lon="3.90292">
        <ele>1005</ele>
        <time>2009-07-11T10:02:56Z</time>
      </trkpt>
      <trkpt lat="44.6503" lon="3.90289">
        <ele>1006</ele>
        <time>2009-07-11T10:02:58Z</time>
      </trkpt>
      <trkpt lat="44.65034" lon="3.90276">
        <ele>1008</ele>
        <time>2009-07-11T10:03:06Z</time>
      </trkpt>
      <trkpt lat="44.65042" lon="3.90259">
        <ele>1010</ele>
        <time>2009-07-11T10:03:17Z</time>
      </trkpt>
      <trkpt lat="44.65046" lon="3.90253">
        <ele>1011</ele>
        <time>2009-07-11T10:03:29Z</time>
      </trkpt>
      <trkpt lat="44.65051" lon="3.90245">
        <ele>1013</ele>
        <time>2009-07-11T10:03:46Z</time>
      </trkpt>
      <trkpt lat="44.65057" lon="3.90237">
        <ele>1015</ele>
        <time>2009-07-11T10:03:53Z</time>
      </trkpt>
      <trkpt lat="44.65074" lon="3.90226">
        <ele>1018</ele>
        <time>2009-07-11T10:04:07Z</time>
      </trkpt>
      <trkpt lat="44.65084" lon="3.90226">
        <ele>1020</ele>
        <time>2009-07-11T10:04:22Z</time>
      </trkpt>
      <trkpt lat="44.65092" lon="3.9022">
        <ele>1023</ele>
        <time>2009-07-11T10:04:36Z</time>
      </trkpt>
      <trkpt lat="44.65106" lon="3.90211">
        <ele>1025</ele>
        <time>2009-07-11T10:04:53Z</time>
      </trkpt>
      <trkpt lat="44.65129" lon="3.902">
        <ele>1028</ele>
        <time>2009-07-11T10:05:07Z</time>
      </trkpt>
      <trkpt lat="44.65132" lon="3.90199">
        <ele>1029</ele>
        <time>2009-07-11T10:05:09Z</time>
      </trkpt>
      <trkpt lat="44.65158" lon="3.90187">
        <ele>1031</ele>
        <time>2009-07-11T10:05:24Z</time>
      </trkpt>
      <trkpt lat="44.65189" lon="3.90171">
        <ele>1033</ele>
        <time>2009-07-11T10:05:41Z</time>
      </trkpt>
      <trkpt lat="44.65215" lon="3.90162">
        <ele>1036</ele>
        <time>2009-07-11T10:05:55Z</time>
      </trkpt>
      <trkpt lat="44.65239" lon="3.90158">
        <ele>1037</ele>
        <time>2009-07-11T10:06:07Z</time>
      </trkpt>
      <trkpt lat="44.65257" lon="3.90168">
        <ele>1038</ele>
        <time>2009-07-11T10:06:18Z</time>
      </trkpt>
      <trkpt lat="44.65269" lon="3.90176">
        <ele>1041</ele>
        <time>2009-07-11T10:06:26Z</time>
      </trkpt>
      <trkpt lat="44.65279" lon="3.90178">
        <ele>1042</ele>
        <time>2009-07-11T10:06:33Z</time>
      </trkpt>
      <trkpt lat="44.65288" lon="3.90178">
        <ele>1043</ele>
        <time>2009-07-11T10:06:40Z</time>
      </trkpt>
      <trkpt lat="44.653" lon="3.90181">
        <ele>1047</ele>
        <time>2009-07-11T10:06:49Z</time>
      </trkpt>
      <trkpt lat="44.65313" lon="3.90188">
        <ele>1050</ele>
        <time>2009-07-11T10:06:59Z</time>
      </trkpt>
      <trkpt lat="44.65326" lon="3.90192">
        <ele>1054</ele>
        <time>2009-07-11T10:07:09Z</time>
      </trkpt>
      <trkpt lat="44.65328" lon="3.90193">
        <ele>1054</ele>
        <time>2009-07-11T10:07:10Z</time>
      </trkpt>
      <trkpt lat="44.65359" lon="3.9019">
        <ele>1056</ele>
        <time>2009-07-11T10:07:32Z</time>
      </trkpt>
      <trkpt lat="44.65381" lon="3.90181">
        <ele>1058</ele>
        <time>2009-07-11T10:07:47Z</time>
      </trkpt>
      <trkpt lat="44.65385" lon="3.90182">
        <ele>1059</ele>
        <time>2009-07-11T10:07:50Z</time>
      </trkpt>
      <trkpt lat="44.65397" lon="3.90192">
        <ele>1062</ele>
        <time>2009-07-11T10:08:00Z</time>
      </trkpt>
      <trkpt lat="44.65408" lon="3.90199">
        <ele>1064</ele>
        <time>2009-07-11T10:08:08Z</time>
      </trkpt>
      <trkpt lat="44.65421" lon="3.902">
        <ele>1065</ele>
        <time>2009-07-11T10:08:17Z</time>
      </trkpt>
      <trkpt lat="44.65436" lon="3.90205">
        <ele>1068</ele>
        <time>2009-07-11T10:08:28Z</time>
      </trkpt>
      <trkpt lat="44.65447" lon="3.90209">
        <ele>1072</ele>
        <time>2009-07-11T10:08:35Z</time>
      </trkpt>
      <trkpt lat="44.65448" lon="3.9021">
        <ele>1072</ele>
        <time>2009-07-11T10:08:36Z</time>
      </trkpt>
      <trkpt lat="44.65476" lon="3.9022">
        <ele>1075</ele>
        <time>2009-07-11T10:08:54Z</time>
      </trkpt>
      <trkpt lat="44.65502" lon="3.9022">
        <ele>1075</ele>
        <time>2009-07-11T10:09:08Z</time>
      </trkpt>
      <trkpt lat="44.6553" lon="3.90216">
        <ele>1078</ele>
        <time>2009-07-11T10:09:22Z</time>
      </trkpt>
      <trkpt lat="44.65575" lon="3.90223">
        <ele>1079</ele>
        <time>2009-07-11T10:09:38Z</time>
      </trkpt>
      <trkpt lat="44.65588" lon="3.90222">
        <ele>1082</ele>
        <time>2009-07-11T10:09:43Z</time>
      </trkpt>
      <trkpt lat="44.65627" lon="3.9024">
        <ele>1085</ele>
        <time>2009-07-11T10:09:58Z</time>
      </trkpt>
      <trkpt lat="44.65667" lon="3.90256">
        <ele>1084</ele>
        <time>2009-07-11T10:10:14Z</time>
      </trkpt>
      <trkpt lat="44.65674" lon="3.90263">
        <ele>1084</ele>
        <time>2009-07-11T10:10:25Z</time>
      </trkpt>
      <trkpt lat="44.65674" lon="3.90263">
        <ele>1087</ele>
        <time>2009-07-11T10:10:36Z</time>
      </trkpt>
      <trkpt lat="44.65674" lon="3.90263">
        <ele>1085</ele>
        <time>2009-07-11T10:10:37Z</time>
      </trkpt>
      <trkpt lat="44.65673" lon="3.90263">
        <ele>1083</ele>
        <time>2009-07-11T10:10:40Z</time>
      </trkpt>
      <trkpt lat="44.65673" lon="3.90263">
        <ele>1086</ele>
        <time>2009-07-11T10:10:41Z</time>
      </trkpt>
      <trkpt lat="44.65673" lon="3.90263">
        <ele>1083</ele>
        <time>2009-07-11T10:11:35Z</time>
      </trkpt>
      <trkpt lat="44.65673" lon="3.90263">
        <ele>1087</ele>
        <time>2009-07-11T10:12:14Z</time>
      </trkpt>
      <trkpt lat="44.65673" lon="3.90263">
        <ele>1083</ele>
        <time>2009-07-11T10:12:27Z</time>
      </trkpt>
      <trkpt lat="44.65673" lon="3.90263">
        <ele>1084</ele>
        <time>2009-07-11T10:12:33Z</time>
      </trkpt>
      <trkpt lat="44.65673" lon="3.90263">
        <ele>1085</ele>
        <time>2009-07-11T10:14:31Z</time>
      </trkpt>
      <trkpt lat="44.65673" lon="3.90263">
        <ele>1084</ele>
        <time>2009-07-11T10:14:33Z</time>
      </trkpt>
      <trkpt lat="44.65673" lon="3.90263">
        <ele>1085</ele>
        <time>2009-07-11T10:14:42Z</time>
      </trkpt>
      <trkpt lat="44.65673" lon="3.90263">
        <ele>1083</ele>
        <time>2009-07-11T10:14:45Z</time>
      </trkpt>
      <trkpt lat="44.65673" lon="3.90263">
        <ele>1084</ele>
        <time>2009-07-11T10:14:50Z</time>
      </trkpt>
      <trkpt lat="44.65674" lon="3.90262">
        <ele>1084</ele>
        <time>2009-07-11T10:16:07Z</time>
      </trkpt>
      <trkpt lat="44.65684" lon="3.90263">
        <ele>1084</ele>
        <time>2009-07-11T10:16:13Z</time>
      </trkpt>
      <trkpt lat="44.65697" lon="3.90273">
        <ele>1084</ele>
        <time>2009-07-11T10:16:18Z</time>
      </trkpt>
      <trkpt lat="44.65737" lon="3.90316">
        <ele>1086</ele>
        <time>2009-07-11T10:16:35Z</time>
      </trkpt>
      <trkpt lat="44.65772" lon="3.90359">
        <ele>1086</ele>
        <time>2009-07-11T10:16:52Z</time>
      </trkpt>
      <trkpt lat="44.65813" lon="3.9038">
        <ele>1087</ele>
        <time>2009-07-11T10:17:07Z</time>
      </trkpt>
      <trkpt lat="44.6586" lon="3.9039">
        <ele>1089</ele>
        <time>2009-07-11T10:17:23Z</time>
      </trkpt>
      <trkpt lat="44.65895" lon="3.90399">
        <ele>1089</ele>
        <time>2009-07-11T10:17:35Z</time>
      </trkpt>
      <trkpt lat="44.65933" lon="3.90392">
        <ele>1091</ele>
        <time>2009-07-11T10:17:48Z</time>
      </trkpt>
      <trkpt lat="44.65965" lon="3.90363">
        <ele>1094</ele>
        <time>2009-07-11T10:18:02Z</time>
      </trkpt>
      <trkpt lat="44.65984" lon="3.90346">
        <ele>1095</ele>
        <time>2009-07-11T10:18:12Z</time>
      </trkpt>
      <trkpt lat="44.6599" lon="3.90345">
        <ele>1096</ele>
        <time>2009-07-11T10:18:15Z</time>
      </trkpt>
      <trkpt lat="44.66011" lon="3.90337">
        <ele>1099</ele>
        <time>2009-07-11T10:18:26Z</time>
      </trkpt>
      <trkpt lat="44.66031" lon="3.90333">
        <ele>1101</ele>
        <time>2009-07-11T10:18:42Z</time>
      </trkpt>
      <trkpt lat="44.66032" lon="3.90335">
        <ele>1100</ele>
        <time>2009-07-11T10:19:07Z</time>
      </trkpt>
      <trkpt lat="44.66032" lon="3.90334">
        <ele>1100</ele>
        <time>2009-07-11T10:19:08Z</time>
      </trkpt>
      <trkpt lat="44.66059" lon="3.90309">
        <ele>1097</ele>
        <time>2009-07-11T10:19:19Z</time>
      </trkpt>
      <trkpt lat="44.66084" lon="3.90287">
        <ele>1096</ele>
        <time>2009-07-11T10:19:26Z</time>
      </trkpt>
      <trkpt lat="44.66107" lon="3.90262">
        <ele>1095</ele>
        <time>2009-07-11T10:19:33Z</time>
      </trkpt>
      <trkpt lat="44.6612" lon="3.90254">
        <ele>1096</ele>
        <time>2009-07-11T10:19:36Z</time>
      </trkpt>
      <trkpt lat="44.66139" lon="3.90249">
        <ele>1094</ele>
        <time>2009-07-11T10:19:40Z</time>
      </trkpt>
      <trkpt lat="44.66151" lon="3.90249">
        <ele>1093</ele>
        <time>2009-07-11T10:19:42Z</time>
      </trkpt>
      <trkpt lat="44.66162" lon="3.90249">
        <ele>1092</ele>
        <time>2009-07-11T10:19:44Z</time>
      </trkpt>
      <trkpt lat="44.66174" lon="3.90248">
        <ele>1091</ele>
        <time>2009-07-11T10:19:46Z</time>
      </trkpt>
      <trkpt lat="44.66186" lon="3.90243">
        <ele>1091</ele>
        <time>2009-07-11T10:19:48Z</time>
      </trkpt>
      <trkpt lat="44.66229" lon="3.9022">
        <ele>1087</ele>
        <time>2009-07-11T10:19:55Z</time>
      </trkpt>
      <trkpt lat="44.66245" lon="3.90214">
        <ele>1086</ele>
        <time>2009-07-11T10:19:57Z</time>
      </trkpt>
      <trkpt lat="44.66282" lon="3.90213">
        <ele>1081</ele>
        <time>2009-07-11T10:20:01Z</time>
      </trkpt>
      <trkpt lat="44.66299" lon="3.9022">
        <ele>1079</ele>
        <time>2009-07-11T10:20:03Z</time>
      </trkpt>
      <trkpt lat="44.66335" lon="3.90244">
        <ele>1077</ele>
        <time>2009-07-11T10:20:08Z</time>
      </trkpt>
      <trkpt lat="44.66358" lon="3.90259">
        <ele>1071</ele>
        <time>2009-07-11T10:20:11Z</time>
      </trkpt>
      <trkpt lat="44.66367" lon="3.90264">
        <ele>1071</ele>
        <time>2009-07-11T10:20:12Z</time>
      </trkpt>
      <trkpt lat="44.66384" lon="3.90274">
        <ele>1069</ele>
        <time>2009-07-11T10:20:14Z</time>
      </trkpt>
      <trkpt lat="44.66436" lon="3.90293">
        <ele>1068</ele>
        <time>2009-07-11T10:20:20Z</time>
      </trkpt>
      <trkpt lat="44.66476" lon="3.90298">
        <ele>1068</ele>
        <time>2009-07-11T10:20:25Z</time>
      </trkpt>
      <trkpt lat="44.66505" lon="3.90309">
        <ele>1069</ele>
        <time>2009-07-11T10:20:29Z</time>
      </trkpt>
      <trkpt lat="44.66516" lon="3.90319">
        <ele>1068</ele>
        <time>2009-07-11T10:20:31Z</time>
      </trkpt>
      <trkpt lat="44.66543" lon="3.90328">
        <ele>1066</ele>
        <time>2009-07-11T10:20:35Z</time>
      </trkpt>
      <trkpt lat="44.66585" lon="3.90353">
        <ele>1061</ele>
        <time>2009-07-11T10:20:42Z</time>
      </trkpt>
      <trkpt lat="44.66597" lon="3.90362">
        <ele>1059</ele>
        <time>2009-07-11T10:20:44Z</time>
      </trkpt>
      <trkpt lat="44.66612" lon="3.90371">
        <ele>1058</ele>
        <time>2009-07-11T10:20:46Z</time>
      </trkpt>
      <trkpt lat="44.66628" lon="3.90377">
        <ele>1055</ele>
        <time>2009-07-11T10:20:48Z</time>
      </trkpt>
      <trkpt lat="44.66637" lon="3.9038">
        <ele>1055</ele>
        <time>2009-07-11T10:20:49Z</time>
      </trkpt>
      <trkpt lat="44.66672" lon="3.90397">
        <ele>1051</ele>
        <time>2009-07-11T10:20:53Z</time>
      </trkpt>
      <trkpt lat="44.6672" lon="3.90417">
        <ele>1047</ele>
        <time>2009-07-11T10:20:58Z</time>
      </trkpt>
      <trkpt lat="44.66752" lon="3.90426">
        <ele>1042</ele>
        <time>2009-07-11T10:21:01Z</time>
      </trkpt>
      <trkpt lat="44.66774" lon="3.90429">
        <ele>1038</ele>
        <time>2009-07-11T10:21:03Z</time>
      </trkpt>
      <trkpt lat="44.66785" lon="3.9043">
        <ele>1040</ele>
        <time>2009-07-11T10:21:04Z</time>
      </trkpt>
      <trkpt lat="44.66849" lon="3.90424">
        <ele>1038</ele>
        <time>2009-07-11T10:21:10Z</time>
      </trkpt>
      <trkpt lat="44.66902" lon="3.90417">
        <ele>1039</ele>
        <time>2009-07-11T10:21:16Z</time>
      </trkpt>
      <trkpt lat="44.6692" lon="3.90422">
        <ele>1041</ele>
        <time>2009-07-11T10:21:19Z</time>
      </trkpt>
      <trkpt lat="44.66926" lon="3.90425">
        <ele>1042</ele>
        <time>2009-07-11T10:21:21Z</time>
      </trkpt>
      <trkpt lat="44.66941" lon="3.90432">
        <ele>1041</ele>
        <time>2009-07-11T10:21:29Z</time>
      </trkpt>
      <trkpt lat="44.66986" lon="3.90438">
        <ele>1043</ele>
        <time>2009-07-11T10:21:44Z</time>
      </trkpt>
      <trkpt lat="44.66989" lon="3.90438">
        <ele>1043</ele>
        <time>2009-07-11T10:21:45Z</time>
      </trkpt>
      <trkpt lat="44.67043" lon="3.90423">
        <ele>1043</ele>
        <time>2009-07-11T10:22:00Z</time>
      </trkpt>
      <trkpt lat="44.67055" lon="3.90418">
        <ele>1042</ele>
        <time>2009-07-11T10:22:03Z</time>
      </trkpt>
      <trkpt lat="44.67102" lon="3.90401">
        <ele>1042</ele>
        <time>2009-07-11T10:22:16Z</time>
      </trkpt>
      <trkpt lat="44.67155" lon="3.90371">
        <ele>1043</ele>
        <time>2009-07-11T10:22:29Z</time>
      </trkpt>
      <trkpt lat="44.67162" lon="3.90366">
        <ele>1042</ele>
        <time>2009-07-11T10:22:31Z</time>
      </trkpt>
      <trkpt lat="44.6719" lon="3.90335">
        <ele>1041</ele>
        <time>2009-07-11T10:22:39Z</time>
      </trkpt>
      <trkpt lat="44.6721" lon="3.90303">
        <ele>1038</ele>
        <time>2009-07-11T10:22:45Z</time>
      </trkpt>
      <trkpt lat="44.67222" lon="3.90285">
        <ele>1035</ele>
        <time>2009-07-11T10:22:48Z</time>
      </trkpt>
      <trkpt lat="44.67226" lon="3.90277">
        <ele>1034</ele>
        <time>2009-07-11T10:22:49Z</time>
      </trkpt>
      <trkpt lat="44.67243" lon="3.90261">
        <ele>1032</ele>
        <time>2009-07-11T10:22:52Z</time>
      </trkpt>
      <trkpt lat="44.67249" lon="3.9026">
        <ele>1031</ele>
        <time>2009-07-11T10:22:53Z</time>
      </trkpt>
      <trkpt lat="44.67312" lon="3.90256">
        <ele>1028</ele>
        <time>2009-07-11T10:23:04Z</time>
      </trkpt>
      <trkpt lat="44.67338" lon="3.90255">
        <ele>1029</ele>
        <time>2009-07-11T10:23:09Z</time>
      </trkpt>
      <trkpt lat="44.67368" lon="3.90257">
        <ele>1028</ele>
        <time>2009-07-11T10:23:15Z</time>
      </trkpt>
      <trkpt lat="44.67395" lon="3.90259">
        <ele>1025</ele>
        <time>2009-07-11T10:23:20Z</time>
      </trkpt>
      <trkpt lat="44.67407" lon="3.90259">
        <ele>1025</ele>
        <time>2009-07-11T10:23:22Z</time>
      </trkpt>
      <trkpt lat="44.67446" lon="3.90248">
        <ele>1021</ele>
        <time>2009-07-11T10:23:28Z</time>
      </trkpt>
      <trkpt lat="44.67467" lon="3.9024">
        <ele>1018</ele>
        <time>2009-07-11T10:23:31Z</time>
      </trkpt>
      <trkpt lat="44.67481" lon="3.90236">
        <ele>1017</ele>
        <time>2009-07-11T10:23:33Z</time>
      </trkpt>
      <trkpt lat="44.67499" lon="3.90231">
        <ele>1012</ele>
        <time>2009-07-11T10:23:36Z</time>
      </trkpt>
      <trkpt lat="44.67511" lon="3.90226">
        <ele>1011</ele>
        <time>2009-07-11T10:23:38Z</time>
      </trkpt>
      <trkpt lat="44.67532" lon="3.90212">
        <ele>1008</ele>
        <time>2009-07-11T10:23:44Z</time>
      </trkpt>
      <trkpt lat="44.67542" lon="3.90209">
        <ele>1005</ele>
        <time>2009-07-11T10:23:46Z</time>
      </trkpt>
      <trkpt lat="44.67554" lon="3.90203">
        <ele>1004</ele>
        <time>2009-07-11T10:23:48Z</time>
      </trkpt>
      <trkpt lat="44.67565" lon="3.90196">
        <ele>1003</ele>
        <time>2009-07-11T10:23:50Z</time>
      </trkpt>
      <trkpt lat="44.67579" lon="3.90171">
        <ele>1001</ele>
        <time>2009-07-11T10:23:54Z</time>
      </trkpt>
      <trkpt lat="44.67593" lon="3.90147">
        <ele>999</ele>
        <time>2009-07-11T10:23:58Z</time>
      </trkpt>
      <trkpt lat="44.67605" lon="3.90143">
        <ele>995</ele>
        <time>2009-07-11T10:24:00Z</time>
      </trkpt>
      <trkpt lat="44.67623" lon="3.90142">
        <ele>994</ele>
        <time>2009-07-11T10:24:03Z</time>
      </trkpt>
      <trkpt lat="44.67629" lon="3.90144">
        <ele>995</ele>
        <time>2009-07-11T10:24:08Z</time>
      </trkpt>
      <trkpt lat="44.67629" lon="3.90144">
        <ele>995</ele>
        <time>2009-07-11T10:24:31Z</time>
      </trkpt>
      <trkpt lat="44.67628" lon="3.90144">
        <ele>994</ele>
        <time>2009-07-11T10:25:44Z</time>
      </trkpt>
      <trkpt lat="44.67629" lon="3.90145">
        <ele>994</ele>
        <time>2009-07-11T10:26:02Z</time>
      </trkpt>
      <trkpt lat="44.67644" lon="3.90146">
        <ele>991</ele>
        <time>2009-07-11T10:26:07Z</time>
      </trkpt>
      <trkpt lat="44.67651" lon="3.9015">
        <ele>989</ele>
        <time>2009-07-11T10:26:09Z</time>
      </trkpt>
      <trkpt lat="44.6766" lon="3.90158">
        <ele>987</ele>
        <time>2009-07-11T10:26:12Z</time>
      </trkpt>
      <trkpt lat="44.67672" lon="3.90154">
        <ele>986</ele>
        <time>2009-07-11T10:26:17Z</time>
      </trkpt>
      <trkpt lat="44.677" lon="3.90155">
        <ele>985</ele>
        <time>2009-07-11T10:26:24Z</time>
      </trkpt>
      <trkpt lat="44.67713" lon="3.90155">
        <ele>985</ele>
        <time>2009-07-11T10:26:27Z</time>
      </trkpt>
      <trkpt lat="44.67761" lon="3.90138">
        <ele>984</ele>
        <time>2009-07-11T10:26:40Z</time>
      </trkpt>
      <trkpt lat="44.67777" lon="3.90129">
        <ele>984</ele>
        <time>2009-07-11T10:26:44Z</time>
      </trkpt>
      <trkpt lat="44.6779" lon="3.90123">
        <ele>983</ele>
        <time>2009-07-11T10:26:47Z</time>
      </trkpt>
      <trkpt lat="44.67812" lon="3.90114">
        <ele>983</ele>
        <time>2009-07-11T10:26:52Z</time>
      </trkpt>
      <trkpt lat="44.67834" lon="3.90117">
        <ele>983</ele>
        <time>2009-07-11T10:26:57Z</time>
      </trkpt>
      <trkpt lat="44.67843" lon="3.90121">
        <ele>982</ele>
        <time>2009-07-11T10:26:59Z</time>
      </trkpt>
      <trkpt lat="44.67853" lon="3.9013">
        <ele>981</ele>
        <time>2009-07-11T10:27:01Z</time>
      </trkpt>
      <trkpt lat="44.67879" lon="3.90144">
        <ele>979</ele>
        <time>2009-07-11T10:27:06Z</time>
      </trkpt>
      <trkpt lat="44.67918" lon="3.90143">
        <ele>983</ele>
        <time>2009-07-11T10:27:18Z</time>
      </trkpt>
      <trkpt lat="44.67945" lon="3.90166">
        <ele>986</ele>
        <time>2009-07-11T10:27:32Z</time>
      </trkpt>
      <trkpt lat="44.67954" lon="3.90152">
        <ele>989</ele>
        <time>2009-07-11T10:27:40Z</time>
      </trkpt>
      <trkpt lat="44.67977" lon="3.90134">
        <ele>993</ele>
        <time>2009-07-11T10:27:54Z</time>
      </trkpt>
      <trkpt lat="44.68013" lon="3.90119">
        <ele>994</ele>
        <time>2009-07-11T10:28:13Z</time>
      </trkpt>
      <trkpt lat="44.68019" lon="3.90116">
        <ele>996</ele>
        <time>2009-07-11T10:28:17Z</time>
      </trkpt>
      <trkpt lat="44.68032" lon="3.90106">
        <ele>997</ele>
        <time>2009-07-11T10:28:25Z</time>
      </trkpt>
      <trkpt lat="44.68039" lon="3.90106">
        <ele>997</ele>
        <time>2009-07-11T10:28:29Z</time>
      </trkpt>
      <trkpt lat="44.6808" lon="3.9012">
        <ele>999</ele>
        <time>2009-07-11T10:28:46Z</time>
      </trkpt>
      <trkpt lat="44.68107" lon="3.90143">
        <ele>1000</ele>
        <time>2009-07-11T10:28:59Z</time>
      </trkpt>
      <trkpt lat="44.68136" lon="3.90122">
        <ele>1002</ele>
        <time>2009-07-11T10:29:12Z</time>
      </trkpt>
      <trkpt lat="44.68166" lon="3.90114">
        <ele>1005</ele>
        <time>2009-07-11T10:29:26Z</time>
      </trkpt>
      <trkpt lat="44.6817" lon="3.90113">
        <ele>1006</ele>
        <time>2009-07-11T10:29:28Z</time>
      </trkpt>
      <trkpt lat="44.68214" lon="3.90109">
        <ele>1009</ele>
        <time>2009-07-11T10:29:50Z</time>
      </trkpt>
      <trkpt lat="44.68217" lon="3.90109">
        <ele>1009</ele>
        <time>2009-07-11T10:29:51Z</time>
      </trkpt>
      <trkpt lat="44.68223" lon="3.9011">
        <ele>1011</ele>
        <time>2009-07-11T10:29:54Z</time>
      </trkpt>
      <trkpt lat="44.68235" lon="3.9011">
        <ele>1012</ele>
        <time>2009-07-11T10:30:00Z</time>
      </trkpt>
      <trkpt lat="44.68264" lon="3.9011">
        <ele>1015</ele>
        <time>2009-07-11T10:30:14Z</time>
      </trkpt>
      <trkpt lat="44.68294" lon="3.90113">
        <ele>1019</ele>
        <time>2009-07-11T10:30:28Z</time>
      </trkpt>
      <trkpt lat="44.68334" lon="3.90122">
        <ele>1020</ele>
        <time>2009-07-11T10:30:45Z</time>
      </trkpt>
      <trkpt lat="44.68371" lon="3.90135">
        <ele>1024</ele>
        <time>2009-07-11T10:31:01Z</time>
      </trkpt>
      <trkpt lat="44.6839" lon="3.90143">
        <ele>1027</ele>
        <time>2009-07-11T10:31:10Z</time>
      </trkpt>
      <trkpt lat="44.68441" lon="3.90164">
        <ele>1028</ele>
        <time>2009-07-11T10:31:30Z</time>
      </trkpt>
      <trkpt lat="44.68469" lon="3.9017">
        <ele>1031</ele>
        <time>2009-07-11T10:31:41Z</time>
      </trkpt>
      <trkpt lat="44.68508" lon="3.90163">
        <ele>1034</ele>
        <time>2009-07-11T10:31:57Z</time>
      </trkpt>
      <trkpt lat="44.68546" lon="3.90152">
        <ele>1038</ele>
        <time>2009-07-11T10:32:11Z</time>
      </trkpt>
      <trkpt lat="44.68601" lon="3.90121">
        <ele>1039</ele>
        <time>2009-07-11T10:32:32Z</time>
      </trkpt>
      <trkpt lat="44.68624" lon="3.90109">
        <ele>1042</ele>
        <time>2009-07-11T10:32:47Z</time>
      </trkpt>
      <trkpt lat="44.68622" lon="3.90109">
        <ele>1041</ele>
        <time>2009-07-11T10:33:09Z</time>
      </trkpt>
      <trkpt lat="44.68621" lon="3.90108">
        <ele>1041</ele>
        <time>2009-07-11T10:34:52Z</time>
      </trkpt>
      <trkpt lat="44.68639" lon="3.90098">
        <ele>1040</ele>
        <time>2009-07-11T10:35:14Z</time>
      </trkpt>
      <trkpt lat="44.68698" lon="3.90075">
        <ele>1036</ele>
        <time>2009-07-11T10:35:26Z</time>
      </trkpt>
      <trkpt lat="44.68703" lon="3.90074">
        <ele>1037</ele>
        <time>2009-07-11T10:35:27Z</time>
      </trkpt>
      <trkpt lat="44.68783" lon="3.90041">
        <ele>1035</ele>
        <time>2009-07-11T10:35:43Z</time>
      </trkpt>
      <trkpt lat="44.6884" lon="3.90031">
        <ele>1030</ele>
        <time>2009-07-11T10:35:55Z</time>
      </trkpt>
      <trkpt lat="44.68861" lon="3.90029">
        <ele>1027</ele>
        <time>2009-07-11T10:35:58Z</time>
      </trkpt>
      <trkpt lat="44.68902" lon="3.90027">
        <ele>1023</ele>
        <time>2009-07-11T10:36:03Z</time>
      </trkpt>
      <trkpt lat="44.68965" lon="3.90016">
        <ele>1020</ele>
        <time>2009-07-11T10:36:10Z</time>
      </trkpt>
      <trkpt lat="44.69024" lon="3.90009">
        <ele>1016</ele>
        <time>2009-07-11T10:36:17Z</time>
      </trkpt>
      <trkpt lat="44.6907" lon="3.90005">
        <ele>1015</ele>
        <time>2009-07-11T10:36:22Z</time>
      </trkpt>
      <trkpt lat="44.69105" lon="3.90001">
        <ele>1013</ele>
        <time>2009-07-11T10:36:26Z</time>
      </trkpt>
      <trkpt lat="44.69139" lon="3.90007">
        <ele>1009</ele>
        <time>2009-07-11T10:36:30Z</time>
      </trkpt>
      <trkpt lat="44.69149" lon="3.90008">
        <ele>1009</ele>
        <time>2009-07-11T10:36:31Z</time>
      </trkpt>
      <trkpt lat="44.69174" lon="3.90013">
        <ele>1006</ele>
        <time>2009-07-11T10:36:34Z</time>
      </trkpt>
      <trkpt lat="44.6919" lon="3.90012">
        <ele>1004</ele>
        <time>2009-07-11T10:36:36Z</time>
      </trkpt>
      <trkpt lat="44.69215" lon="3.90005">
        <ele>1001</ele>
        <time>2009-07-11T10:36:39Z</time>
      </trkpt>
      <trkpt lat="44.69242" lon="3.89991">
        <ele>997</ele>
        <time>2009-07-11T10:36:42Z</time>
      </trkpt>
      <trkpt lat="44.69277" lon="3.8997">
        <ele>994</ele>
        <time>2009-07-11T10:36:46Z</time>
      </trkpt>
      <trkpt lat="44.69311" lon="3.89955">
        <ele>991</ele>
        <time>2009-07-11T10:36:50Z</time>
      </trkpt>
      <trkpt lat="44.69337" lon="3.89941">
        <ele>987</ele>
        <time>2009-07-11T10:36:53Z</time>
      </trkpt>
      <trkpt lat="44.69353" lon="3.8993">
        <ele>983</ele>
        <time>2009-07-11T10:36:55Z</time>
      </trkpt>
      <trkpt lat="44.69362" lon="3.89924">
        <ele>983</ele>
        <time>2009-07-11T10:36:56Z</time>
      </trkpt>
      <trkpt lat="44.6938" lon="3.89912">
        <ele>982</ele>
        <time>2009-07-11T10:36:58Z</time>
      </trkpt>
      <trkpt lat="44.69406" lon="3.89889">
        <ele>978</ele>
        <time>2009-07-11T10:37:01Z</time>
      </trkpt>
      <trkpt lat="44.6944" lon="3.89859">
        <ele>975</ele>
        <time>2009-07-11T10:37:05Z</time>
      </trkpt>
      <trkpt lat="44.69466" lon="3.89842">
        <ele>974</ele>
        <time>2009-07-11T10:37:08Z</time>
      </trkpt>
      <trkpt lat="44.69491" lon="3.89823">
        <ele>970</ele>
        <time>2009-07-11T10:37:11Z</time>
      </trkpt>
      <trkpt lat="44.69512" lon="3.89801">
        <ele>967</ele>
        <time>2009-07-11T10:37:14Z</time>
      </trkpt>
      <trkpt lat="44.69539" lon="3.89758">
        <ele>962</ele>
        <time>2009-07-11T10:37:19Z</time>
      </trkpt>
      <trkpt lat="44.69555" lon="3.89732">
        <ele>960</ele>
        <time>2009-07-11T10:37:22Z</time>
      </trkpt>
      <trkpt lat="44.69566" lon="3.89716">
        <ele>957</ele>
        <time>2009-07-11T10:37:24Z</time>
      </trkpt>
      <trkpt lat="44.69586" lon="3.89694">
        <ele>954</ele>
        <time>2009-07-11T10:37:27Z</time>
      </trkpt>
      <trkpt lat="44.69618" lon="3.89672">
        <ele>952</ele>
        <time>2009-07-11T10:37:31Z</time>
      </trkpt>
      <trkpt lat="44.69657" lon="3.89662">
        <ele>953</ele>
        <time>2009-07-11T10:37:37Z</time>
      </trkpt>
      <trkpt lat="44.6969" lon="3.89673">
        <ele>954</ele>
        <time>2009-07-11T10:37:46Z</time>
      </trkpt>
      <trkpt lat="44.69713" lon="3.89688">
        <ele>954</ele>
        <time>2009-07-11T10:37:52Z</time>
      </trkpt>
      <trkpt lat="44.6973" lon="3.89692">
        <ele>954</ele>
        <time>2009-07-11T10:37:56Z</time>
      </trkpt>
      <trkpt lat="44.69751" lon="3.89696">
        <ele>954</ele>
        <time>2009-07-11T10:38:02Z</time>
      </trkpt>
      <trkpt lat="44.69755" lon="3.89695">
        <ele>954</ele>
        <time>2009-07-11T10:38:05Z</time>
      </trkpt>
      <trkpt lat="44.69765" lon="3.89692">
        <ele>954</ele>
        <time>2009-07-11T10:38:13Z</time>
      </trkpt>
      <trkpt lat="44.69782" lon="3.89663">
        <ele>954</ele>
        <time>2009-07-11T10:38:24Z</time>
      </trkpt>
      <trkpt lat="44.69819" lon="3.89614">
        <ele>954</ele>
        <time>2009-07-11T10:38:39Z</time>
      </trkpt>
      <trkpt lat="44.69866" lon="3.8958">
        <ele>952</ele>
        <time>2009-07-11T10:38:54Z</time>
      </trkpt>
      <trkpt lat="44.69892" lon="3.89568">
        <ele>951</ele>
        <time>2009-07-11T10:39:02Z</time>
      </trkpt>
      <trkpt lat="44.69921" lon="3.89559">
        <ele>953</ele>
        <time>2009-07-11T10:39:09Z</time>
      </trkpt>
      <trkpt lat="44.69978" lon="3.89554">
        <ele>954</ele>
        <time>2009-07-11T10:39:25Z</time>
      </trkpt>
      <trkpt lat="44.70021" lon="3.89557">
        <ele>956</ele>
        <time>2009-07-11T10:39:38Z</time>
      </trkpt>
      <trkpt lat="44.70078" lon="3.8957">
        <ele>956</ele>
        <time>2009-07-11T10:39:55Z</time>
      </trkpt>
      <trkpt lat="44.70102" lon="3.89577">
        <ele>957</ele>
        <time>2009-07-11T10:40:02Z</time>
      </trkpt>
      <trkpt lat="44.70135" lon="3.89581">
        <ele>957</ele>
        <time>2009-07-11T10:40:13Z</time>
      </trkpt>
      <trkpt lat="44.70176" lon="3.89552">
        <ele>956</ele>
        <time>2009-07-11T10:40:27Z</time>
      </trkpt>
      <trkpt lat="44.70195" lon="3.89538">
        <ele>955</ele>
        <time>2009-07-11T10:40:33Z</time>
      </trkpt>
      <trkpt lat="44.70229" lon="3.8953">
        <ele>956</ele>
        <time>2009-07-11T10:40:45Z</time>
      </trkpt>
      <trkpt lat="44.70274" lon="3.8954">
        <ele>959</ele>
        <time>2009-07-11T10:41:03Z</time>
      </trkpt>
      <trkpt lat="44.70278" lon="3.89541">
        <ele>960</ele>
        <time>2009-07-11T10:41:05Z</time>
      </trkpt>
      <trkpt lat="44.70284" lon="3.89549">
        <ele>960</ele>
        <time>2009-07-11T10:41:19Z</time>
      </trkpt>
      <trkpt lat="44.70282" lon="3.89543">
        <ele>960</ele>
        <time>2009-07-11T10:41:37Z</time>
      </trkpt>
      <trkpt lat="44.7028" lon="3.89543">
        <ele>960</ele>
        <time>2009-07-11T10:41:40Z</time>
      </trkpt>
      <trkpt lat="44.70276" lon="3.89536">
        <ele>959</ele>
        <time>2009-07-11T10:41:59Z</time>
      </trkpt>
      <trkpt lat="44.70269" lon="3.89534">
        <ele>959</ele>
        <time>2009-07-11T10:42:13Z</time>
      </trkpt>
      <trkpt lat="44.70261" lon="3.89537">
        <ele>958</ele>
        <time>2009-07-11T10:42:24Z</time>
      </trkpt>
      <trkpt lat="44.70238" lon="3.89537">
        <ele>957</ele>
        <time>2009-07-11T10:42:37Z</time>
      </trkpt>
      <trkpt lat="44.70207" lon="3.89531">
        <ele>955</ele>
        <time>2009-07-11T10:42:49Z</time>
      </trkpt>
      <trkpt lat="44.702" lon="3.89535">
        <ele>956</ele>
        <time>2009-07-11T10:43:01Z</time>
      </trkpt>
      <trkpt lat="44.70182" lon="3.89547">
        <ele>955</ele>
        <time>2009-07-11T10:43:19Z</time>
      </trkpt>
      <trkpt lat="44.70183" lon="3.89546">
        <ele>950</ele>
        <time>2009-07-11T10:43:36Z</time>
      </trkpt>
      <trkpt lat="44.70183" lon="3.89546">
        <ele>954</ele>
        <time>2009-07-11T10:43:37Z</time>
      </trkpt>
      <trkpt lat="44.70183" lon="3.89546">
        <ele>958</ele>
        <time>2009-07-11T10:43:38Z</time>
      </trkpt>
      <trkpt lat="44.70183" lon="3.89545">
        <ele>955</ele>
        <time>2009-07-11T10:43:39Z</time>
      </trkpt>
      <trkpt lat="44.70177" lon="3.8955">
        <ele>954</ele>
        <time>2009-07-11T10:43:55Z</time>
      </trkpt>
      <trkpt lat="44.70162" lon="3.89564">
        <ele>958</ele>
        <time>2009-07-11T10:44:06Z</time>
      </trkpt>
      <trkpt lat="44.70143" lon="3.89576">
        <ele>956</ele>
        <time>2009-07-11T10:44:18Z</time>
      </trkpt>
      <trkpt lat="44.70119" lon="3.89585">
        <ele>956</ele>
        <time>2009-07-11T10:44:28Z</time>
      </trkpt>
      <trkpt lat="44.70083" lon="3.89569">
        <ele>955</ele>
        <time>2009-07-11T10:44:41Z</time>
      </trkpt>
      <trkpt lat="44.70038" lon="3.89557">
        <ele>955</ele>
        <time>2009-07-11T10:44:58Z</time>
      </trkpt>
      <trkpt lat="44.69996" lon="3.89552">
        <ele>953</ele>
        <time>2009-07-11T10:45:13Z</time>
      </trkpt>
      <trkpt lat="44.69943" lon="3.89553">
        <ele>953</ele>
        <time>2009-07-11T10:45:28Z</time>
      </trkpt>
      <trkpt lat="44.69885" lon="3.89568">
        <ele>952</ele>
        <time>2009-07-11T10:45:44Z</time>
      </trkpt>
      <trkpt lat="44.69833" lon="3.89596">
        <ele>952</ele>
        <time>2009-07-11T10:45:59Z</time>
      </trkpt>
      <trkpt lat="44.6979" lon="3.8964">
        <ele>952</ele>
        <time>2009-07-11T10:46:14Z</time>
      </trkpt>
      <trkpt lat="44.69763" lon="3.89688">
        <ele>953</ele>
        <time>2009-07-11T10:46:27Z</time>
      </trkpt>
      <trkpt lat="44.6976" lon="3.89693">
        <ele>952</ele>
        <time>2009-07-11T10:46:29Z</time>
      </trkpt>
      <trkpt lat="44.69738" lon="3.89695">
        <ele>954</ele>
        <time>2009-07-11T10:46:39Z</time>
      </trkpt>
      <trkpt lat="44.69733" lon="3.89693">
        <ele>954</ele>
        <time>2009-07-11T10:46:53Z</time>
      </trkpt>
      <trkpt lat="44.69706" lon="3.89688">
        <ele>954</ele>
        <time>2009-07-11T10:47:04Z</time>
      </trkpt>
      <trkpt lat="44.69702" lon="3.89684">
        <ele>954</ele>
        <time>2009-07-11T10:47:12Z</time>
      </trkpt>
      <trkpt lat="44.69718" lon="3.89689">
        <ele>954</ele>
        <time>2009-07-11T10:47:22Z</time>
      </trkpt>
      <trkpt lat="44.6974" lon="3.8969">
        <ele>953</ele>
        <time>2009-07-11T10:47:31Z</time>
      </trkpt>
      <trkpt lat="44.69741" lon="3.8968">
        <ele>953</ele>
        <time>2009-07-11T10:47:38Z</time>
      </trkpt>
      <trkpt lat="44.69719" lon="3.8964">
        <ele>951</ele>
        <time>2009-07-11T10:47:53Z</time>
      </trkpt>
      <trkpt lat="44.69707" lon="3.89624">
        <ele>951</ele>
        <time>2009-07-11T10:48:04Z</time>
      </trkpt>
      <trkpt lat="44.69697" lon="3.89597">
        <ele>951</ele>
        <time>2009-07-11T10:48:17Z</time>
      </trkpt>
      <trkpt lat="44.69693" lon="3.8959">
        <ele>952</ele>
        <time>2009-07-11T10:48:23Z</time>
      </trkpt>
      <trkpt lat="44.69691" lon="3.89589">
        <ele>950</ele>
        <time>2009-07-11T10:48:25Z</time>
      </trkpt>
      <trkpt lat="44.6969" lon="3.89587">
        <ele>952</ele>
        <time>2009-07-11T10:48:28Z</time>
      </trkpt>
      <trkpt lat="44.69692" lon="3.89586">
        <ele>951</ele>
        <time>2009-07-11T10:48:30Z</time>
      </trkpt>
      <trkpt lat="44.69698" lon="3.89593">
        <ele>951</ele>
        <time>2009-07-11T10:48:34Z</time>
      </trkpt>
      <trkpt lat="44.69716" lon="3.89635">
        <ele>953</ele>
        <time>2009-07-11T10:48:49Z</time>
      </trkpt>
      <trkpt lat="44.69737" lon="3.89668">
        <ele>953</ele>
        <time>2009-07-11T10:49:02Z</time>
      </trkpt>
      <trkpt lat="44.69745" lon="3.89693">
        <ele>954</ele>
        <time>2009-07-11T10:49:11Z</time>
      </trkpt>
      <trkpt lat="44.69756" lon="3.89696">
        <ele>952</ele>
        <time>2009-07-11T10:49:18Z</time>
      </trkpt>
      <trkpt lat="44.69761" lon="3.89695">
        <ele>952</ele>
        <time>2009-07-11T10:49:20Z</time>
      </trkpt>
      <trkpt lat="44.69768" lon="3.89686">
        <ele>953</ele>
        <time>2009-07-11T10:49:24Z</time>
      </trkpt>
      <trkpt lat="44.69789" lon="3.89648">
        <ele>955</ele>
        <time>2009-07-11T10:49:39Z</time>
      </trkpt>
      <trkpt lat="44.69817" lon="3.89615">
        <ele>954</ele>
        <time>2009-07-11T10:49:52Z</time>
      </trkpt>
      <trkpt lat="44.69837" lon="3.89597">
        <ele>953</ele>
        <time>2009-07-11T10:49:58Z</time>
      </trkpt>
      <trkpt lat="44.69889" lon="3.8957">
        <ele>953</ele>
        <time>2009-07-11T10:50:13Z</time>
      </trkpt>
      <trkpt lat="44.69919" lon="3.8956">
        <ele>953</ele>
        <time>2009-07-11T10:50:22Z</time>
      </trkpt>
      <trkpt lat="44.69966" lon="3.89555">
        <ele>955</ele>
        <time>2009-07-11T10:50:37Z</time>
      </trkpt>
      <trkpt lat="44.70013" lon="3.89557">
        <ele>954</ele>
        <time>2009-07-11T10:50:52Z</time>
      </trkpt>
      <trkpt lat="44.70045" lon="3.89561">
        <ele>954</ele>
        <time>2009-07-11T10:51:04Z</time>
      </trkpt>
      <trkpt lat="44.70048" lon="3.89562">
        <ele>954</ele>
        <time>2009-07-11T10:51:30Z</time>
      </trkpt>
      <trkpt lat="44.7004" lon="3.89562">
        <ele>954</ele>
        <time>2009-07-11T10:51:41Z</time>
      </trkpt>
      <trkpt lat="44.7004" lon="3.89562">
        <ele>954</ele>
        <time>2009-07-11T10:51:42Z</time>
      </trkpt>
      <trkpt lat="44.70006" lon="3.89557">
        <ele>954</ele>
        <time>2009-07-11T10:51:55Z</time>
      </trkpt>
      <trkpt lat="44.69966" lon="3.89554">
        <ele>953</ele>
        <time>2009-07-11T10:52:09Z</time>
      </trkpt>
      <trkpt lat="44.69967" lon="3.8955">
        <ele>953</ele>
        <time>2009-07-11T10:52:22Z</time>
      </trkpt>
      <trkpt lat="44.69966" lon="3.89548">
        <ele>952</ele>
        <time>2009-07-11T10:52:36Z</time>
      </trkpt>
      <trkpt lat="44.69958" lon="3.89522">
        <ele>953</ele>
        <time>2009-07-11T10:52:51Z</time>
      </trkpt>
      <trkpt lat="44.69956" lon="3.89519">
        <ele>953</ele>
        <time>2009-07-11T10:53:04Z</time>
      </trkpt>
      <trkpt lat="44.69954" lon="3.89516">
        <ele>951</ele>
        <time>2009-07-11T10:53:16Z</time>
      </trkpt>
      <trkpt lat="44.69952" lon="3.89515">
        <ele>950</ele>
        <time>2009-07-11T10:53:30Z</time>
      </trkpt>
      <trkpt lat="44.6995" lon="3.89511">
        <ele>950</ele>
        <time>2009-07-11T10:53:36Z</time>
      </trkpt>
      <trkpt lat="44.69946" lon="3.89493">
        <ele>950</ele>
        <time>2009-07-11T10:53:48Z</time>
      </trkpt>
      <trkpt lat="44.69952" lon="3.89489">
        <ele>951</ele>
        <time>2009-07-11T10:53:55Z</time>
      </trkpt>
      <trkpt lat="44.69974" lon="3.89484">
        <ele>952</ele>
        <time>2009-07-11T10:54:13Z</time>
      </trkpt>
      <trkpt lat="44.69976" lon="3.89485">
        <ele>951</ele>
        <time>2009-07-11T10:54:34Z</time>
      </trkpt>
      <trkpt lat="44.69982" lon="3.89484">
        <ele>949</ele>
        <time>2009-07-11T10:55:02Z</time>
      </trkpt>
      <trkpt lat="44.6999" lon="3.89483">
        <ele>952</ele>
        <time>2009-07-11T10:55:06Z</time>
      </trkpt>
      <trkpt lat="44.69993" lon="3.89483">
        <ele>952</ele>
        <time>2009-07-11T10:55:07Z</time>
      </trkpt>
      <trkpt lat="44.70038" lon="3.89482">
        <ele>952</ele>
        <time>2009-07-11T10:55:24Z</time>
      </trkpt>
      <trkpt lat="44.70081" lon="3.89467">
        <ele>951</ele>
        <time>2009-07-11T10:55:41Z</time>
      </trkpt>
      <trkpt lat="44.7012" lon="3.89473">
        <ele>953</ele>
        <time>2009-07-11T10:55:56Z</time>
      </trkpt>
      <trkpt lat="44.70169" lon="3.89473">
        <ele>953</ele>
        <time>2009-07-11T10:56:14Z</time>
      </trkpt>
      <trkpt lat="44.7019" lon="3.89465">
        <ele>955</ele>
        <time>2009-07-11T10:56:23Z</time>
      </trkpt>
      <trkpt lat="44.70208" lon="3.89453">
        <ele>956</ele>
        <time>2009-07-11T10:56:32Z</time>
      </trkpt>
      <trkpt lat="44.7024" lon="3.89432">
        <ele>957</ele>
        <time>2009-07-11T10:56:48Z</time>
      </trkpt>
      <trkpt lat="44.70264" lon="3.8942">
        <ele>958</ele>
        <time>2009-07-11T10:56:59Z</time>
      </trkpt>
      <trkpt lat="44.70286" lon="3.89402">
        <ele>958</ele>
        <time>2009-07-11T10:57:14Z</time>
      </trkpt>
      <trkpt lat="44.70286" lon="3.89402">
        <ele>958</ele>
        <time>2009-07-11T10:57:15Z</time>
      </trkpt>
      <trkpt lat="44.70283" lon="3.89388">
        <ele>959</ele>
        <time>2009-07-11T10:57:28Z</time>
      </trkpt>
      <trkpt lat="44.70276" lon="3.89371">
        <ele>958</ele>
        <time>2009-07-11T10:57:35Z</time>
      </trkpt>
      <trkpt lat="44.70255" lon="3.89324">
        <ele>960</ele>
        <time>2009-07-11T10:57:51Z</time>
      </trkpt>
      <trkpt lat="44.70239" lon="3.89307">
        <ele>961</ele>
        <time>2009-07-11T10:58:00Z</time>
      </trkpt>
      <trkpt lat="44.70236" lon="3.89299">
        <ele>960</ele>
        <time>2009-07-11T10:58:04Z</time>
      </trkpt>
      <trkpt lat="44.70212" lon="3.89279">
        <ele>961</ele>
        <time>2009-07-11T10:58:18Z</time>
      </trkpt>
      <trkpt lat="44.70186" lon="3.89271">
        <ele>962</ele>
        <time>2009-07-11T10:58:34Z</time>
      </trkpt>
      <trkpt lat="44.70185" lon="3.89269">
        <ele>962</ele>
        <time>2009-07-11T10:58:49Z</time>
      </trkpt>
      <trkpt lat="44.7017" lon="3.89258">
        <ele>966</ele>
        <time>2009-07-11T10:59:00Z</time>
      </trkpt>
      <trkpt lat="44.70157" lon="3.89244">
        <ele>968</ele>
        <time>2009-07-11T10:59:13Z</time>
      </trkpt>
      <trkpt lat="44.7015" lon="3.89234">
        <ele>969</ele>
        <time>2009-07-11T10:59:27Z</time>
      </trkpt>
      <trkpt lat="44.70145" lon="3.89223">
        <ele>970</ele>
        <time>2009-07-11T10:59:40Z</time>
      </trkpt>
      <trkpt lat="44.7014" lon="3.89211">
        <ele>971</ele>
        <time>2009-07-11T10:59:59Z</time>
      </trkpt>
      <trkpt lat="44.70142" lon="3.89209">
        <ele>971</ele>
        <time>2009-07-11T11:00:02Z</time>
      </trkpt>
      <trkpt lat="44.70149" lon="3.89203">
        <ele>975</ele>
        <time>2009-07-11T11:00:11Z</time>
      </trkpt>
      <trkpt lat="44.7015" lon="3.89202">
        <ele>974</ele>
        <time>2009-07-11T11:00:12Z</time>
      </trkpt>
      <trkpt lat="44.70161" lon="3.89195">
        <ele>978</ele>
        <time>2009-07-11T11:00:25Z</time>
      </trkpt>
      <trkpt lat="44.70165" lon="3.89184">
        <ele>981</ele>
        <time>2009-07-11T11:00:36Z</time>
      </trkpt>
      <trkpt lat="44.70168" lon="3.89178">
        <ele>982</ele>
        <time>2009-07-11T11:00:43Z</time>
      </trkpt>
      <trkpt lat="44.70177" lon="3.89167">
        <ele>984</ele>
        <time>2009-07-11T11:00:57Z</time>
      </trkpt>
      <trkpt lat="44.7019" lon="3.8916">
        <ele>987</ele>
        <time>2009-07-11T11:01:15Z</time>
      </trkpt>
      <trkpt lat="44.70202" lon="3.89162">
        <ele>987</ele>
        <time>2009-07-11T11:02:57Z</time>
      </trkpt>
      <trkpt lat="44.702" lon="3.89165">
        <ele>987</ele>
        <time>2009-07-11T11:03:10Z</time>
      </trkpt>
      <trkpt lat="44.70196" lon="3.89169">
        <ele>987</ele>
        <time>2009-07-11T11:04:48Z</time>
      </trkpt>
      <trkpt lat="44.70208" lon="3.89174">
        <ele>988</ele>
        <time>2009-07-11T11:04:56Z</time>
      </trkpt>
      <trkpt lat="44.70235" lon="3.89186">
        <ele>986</ele>
        <time>2009-07-11T11:05:09Z</time>
      </trkpt>
      <trkpt lat="44.70236" lon="3.89186">
        <ele>986</ele>
        <time>2009-07-11T11:05:21Z</time>
      </trkpt>
      <trkpt lat="44.70248" lon="3.89194">
        <ele>984</ele>
        <time>2009-07-11T11:05:27Z</time>
      </trkpt>
      <trkpt lat="44.70253" lon="3.89196">
        <ele>983</ele>
        <time>2009-07-11T11:05:42Z</time>
      </trkpt>
      <trkpt lat="44.70256" lon="3.89198">
        <ele>986</ele>
        <time>2009-07-11T11:06:53Z</time>
      </trkpt>
      <trkpt lat="44.70254" lon="3.89194">
        <ele>986</ele>
        <time>2009-07-11T11:07:04Z</time>
      </trkpt>
      <trkpt lat="44.70244" lon="3.8919">
        <ele>985</ele>
        <time>2009-07-11T11:07:14Z</time>
      </trkpt>
      <trkpt lat="44.70252" lon="3.89191">
        <ele>984</ele>
        <time>2009-07-11T11:07:59Z</time>
      </trkpt>
      <trkpt lat="44.70246" lon="3.89182">
        <ele>983</ele>
        <time>2009-07-11T11:08:46Z</time>
      </trkpt>
      <trkpt lat="44.70247" lon="3.89177">
        <ele>980</ele>
        <time>2009-07-11T11:09:22Z</time>
      </trkpt>
      <trkpt lat="44.70245" lon="3.89184">
        <ele>981</ele>
        <time>2009-07-11T11:10:19Z</time>
      </trkpt>
      <trkpt lat="44.70244" lon="3.89188">
        <ele>979</ele>
        <time>2009-07-11T11:10:35Z</time>
      </trkpt>
      <trkpt lat="44.70239" lon="3.89192">
        <ele>980</ele>
        <time>2009-07-11T11:11:21Z</time>
      </trkpt>
      <trkpt lat="44.70238" lon="3.8919">
        <ele>981</ele>
        <time>2009-07-11T11:11:27Z</time>
      </trkpt>
      <trkpt lat="44.70231" lon="3.89184">
        <ele>981</ele>
        <time>2009-07-11T11:11:33Z</time>
      </trkpt>
      <trkpt lat="44.7021" lon="3.89162">
        <ele>984</ele>
        <time>2009-07-11T11:11:48Z</time>
      </trkpt>
      <trkpt lat="44.70207" lon="3.89156">
        <ele>985</ele>
        <time>2009-07-11T11:11:51Z</time>
      </trkpt>
      <trkpt lat="44.70208" lon="3.89147">
        <ele>986</ele>
        <time>2009-07-11T11:11:55Z</time>
      </trkpt>
      <trkpt lat="44.70236" lon="3.89136">
        <ele>987</ele>
        <time>2009-07-11T11:12:11Z</time>
      </trkpt>
      <trkpt lat="44.7025" lon="3.89132">
        <ele>989</ele>
        <time>2009-07-11T11:12:21Z</time>
      </trkpt>
      <trkpt lat="44.70263" lon="3.89129">
        <ele>991</ele>
        <time>2009-07-11T11:12:30Z</time>
      </trkpt>
      <trkpt lat="44.70272" lon="3.89129">
        <ele>993</ele>
        <time>2009-07-11T11:12:37Z</time>
      </trkpt>
      <trkpt lat="44.70284" lon="3.89127">
        <ele>994</ele>
        <time>2009-07-11T11:12:46Z</time>
      </trkpt>
      <trkpt lat="44.70298" lon="3.89126">
        <ele>995</ele>
        <time>2009-07-11T11:12:54Z</time>
      </trkpt>
      <trkpt lat="44.70308" lon="3.89127">
        <ele>996</ele>
        <time>2009-07-11T11:13:00Z</time>
      </trkpt>
      <trkpt lat="44.70327" lon="3.89129">
        <ele>999</ele>
        <time>2009-07-11T11:13:11Z</time>
      </trkpt>
      <trkpt lat="44.70342" lon="3.8913">
        <ele>1002</ele>
        <time>2009-07-11T11:13:21Z</time>
      </trkpt>
      <trkpt lat="44.70367" lon="3.89134">
        <ele>1005</ele>
        <time>2009-07-11T11:13:36Z</time>
      </trkpt>
      <trkpt lat="44.7038" lon="3.89136">
        <ele>1006</ele>
        <time>2009-07-11T11:13:43Z</time>
      </trkpt>
      <trkpt lat="44.70396" lon="3.89139">
        <ele>1008</ele>
        <time>2009-07-11T11:13:53Z</time>
      </trkpt>
      <trkpt lat="44.70404" lon="3.8914">
        <ele>1009</ele>
        <time>2009-07-11T11:13:58Z</time>
      </trkpt>
      <trkpt lat="44.70427" lon="3.89145">
        <ele>1013</ele>
        <time>2009-07-11T11:14:12Z</time>
      </trkpt>
      <trkpt lat="44.70444" lon="3.89149">
        <ele>1016</ele>
        <time>2009-07-11T11:14:25Z</time>
      </trkpt>
      <trkpt lat="44.70463" lon="3.89152">
        <ele>1018</ele>
        <time>2009-07-11T11:14:38Z</time>
      </trkpt>
      <trkpt lat="44.70484" lon="3.89156">
        <ele>1020</ele>
        <time>2009-07-11T11:14:50Z</time>
      </trkpt>
      <trkpt lat="44.70511" lon="3.89167">
        <ele>1021</ele>
        <time>2009-07-11T11:15:02Z</time>
      </trkpt>
      <trkpt lat="44.70546" lon="3.89182">
        <ele>1022</ele>
        <time>2009-07-11T11:15:15Z</time>
      </trkpt>
      <trkpt lat="44.70552" lon="3.89184">
        <ele>1021</ele>
        <time>2009-07-11T11:15:17Z</time>
      </trkpt>
      <trkpt lat="44.70582" lon="3.89198">
        <ele>1023</ele>
        <time>2009-07-11T11:15:28Z</time>
      </trkpt>
      <trkpt lat="44.7062" lon="3.89215">
        <ele>1024</ele>
        <time>2009-07-11T11:15:40Z</time>
      </trkpt>
      <trkpt lat="44.70652" lon="3.89233">
        <ele>1025</ele>
        <time>2009-07-11T11:15:52Z</time>
      </trkpt>
      <trkpt lat="44.70679" lon="3.89245">
        <ele>1025</ele>
        <time>2009-07-11T11:16:03Z</time>
      </trkpt>
      <trkpt lat="44.70711" lon="3.89263">
        <ele>1026</ele>
        <time>2009-07-11T11:16:15Z</time>
      </trkpt>
      <trkpt lat="44.70748" lon="3.89286">
        <ele>1026</ele>
        <time>2009-07-11T11:16:29Z</time>
      </trkpt>
      <trkpt lat="44.70775" lon="3.89301">
        <ele>1027</ele>
        <time>2009-07-11T11:16:38Z</time>
      </trkpt>
      <trkpt lat="44.70826" lon="3.89327">
        <ele>1026</ele>
        <time>2009-07-11T11:16:50Z</time>
      </trkpt>
      <trkpt lat="44.70856" lon="3.89345">
        <ele>1026</ele>
        <time>2009-07-11T11:16:59Z</time>
      </trkpt>
      <trkpt lat="44.70906" lon="3.89373">
        <ele>1027</ele>
        <time>2009-07-11T11:17:12Z</time>
      </trkpt>
      <trkpt lat="44.70956" lon="3.89399">
        <ele>1027</ele>
        <time>2009-07-11T11:17:26Z</time>
      </trkpt>
      <trkpt lat="44.70981" lon="3.8941">
        <ele>1029</ele>
        <time>2009-07-11T11:17:33Z</time>
      </trkpt>
      <trkpt lat="44.7103" lon="3.89442">
        <ele>1031</ele>
        <time>2009-07-11T11:17:49Z</time>
      </trkpt>
      <trkpt lat="44.71088" lon="3.89458">
        <ele>1033</ele>
        <time>2009-07-11T11:18:07Z</time>
      </trkpt>
      <trkpt lat="44.71127" lon="3.89469">
        <ele>1032</ele>
        <time>2009-07-11T11:18:19Z</time>
      </trkpt>
      <trkpt lat="44.71149" lon="3.89479">
        <ele>1032</ele>
        <time>2009-07-11T11:18:31Z</time>
      </trkpt>
      <trkpt lat="44.7115" lon="3.89479">
        <ele>1029</ele>
        <time>2009-07-11T11:18:48Z</time>
      </trkpt>
      <trkpt lat="44.7115" lon="3.89479">
        <ele>1035</ele>
        <time>2009-07-11T11:18:49Z</time>
      </trkpt>
      <trkpt lat="44.7115" lon="3.89479">
        <ele>1032</ele>
        <time>2009-07-11T11:18:50Z</time>
      </trkpt>
      <trkpt lat="44.7115" lon="3.89479">
        <ele>1035</ele>
        <time>2009-07-11T11:18:54Z</time>
      </trkpt>
      <trkpt lat="44.7115" lon="3.89479">
        <ele>1031</ele>
        <time>2009-07-11T11:18:55Z</time>
      </trkpt>
      <trkpt lat="44.7115" lon="3.89479">
        <ele>1035</ele>
        <time>2009-07-11T11:18:56Z</time>
      </trkpt>
      <trkpt lat="44.7115" lon="3.89479">
        <ele>1034</ele>
        <time>2009-07-11T11:19:01Z</time>
      </trkpt>
      <trkpt lat="44.7115" lon="3.89479">
        <ele>1032</ele>
        <time>2009-07-11T11:19:03Z</time>
      </trkpt>
      <trkpt lat="44.71148" lon="3.8948">
        <ele>1034</ele>
        <time>2009-07-11T11:20:16Z</time>
      </trkpt>
      <trkpt lat="44.71148" lon="3.8948">
        <ele>1033</ele>
        <time>2009-07-11T11:20:32Z</time>
      </trkpt>
      <trkpt lat="44.71148" lon="3.8948">
        <ele>1034</ele>
        <time>2009-07-11T11:20:34Z</time>
      </trkpt>
      <trkpt lat="44.7115" lon="3.8948">
        <ele>1033</ele>
        <time>2009-07-11T11:20:54Z</time>
      </trkpt>
      <trkpt lat="44.71162" lon="3.89463">
        <ele>1034</ele>
        <time>2009-07-11T11:21:01Z</time>
      </trkpt>
      <trkpt lat="44.71165" lon="3.89448">
        <ele>1030</ele>
        <time>2009-07-11T11:21:04Z</time>
      </trkpt>
      <trkpt lat="44.71166" lon="3.89443">
        <ele>1035</ele>
        <time>2009-07-11T11:21:05Z</time>
      </trkpt>
      <trkpt lat="44.71173" lon="3.89391">
        <ele>1033</ele>
        <time>2009-07-11T11:21:14Z</time>
      </trkpt>
      <trkpt lat="44.71184" lon="3.89326">
        <ele>1030</ele>
        <time>2009-07-11T11:21:24Z</time>
      </trkpt>
      <trkpt lat="44.71197" lon="3.89289">
        <ele>1028</ele>
        <time>2009-07-11T11:21:29Z</time>
      </trkpt>
      <trkpt lat="44.71228" lon="3.8924">
        <ele>1024</ele>
        <time>2009-07-11T11:21:36Z</time>
      </trkpt>
      <trkpt lat="44.71232" lon="3.89232">
        <ele>1024</ele>
        <time>2009-07-11T11:21:37Z</time>
      </trkpt>
      <trkpt lat="44.71257" lon="3.89189">
        <ele>1020</ele>
        <time>2009-07-11T11:21:42Z</time>
      </trkpt>
      <trkpt lat="44.71267" lon="3.8917">
        <ele>1019</ele>
        <time>2009-07-11T11:21:44Z</time>
      </trkpt>
      <trkpt lat="44.71275" lon="3.89153">
        <ele>1020</ele>
        <time>2009-07-11T11:21:46Z</time>
      </trkpt>
      <trkpt lat="44.71282" lon="3.89125">
        <ele>1018</ele>
        <time>2009-07-11T11:21:49Z</time>
      </trkpt>
      <trkpt lat="44.71281" lon="3.89096">
        <ele>1016</ele>
        <time>2009-07-11T11:21:52Z</time>
      </trkpt>
      <trkpt lat="44.71274" lon="3.89053">
        <ele>1013</ele>
        <time>2009-07-11T11:21:56Z</time>
      </trkpt>
      <trkpt lat="44.71271" lon="3.89029">
        <ele>1011</ele>
        <time>2009-07-11T11:21:58Z</time>
      </trkpt>
      <trkpt lat="44.7127" lon="3.89016">
        <ele>1009</ele>
        <time>2009-07-11T11:21:59Z</time>
      </trkpt>
      <trkpt lat="44.71273" lon="3.88976">
        <ele>1005</ele>
        <time>2009-07-11T11:22:02Z</time>
      </trkpt>
      <trkpt lat="44.71277" lon="3.88963">
        <ele>1006</ele>
        <time>2009-07-11T11:22:03Z</time>
      </trkpt>
      <trkpt lat="44.71282" lon="3.8895">
        <ele>1005</ele>
        <time>2009-07-11T11:22:04Z</time>
      </trkpt>
      <trkpt lat="44.71311" lon="3.88879">
        <ele>1001</ele>
        <time>2009-07-11T11:22:10Z</time>
      </trkpt>
      <trkpt lat="44.71328" lon="3.88791">
        <ele>998</ele>
        <time>2009-07-11T11:22:17Z</time>
      </trkpt>
      <trkpt lat="44.71338" lon="3.88719">
        <ele>995</ele>
        <time>2009-07-11T11:22:23Z</time>
      </trkpt>
      <trkpt lat="44.7135" lon="3.88632">
        <ele>994</ele>
        <time>2009-07-11T11:22:31Z</time>
      </trkpt>
      <trkpt lat="44.71364" lon="3.88535">
        <ele>991</ele>
        <time>2009-07-11T11:22:40Z</time>
      </trkpt>
      <trkpt lat="44.71393" lon="3.8833">
        <ele>988</ele>
        <time>2009-07-11T11:23:00Z</time>
      </trkpt>
      <trkpt lat="44.71418" lon="3.88153">
        <ele>986</ele>
        <time>2009-07-11T11:23:19Z</time>
      </trkpt>
      <trkpt lat="44.71427" lon="3.88094">
        <ele>984</ele>
        <time>2009-07-11T11:23:25Z</time>
      </trkpt>
      <trkpt lat="44.71432" lon="3.88054">
        <ele>982</ele>
        <time>2009-07-11T11:23:29Z</time>
      </trkpt>
      <trkpt lat="44.71438" lon="3.88013">
        <ele>981</ele>
        <time>2009-07-11T11:23:33Z</time>
      </trkpt>
      <trkpt lat="44.71455" lon="3.87896">
        <ele>978</ele>
        <time>2009-07-11T11:23:44Z</time>
      </trkpt>
      <trkpt lat="44.71461" lon="3.87851">
        <ele>975</ele>
        <time>2009-07-11T11:23:48Z</time>
      </trkpt>
      <trkpt lat="44.71487" lon="3.87672">
        <ele>974</ele>
        <time>2009-07-11T11:24:05Z</time>
      </trkpt>
      <trkpt lat="44.71548" lon="3.87549">
        <ele>973</ele>
        <time>2009-07-11T11:24:19Z</time>
      </trkpt>
      <trkpt lat="44.71667" lon="3.87345">
        <ele>971</ele>
        <time>2009-07-11T11:24:44Z</time>
      </trkpt>
      <trkpt lat="44.7175" lon="3.87238">
        <ele>969</ele>
        <time>2009-07-11T11:25:00Z</time>
      </trkpt>
      <trkpt lat="44.71872" lon="3.87165">
        <ele>966</ele>
        <time>2009-07-11T11:25:19Z</time>
      </trkpt>
      <trkpt lat="44.71919" lon="3.87153">
        <ele>966</ele>
        <time>2009-07-11T11:25:26Z</time>
      </trkpt>
      <trkpt lat="44.71953" lon="3.87165">
        <ele>965</ele>
        <time>2009-07-11T11:25:31Z</time>
      </trkpt>
      <trkpt lat="44.71966" lon="3.87176">
        <ele>964</ele>
        <time>2009-07-11T11:25:33Z</time>
      </trkpt>
      <trkpt lat="44.71984" lon="3.87198">
        <ele>962</ele>
        <time>2009-07-11T11:25:36Z</time>
      </trkpt>
      <trkpt lat="44.7199" lon="3.87205">
        <ele>960</ele>
        <time>2009-07-11T11:25:37Z</time>
      </trkpt>
      <trkpt lat="44.72009" lon="3.87215">
        <ele>958</ele>
        <time>2009-07-11T11:25:40Z</time>
      </trkpt>
      <trkpt lat="44.72026" lon="3.872">
        <ele>956</ele>
        <time>2009-07-11T11:25:43Z</time>
      </trkpt>
      <trkpt lat="44.72028" lon="3.87193">
        <ele>957</ele>
        <time>2009-07-11T11:25:44Z</time>
      </trkpt>
      <trkpt lat="44.7203" lon="3.87184">
        <ele>958</ele>
        <time>2009-07-11T11:25:46Z</time>
      </trkpt>
      <trkpt lat="44.7203" lon="3.87176">
        <ele>959</ele>
        <time>2009-07-11T11:25:56Z</time>
      </trkpt>
      <trkpt lat="44.72032" lon="3.87153">
        <ele>957</ele>
        <time>2009-07-11T11:26:02Z</time>
      </trkpt>
      <trkpt lat="44.72036" lon="3.87134">
        <ele>954</ele>
        <time>2009-07-11T11:26:05Z</time>
      </trkpt>
      <trkpt lat="44.72049" lon="3.87108">
        <ele>952</ele>
        <time>2009-07-11T11:26:09Z</time>
      </trkpt>
      <trkpt lat="44.7208" lon="3.87079">
        <ele>949</ele>
        <time>2009-07-11T11:26:15Z</time>
      </trkpt>
      <trkpt lat="44.72146" lon="3.87036">
        <ele>946</ele>
        <time>2009-07-11T11:26:25Z</time>
      </trkpt>
      <trkpt lat="44.72233" lon="3.8698">
        <ele>943</ele>
        <time>2009-07-11T11:26:38Z</time>
      </trkpt>
      <trkpt lat="44.7224" lon="3.86975">
        <ele>942</ele>
        <time>2009-07-11T11:26:39Z</time>
      </trkpt>
      <trkpt lat="44.7228" lon="3.8692">
        <ele>940</ele>
        <time>2009-07-11T11:26:46Z</time>
      </trkpt>
      <trkpt lat="44.72285" lon="3.8691">
        <ele>940</ele>
        <time>2009-07-11T11:26:47Z</time>
      </trkpt>
      <trkpt lat="44.72296" lon="3.86873">
        <ele>936</ele>
        <time>2009-07-11T11:26:50Z</time>
      </trkpt>
      <trkpt lat="44.72299" lon="3.8686">
        <ele>936</ele>
        <time>2009-07-11T11:26:51Z</time>
      </trkpt>
      <trkpt lat="44.72301" lon="3.86847">
        <ele>935</ele>
        <time>2009-07-11T11:26:52Z</time>
      </trkpt>
      <trkpt lat="44.72301" lon="3.86804">
        <ele>934</ele>
        <time>2009-07-11T11:26:55Z</time>
      </trkpt>
      <trkpt lat="44.72295" lon="3.86762">
        <ele>932</ele>
        <time>2009-07-11T11:26:58Z</time>
      </trkpt>
      <trkpt lat="44.72288" lon="3.86735">
        <ele>930</ele>
        <time>2009-07-11T11:27:00Z</time>
      </trkpt>
      <trkpt lat="44.7228" lon="3.8671">
        <ele>930</ele>
        <time>2009-07-11T11:27:02Z</time>
      </trkpt>
      <trkpt lat="44.72282" lon="3.86645">
        <ele>925</ele>
        <time>2009-07-11T11:27:07Z</time>
      </trkpt>
      <trkpt lat="44.72307" lon="3.86619">
        <ele>922</ele>
        <time>2009-07-11T11:27:10Z</time>
      </trkpt>
      <trkpt lat="44.7233" lon="3.86617">
        <ele>919</ele>
        <time>2009-07-11T11:27:12Z</time>
      </trkpt>
      <trkpt lat="44.72353" lon="3.8662">
        <ele>917</ele>
        <time>2009-07-11T11:27:14Z</time>
      </trkpt>
      <trkpt lat="44.72389" lon="3.86623">
        <ele>914</ele>
        <time>2009-07-11T11:27:17Z</time>
      </trkpt>
      <trkpt lat="44.72425" lon="3.86623">
        <ele>912</ele>
        <time>2009-07-11T11:27:20Z</time>
      </trkpt>
      <trkpt lat="44.72517" lon="3.86614">
        <ele>912</ele>
        <time>2009-07-11T11:27:29Z</time>
      </trkpt>
      <trkpt lat="44.72545" lon="3.86588">
        <ele>917</ele>
        <time>2009-07-11T11:27:34Z</time>
      </trkpt>
      <trkpt lat="44.72548" lon="3.86581">
        <ele>916</ele>
        <time>2009-07-11T11:27:35Z</time>
      </trkpt>
      <trkpt lat="44.72578" lon="3.86501">
        <ele>916</ele>
        <time>2009-07-11T11:27:48Z</time>
      </trkpt>
      <trkpt lat="44.72593" lon="3.86486">
        <ele>917</ele>
        <time>2009-07-11T11:27:52Z</time>
      </trkpt>
      <trkpt lat="44.72635" lon="3.86489">
        <ele>919</ele>
        <time>2009-07-11T11:28:01Z</time>
      </trkpt>
      <trkpt lat="44.72666" lon="3.86488">
        <ele>921</ele>
        <time>2009-07-11T11:28:10Z</time>
      </trkpt>
      <trkpt lat="44.72672" lon="3.86488">
        <ele>922</ele>
        <time>2009-07-11T11:28:12Z</time>
      </trkpt>
      <trkpt lat="44.72671" lon="3.86469">
        <ele>923</ele>
        <time>2009-07-11T11:28:20Z</time>
      </trkpt>
      <trkpt lat="44.72671" lon="3.86424">
        <ele>925</ele>
        <time>2009-07-11T11:28:34Z</time>
      </trkpt>
      <trkpt lat="44.72674" lon="3.86384">
        <ele>928</ele>
        <time>2009-07-11T11:28:49Z</time>
      </trkpt>
      <trkpt lat="44.72675" lon="3.86338">
        <ele>931</ele>
        <time>2009-07-11T11:29:05Z</time>
      </trkpt>
      <trkpt lat="44.72675" lon="3.86297">
        <ele>934</ele>
        <time>2009-07-11T11:29:19Z</time>
      </trkpt>
      <trkpt lat="44.72676" lon="3.86294">
        <ele>934</ele>
        <time>2009-07-11T11:29:20Z</time>
      </trkpt>
      <trkpt lat="44.72672" lon="3.86239">
        <ele>935</ele>
        <time>2009-07-11T11:29:35Z</time>
      </trkpt>
      <trkpt lat="44.72662" lon="3.86176">
        <ele>937</ele>
        <time>2009-07-11T11:29:51Z</time>
      </trkpt>
      <trkpt lat="44.72649" lon="3.86097">
        <ele>941</ele>
        <time>2009-07-11T11:30:11Z</time>
      </trkpt>
      <trkpt lat="44.72642" lon="3.86056">
        <ele>940</ele>
        <time>2009-07-11T11:30:25Z</time>
      </trkpt>
      <trkpt lat="44.72638" lon="3.86046">
        <ele>940</ele>
        <time>2009-07-11T11:30:36Z</time>
      </trkpt>
      <trkpt lat="44.7264" lon="3.86045">
        <ele>940</ele>
        <time>2009-07-11T11:30:56Z</time>
      </trkpt>
      <trkpt lat="44.7262" lon="3.8599">
        <ele>937</ele>
        <time>2009-07-11T11:31:09Z</time>
      </trkpt>
      <trkpt lat="44.72605" lon="3.85948">
        <ele>934</ele>
        <time>2009-07-11T11:31:14Z</time>
      </trkpt>
      <trkpt lat="44.72601" lon="3.85939">
        <ele>934</ele>
        <time>2009-07-11T11:31:15Z</time>
      </trkpt>
      <trkpt lat="44.72591" lon="3.85905">
        <ele>932</ele>
        <time>2009-07-11T11:31:19Z</time>
      </trkpt>
      <trkpt lat="44.72579" lon="3.85866">
        <ele>928</ele>
        <time>2009-07-11T11:31:24Z</time>
      </trkpt>
      <trkpt lat="44.72578" lon="3.85848">
        <ele>927</ele>
        <time>2009-07-11T11:31:26Z</time>
      </trkpt>
      <trkpt lat="44.7258" lon="3.85834">
        <ele>926</ele>
        <time>2009-07-11T11:31:28Z</time>
      </trkpt>
      <trkpt lat="44.72583" lon="3.85796">
        <ele>922</ele>
        <time>2009-07-11T11:31:33Z</time>
      </trkpt>
      <trkpt lat="44.72585" lon="3.85778">
        <ele>920</ele>
        <time>2009-07-11T11:31:35Z</time>
      </trkpt>
      <trkpt lat="44.72595" lon="3.8574">
        <ele>917</ele>
        <time>2009-07-11T11:31:41Z</time>
      </trkpt>
      <trkpt lat="44.72605" lon="3.85725">
        <ele>917</ele>
        <time>2009-07-11T11:31:49Z</time>
      </trkpt>
      <trkpt lat="44.72578" lon="3.85704">
        <ele>916</ele>
        <time>2009-07-11T11:32:00Z</time>
      </trkpt>
      <trkpt lat="44.72539" lon="3.85658">
        <ele>919</ele>
        <time>2009-07-11T11:32:16Z</time>
      </trkpt>
      <trkpt lat="44.72538" lon="3.85653">
        <ele>918</ele>
        <time>2009-07-11T11:32:18Z</time>
      </trkpt>
      <trkpt lat="44.72552" lon="3.85636">
        <ele>918</ele>
        <time>2009-07-11T11:32:27Z</time>
      </trkpt>
      <trkpt lat="44.72554" lon="3.85636">
        <ele>918</ele>
        <time>2009-07-11T11:32:35Z</time>
      </trkpt>
      <trkpt lat="44.72569" lon="3.85632">
        <ele>917</ele>
        <time>2009-07-11T11:32:40Z</time>
      </trkpt>
      <trkpt lat="44.7258" lon="3.8562">
        <ele>917</ele>
        <time>2009-07-11T11:32:42Z</time>
      </trkpt>
      <trkpt lat="44.72612" lon="3.85587">
        <ele>917</ele>
        <time>2009-07-11T11:32:52Z</time>
      </trkpt>
      <trkpt lat="44.72617" lon="3.85582">
        <ele>917</ele>
        <time>2009-07-11T11:32:54Z</time>
      </trkpt>
      <trkpt lat="44.72627" lon="3.85568">
        <ele>918</ele>
        <time>2009-07-11T11:32:59Z</time>
      </trkpt>
      <trkpt lat="44.72632" lon="3.85559">
        <ele>918</ele>
        <time>2009-07-11T11:33:04Z</time>
      </trkpt>
      <trkpt lat="44.72629" lon="3.85533">
        <ele>921</ele>
        <time>2009-07-11T11:33:15Z</time>
      </trkpt>
      <trkpt lat="44.72625" lon="3.85527">
        <ele>921</ele>
        <time>2009-07-11T11:33:29Z</time>
      </trkpt>
      <trkpt lat="44.72616" lon="3.85506">
        <ele>921</ele>
        <time>2009-07-11T11:33:41Z</time>
      </trkpt>
      <trkpt lat="44.72591" lon="3.8548">
        <ele>922</ele>
        <time>2009-07-11T11:33:52Z</time>
      </trkpt>
      <trkpt lat="44.72573" lon="3.85467">
        <ele>923</ele>
        <time>2009-07-11T11:34:04Z</time>
      </trkpt>
      <trkpt lat="44.72578" lon="3.85475">
        <ele>922</ele>
        <time>2009-07-11T11:34:08Z</time>
      </trkpt>
      <trkpt lat="44.72599" lon="3.85507">
        <ele>922</ele>
        <time>2009-07-11T11:34:17Z</time>
      </trkpt>
      <trkpt lat="44.72607" lon="3.85512">
        <ele>921</ele>
        <time>2009-07-11T11:34:22Z</time>
      </trkpt>
      <trkpt lat="44.72639" lon="3.85489">
        <ele>924</ele>
        <time>2009-07-11T11:34:34Z</time>
      </trkpt>
      <trkpt lat="44.72652" lon="3.85464">
        <ele>926</ele>
        <time>2009-07-11T11:34:45Z</time>
      </trkpt>
      <trkpt lat="44.72649" lon="3.85459">
        <ele>926</ele>
        <time>2009-07-11T11:34:50Z</time>
      </trkpt>
      <trkpt lat="44.72643" lon="3.85465">
        <ele>925</ele>
        <time>2009-07-11T11:34:54Z</time>
      </trkpt>
      <trkpt lat="44.72634" lon="3.85474">
        <ele>925</ele>
        <time>2009-07-11T11:34:58Z</time>
      </trkpt>
      <trkpt lat="44.7263" lon="3.85471">
        <ele>925</ele>
        <time>2009-07-11T11:35:04Z</time>
      </trkpt>
      <trkpt lat="44.7263" lon="3.85466">
        <ele>926</ele>
        <time>2009-07-11T11:35:07Z</time>
      </trkpt>
      <trkpt lat="44.72637" lon="3.85442">
        <ele>927</ele>
        <time>2009-07-11T11:35:15Z</time>
      </trkpt>
      <trkpt lat="44.72636" lon="3.85433">
        <ele>927</ele>
        <time>2009-07-11T11:35:19Z</time>
      </trkpt>
      <trkpt lat="44.72636" lon="3.85429">
        <ele>927</ele>
        <time>2009-07-11T11:35:21Z</time>
      </trkpt>
      <trkpt lat="44.72638" lon="3.85413">
        <ele>929</ele>
        <time>2009-07-11T11:35:27Z</time>
      </trkpt>
      <trkpt lat="44.72638" lon="3.85399">
        <ele>931</ele>
        <time>2009-07-11T11:35:32Z</time>
      </trkpt>
      <trkpt lat="44.72639" lon="3.85384">
        <ele>932</ele>
        <time>2009-07-11T11:35:38Z</time>
      </trkpt>
      <trkpt lat="44.7264" lon="3.85373">
        <ele>934</ele>
        <time>2009-07-11T11:35:42Z</time>
      </trkpt>
      <trkpt lat="44.72641" lon="3.85359">
        <ele>936</ele>
        <time>2009-07-11T11:35:48Z</time>
      </trkpt>
      <trkpt lat="44.7264" lon="3.85314">
        <ele>938</ele>
        <time>2009-07-11T11:36:05Z</time>
      </trkpt>
      <trkpt lat="44.7263" lon="3.85289">
        <ele>941</ele>
        <time>2009-07-11T11:36:15Z</time>
      </trkpt>
      <trkpt lat="44.7263" lon="3.85242">
        <ele>944</ele>
        <time>2009-07-11T11:36:32Z</time>
      </trkpt>
      <trkpt lat="44.72626" lon="3.852">
        <ele>946</ele>
        <time>2009-07-11T11:36:46Z</time>
      </trkpt>
      <trkpt lat="44.72622" lon="3.85186">
        <ele>948</ele>
        <time>2009-07-11T11:36:51Z</time>
      </trkpt>
      <trkpt lat="44.72618" lon="3.85167">
        <ele>950</ele>
        <time>2009-07-11T11:37:06Z</time>
      </trkpt>
      <trkpt lat="44.72619" lon="3.85128">
        <ele>951</ele>
        <time>2009-07-11T11:37:16Z</time>
      </trkpt>
      <trkpt lat="44.72632" lon="3.85055">
        <ele>952</ele>
        <time>2009-07-11T11:37:31Z</time>
      </trkpt>
      <trkpt lat="44.72645" lon="3.85013">
        <ele>953</ele>
        <time>2009-07-11T11:37:46Z</time>
      </trkpt>
      <trkpt lat="44.72645" lon="3.85015">
        <ele>953</ele>
        <time>2009-07-11T11:38:09Z</time>
      </trkpt>
      <trkpt lat="44.72644" lon="3.85015">
        <ele>953</ele>
        <time>2009-07-11T11:38:27Z</time>
      </trkpt>
      <trkpt lat="44.72634" lon="3.84993">
        <ele>953</ele>
        <time>2009-07-11T11:38:36Z</time>
      </trkpt>
      <trkpt lat="44.72592" lon="3.84918">
        <ele>953</ele>
        <time>2009-07-11T11:38:53Z</time>
      </trkpt>
      <trkpt lat="44.72567" lon="3.84863">
        <ele>956</ele>
        <time>2009-07-11T11:39:07Z</time>
      </trkpt>
      <trkpt lat="44.72545" lon="3.84839">
        <ele>959</ele>
        <time>2009-07-11T11:39:18Z</time>
      </trkpt>
      <trkpt lat="44.72521" lon="3.84824">
        <ele>962</ele>
        <time>2009-07-11T11:39:29Z</time>
      </trkpt>
      <trkpt lat="44.72492" lon="3.84801">
        <ele>964</ele>
        <time>2009-07-11T11:39:44Z</time>
      </trkpt>
      <trkpt lat="44.72485" lon="3.84758">
        <ele>967</ele>
        <time>2009-07-11T11:39:59Z</time>
      </trkpt>
      <trkpt lat="44.72483" lon="3.84717">
        <ele>970</ele>
        <time>2009-07-11T11:40:12Z</time>
      </trkpt>
      <trkpt lat="44.72478" lon="3.84693">
        <ele>973</ele>
        <time>2009-07-11T11:40:20Z</time>
      </trkpt>
      <trkpt lat="44.72471" lon="3.8466">
        <ele>975</ele>
        <time>2009-07-11T11:40:32Z</time>
      </trkpt>
      <trkpt lat="44.72469" lon="3.84619">
        <ele>975</ele>
        <time>2009-07-11T11:40:47Z</time>
      </trkpt>
      <trkpt lat="44.72474" lon="3.84573">
        <ele>972</ele>
        <time>2009-07-11T11:40:57Z</time>
      </trkpt>
      <trkpt lat="44.72486" lon="3.84507">
        <ele>971</ele>
        <time>2009-07-11T11:41:06Z</time>
      </trkpt>
      <trkpt lat="44.72488" lon="3.84483">
        <ele>967</ele>
        <time>2009-07-11T11:41:09Z</time>
      </trkpt>
      <trkpt lat="44.7249" lon="3.84465">
        <ele>967</ele>
        <time>2009-07-11T11:41:11Z</time>
      </trkpt>
      <trkpt lat="44.72485" lon="3.84343">
        <ele>966</ele>
        <time>2009-07-11T11:41:24Z</time>
      </trkpt>
      <trkpt lat="44.72465" lon="3.84236">
        <ele>967</ele>
        <time>2009-07-11T11:41:39Z</time>
      </trkpt>
      <trkpt lat="44.72452" lon="3.84141">
        <ele>970</ele>
        <time>2009-07-11T11:41:54Z</time>
      </trkpt>
      <trkpt lat="44.7245" lon="3.84035">
        <ele>973</ele>
        <time>2009-07-11T11:42:13Z</time>
      </trkpt>
      <trkpt lat="44.72442" lon="3.83993">
        <ele>974</ele>
        <time>2009-07-11T11:42:26Z</time>
      </trkpt>
      <trkpt lat="44.72424" lon="3.83949">
        <ele>971</ele>
        <time>2009-07-11T11:42:36Z</time>
      </trkpt>
      <trkpt lat="44.72416" lon="3.83928">
        <ele>970</ele>
        <time>2009-07-11T11:42:39Z</time>
      </trkpt>
      <trkpt lat="44.72385" lon="3.83866">
        <ele>967</ele>
        <time>2009-07-11T11:42:49Z</time>
      </trkpt>
      <trkpt lat="44.72381" lon="3.83859">
        <ele>967</ele>
        <time>2009-07-11T11:42:50Z</time>
      </trkpt>
      <trkpt lat="44.72358" lon="3.83813">
        <ele>964</ele>
        <time>2009-07-11T11:42:57Z</time>
      </trkpt>
      <trkpt lat="44.72335" lon="3.83751">
        <ele>961</ele>
        <time>2009-07-11T11:43:05Z</time>
      </trkpt>
      <trkpt lat="44.72324" lon="3.83662">
        <ele>958</ele>
        <time>2009-07-11T11:43:15Z</time>
      </trkpt>
      <trkpt lat="44.72321" lon="3.83635">
        <ele>959</ele>
        <time>2009-07-11T11:43:23Z</time>
      </trkpt>
      <trkpt lat="44.72321" lon="3.83636">
        <ele>959</ele>
        <time>2009-07-11T11:43:30Z</time>
      </trkpt>
      <trkpt lat="44.72318" lon="3.83641">
        <ele>958</ele>
        <time>2009-07-11T11:43:35Z</time>
      </trkpt>
      <trkpt lat="44.72327" lon="3.83711">
        <ele>960</ele>
        <time>2009-07-11T11:43:50Z</time>
      </trkpt>
      <trkpt lat="44.72344" lon="3.83795">
        <ele>963</ele>
        <time>2009-07-11T11:44:08Z</time>
      </trkpt>
      <trkpt lat="44.7236" lon="3.83829">
        <ele>965</ele>
        <time>2009-07-11T11:44:17Z</time>
      </trkpt>
      <trkpt lat="44.72393" lon="3.83894">
        <ele>968</ele>
        <time>2009-07-11T11:44:35Z</time>
      </trkpt>
      <trkpt lat="44.72419" lon="3.83947">
        <ele>971</ele>
        <time>2009-07-11T11:44:50Z</time>
      </trkpt>
      <trkpt lat="44.72443" lon="3.83998">
        <ele>973</ele>
        <time>2009-07-11T11:45:05Z</time>
      </trkpt>
      <trkpt lat="44.72447" lon="3.84">
        <ele>973</ele>
        <time>2009-07-11T11:45:09Z</time>
      </trkpt>
      <trkpt lat="44.72462" lon="3.83984">
        <ele>973</ele>
        <time>2009-07-11T11:45:16Z</time>
      </trkpt>
      <trkpt lat="44.72487" lon="3.83936">
        <ele>973</ele>
        <time>2009-07-11T11:45:30Z</time>
      </trkpt>
      <trkpt lat="44.72507" lon="3.83906">
        <ele>973</ele>
        <time>2009-07-11T11:45:38Z</time>
      </trkpt>
      <trkpt lat="44.72512" lon="3.83877">
        <ele>970</ele>
        <time>2009-07-11T11:45:43Z</time>
      </trkpt>
      <trkpt lat="44.72519" lon="3.83861">
        <ele>968</ele>
        <time>2009-07-11T11:45:45Z</time>
      </trkpt>
      <trkpt lat="44.72524" lon="3.83854">
        <ele>968</ele>
        <time>2009-07-11T11:45:46Z</time>
      </trkpt>
      <trkpt lat="44.72536" lon="3.83836">
        <ele>968</ele>
        <time>2009-07-11T11:45:49Z</time>
      </trkpt>
      <trkpt lat="44.72546" lon="3.83828">
        <ele>968</ele>
        <time>2009-07-11T11:45:51Z</time>
      </trkpt>
      <trkpt lat="44.7256" lon="3.83812">
        <ele>968</ele>
        <time>2009-07-11T11:45:55Z</time>
      </trkpt>
      <trkpt lat="44.72567" lon="3.83797">
        <ele>968</ele>
        <time>2009-07-11T11:45:58Z</time>
      </trkpt>
      <trkpt lat="44.72594" lon="3.83769">
        <ele>970</ele>
        <time>2009-07-11T11:46:10Z</time>
      </trkpt>
      <trkpt lat="44.72622" lon="3.8376">
        <ele>970</ele>
        <time>2009-07-11T11:46:22Z</time>
      </trkpt>
      <trkpt lat="44.72663" lon="3.83746">
        <ele>971</ele>
        <time>2009-07-11T11:46:35Z</time>
      </trkpt>
      <trkpt lat="44.72691" lon="3.83728">
        <ele>971</ele>
        <time>2009-07-11T11:46:49Z</time>
      </trkpt>
      <trkpt lat="44.7272" lon="3.83718">
        <ele>970</ele>
        <time>2009-07-11T11:47:00Z</time>
      </trkpt>
      <trkpt lat="44.72742" lon="3.83709">
        <ele>969</ele>
        <time>2009-07-11T11:47:08Z</time>
      </trkpt>
      <trkpt lat="44.72746" lon="3.8371">
        <ele>970</ele>
        <time>2009-07-11T11:47:23Z</time>
      </trkpt>
      <trkpt lat="44.72744" lon="3.8371">
        <ele>969</ele>
        <time>2009-07-11T11:47:49Z</time>
      </trkpt>
      <trkpt lat="44.72745" lon="3.83709">
        <ele>969</ele>
        <time>2009-07-11T11:48:11Z</time>
      </trkpt>
      <trkpt lat="44.72745" lon="3.8371">
        <ele>970</ele>
        <time>2009-07-11T11:48:18Z</time>
      </trkpt>
      <trkpt lat="44.72744" lon="3.8371">
        <ele>970</ele>
        <time>2009-07-11T11:48:54Z</time>
      </trkpt>
      <trkpt lat="44.7275" lon="3.8372">
        <ele>971</ele>
        <time>2009-07-11T11:49:14Z</time>
      </trkpt>
      <trkpt lat="44.72754" lon="3.83728">
        <ele>973</ele>
        <time>2009-07-11T11:49:24Z</time>
      </trkpt>
      <trkpt lat="44.72759" lon="3.83729">
        <ele>972</ele>
        <time>2009-07-11T11:49:40Z</time>
      </trkpt>
      <trkpt lat="44.72759" lon="3.83728">
        <ele>972</ele>
        <time>2009-07-11T11:49:42Z</time>
      </trkpt>
      <trkpt lat="44.72771" lon="3.83725">
        <ele>971</ele>
        <time>2009-07-11T11:49:50Z</time>
      </trkpt>
      <trkpt lat="44.72819" lon="3.83713">
        <ele>968</ele>
        <time>2009-07-11T11:50:05Z</time>
      </trkpt>
      <trkpt lat="44.72823" lon="3.83712">
        <ele>971</ele>
        <time>2009-07-11T11:50:06Z</time>
      </trkpt>
      <trkpt lat="44.72891" lon="3.83698">
        <ele>970</ele>
        <time>2009-07-11T11:50:24Z</time>
      </trkpt>
      <trkpt lat="44.72941" lon="3.83684">
        <ele>969</ele>
        <time>2009-07-11T11:50:38Z</time>
      </trkpt>
      <trkpt lat="44.73002" lon="3.83665">
        <ele>970</ele>
        <time>2009-07-11T11:50:54Z</time>
      </trkpt>
      <trkpt lat="44.73072" lon="3.83645">
        <ele>967</ele>
        <time>2009-07-11T11:51:09Z</time>
      </trkpt>
      <trkpt lat="44.73126" lon="3.83634">
        <ele>964</ele>
        <time>2009-07-11T11:51:19Z</time>
      </trkpt>
      <trkpt lat="44.73159" lon="3.83626">
        <ele>965</ele>
        <time>2009-07-11T11:51:25Z</time>
      </trkpt>
      <trkpt lat="44.7321" lon="3.83616">
        <ele>965</ele>
        <time>2009-07-11T11:51:37Z</time>
      </trkpt>
      <trkpt lat="44.73219" lon="3.83613">
        <ele>964</ele>
        <time>2009-07-11T11:51:43Z</time>
      </trkpt>
      <trkpt lat="44.73253" lon="3.83602">
        <ele>964</ele>
        <time>2009-07-11T11:51:56Z</time>
      </trkpt>
      <trkpt lat="44.73284" lon="3.8359">
        <ele>963</ele>
        <time>2009-07-11T11:52:08Z</time>
      </trkpt>
      <trkpt lat="44.73344" lon="3.83569">
        <ele>962</ele>
        <time>2009-07-11T11:52:25Z</time>
      </trkpt>
      <trkpt lat="44.73364" lon="3.83564">
        <ele>962</ele>
        <time>2009-07-11T11:52:31Z</time>
      </trkpt>
      <trkpt lat="44.73366" lon="3.83558">
        <ele>963</ele>
        <time>2009-07-11T11:52:38Z</time>
      </trkpt>
      <trkpt lat="44.73364" lon="3.83557">
        <ele>963</ele>
        <time>2009-07-11T11:52:57Z</time>
      </trkpt>
    </trkseg>
  </trk>
</gpx>